ECMWFFLT2_sfc_thetae_000.txt.gz
Theta_e
315 315 315 315 315 315 316 316 315 315 315 314 314 313 314 314 313 314 314 315 314 313 315 316 317 317 316 315 316 317 317 317 318 318 318 319 319 319 319 320 320 320 320 320 319 319 319 319 319 319 318 313
313 313 313 313 312 312 312 313 313 313 312 311 311 310 310 310 310 310 311 312 313 312 311 311 313 315 315 315 315 316 317 317 317 317 317 318 317 318 318 318 319 318 319 319 318 317 317 317 317 316 316 311
308 311 311 311 311 310 310 310 310 310 309 309 308 307 308 308 308 307 307 308 308 309 308 307 308 311 313 313 312 313 314 315 315 315 315 316 316 316 317 317 317 318 318 318 316 316 316 317 315 314 312 309
302 308 308 309 309 309 308 308 307 305 305 306 305 304 306 308 308 307 306 308 305 306 306 306 305 308 310 311 311 311 313 313 313 313 314 314 315 315 315 315 316 317 318 314 314 315 317 315 313 307 308 311
300 304 306 306 306 306 306 306 306 306 306 306 306 306 307 305 306 303 301 300 301 308 305 307 306 307 309 309 309 309 311 312 311 312 313 313 313 313 313 313 314 315 314 312 313 316 314 312 306 308 307 307
303 303 304 300 300 302 303 304 306 303 302 307 303 307 304 301 300 300 298 299 304 302 304 305 308 307 306 308 307 307 309 310 310 311 312 311 312 312 310 311 307 306 309 312 314 312 311 306 304 304 305 305
302 301 301 301 299 301 305 303 303 302 302 301 302 302 302 300 300 302 300 300 302 303 306 305 308 307 305 306 305 305 306 307 308 308 309 309 309 309 310 302 301 301 301 302 307 306 304 302 302 303 303 303
300 299 300 299 300 300 300 300 302 301 301 301 301 301 299 299 301 301 299 304 306 305 300 301 305 306 305 304 305 303 303 305 306 306 307 307 307 308 304 301 301 301 300 301 302 302 301 300 302 302 302 301
298 299 298 299 300 300 299 300 300 300 300 300 301 300 298 299 300 301 298 299 299 298 298 297 296 297 296 297 297 303 295 297 298 298 298 298 300 298 299 300 301 301 301 301 302 301 301 301 301 302 301 300
300 301 298 299 299 299 299 301 299 300 299 299 299 298 299 299 299 298 297 298 298 297 296 296 296 295 296 295 295 296 294 295 296 295 295 296 297 297 297 298 298 299 301 301 300 300 301 301 301 301 300 300
298 298 299 299 298 299 298 299 299 298 297 298 298 299 298 298 297 296 296 296 297 296 296 295 295 295 295 294 294 295 294 295 295 294 294 295 296 296 296 297 297 297 298 298 299 299 300 300 300 300 299 299
296 298 299 300 300 300 300 299 298 297 297 299 296 297 297 298 295 295 295 296 295 295 295 295 295 295 294 294 294 294 294 294 293 293 293 295 295 295 295 296 296 296 297 297 297 298 298 299 299 299 299 300
296 298 298 296 297 296 300 298 297 296 297 296 295 297 297 297 295 294 294 295 295 295 295 294 294 294 293 294 293 293 292 293 292 292 293 294 294 294 294 294 295 295 295 296 296 296 296 297 298 298 298 299
297 297 297 296 297 295 298 297 297 296 296 295 295 295 296 296 295 294 293 294 293 293 294 293 293 293 293 293 293 292 292 292 292 292 292 293 294 294 294 294 294 295 294 295 296 296 296 296 296 297 297 298
297 297 296 297 296 294 296 296 297 296 295 295 294 294 296 295 294 295 294 293 293 293 293 293 292 292 292 292 292 291 291 292 292 292 292 293 293 293 293 293 294 293 294 294 295 295 295 295 296 295 296 296
296 296 297 297 296 295 297 296 295 295 295 295 294 295 295 294 294 294 294 294 294 293 292 292 292 292 292 291 291 291 291 291 292 292 292 293 293 293 293 293 292 293 293 293 293 293 293 294 294 294 295 295
296 296 297 296 295 296 298 296 295 295 295 294 295 294 294 293 294 293 293 293 293 293 291 292 292 291 292 291 291 290 292 292 291 290 290 291 292 291 292 292 292 294 292 291 292 292 293 293 293 294 294 294
295 296 295 295 295 296 295 294 294 295 294 294 294 294 294 293 293 293 292 292 292 291 291 291 291 291 290 290 291 291 291 290 289 289 290 290 290 292 291 290 290 290 290 290 291 291 292 293 293 293 293 293
295 295 295 294 295 295 294 294 294 293 294 293 293 293 293 293 293 292 293 292 291 291 290 290 290 290 290 290 290 289 290 290 289 289 289 289 289 289 289 289 290 290 289 289 290 291 292 291 292 292 292 293
295 295 294 294 296 294 294 293 294 293 293 293 292 293 292 292 292 292 292 292 291 290 290 289 289 289 290 290 289 289 289 290 288 288 290 289 289 288 288 289 289 289 289 289 289 290 290 290 292 291 292 292
294 294 294 294 294 294 294 293 293 293 293 293 292 292 292 292 292 292 292 291 291 290 290 289 289 289 290 290 289 289 288 288 289 288 290 288 290 289 287 287 287 288 288 288 289 289 290 290 291 291 292 292
294 294 294 293 293 294 293 293 293 292 292 292 291 291 292 292 292 292 291 290 290 289 289 289 288 288 289 289 289 288 288 287 288 288 288 288 288 289 288 287 287 287 287 289 290 289 289 290 290 290 291 292
293 293 293 292 292 292 292 292 292 291 291 291 291 291 292 292 291 291 291 290 290 289 288 288 288 288 289 288 288 288 288 287 288 288 288 288 287 288 288 287 287 287 288 289 289 289 289 289 290 290 291 292
292 291 291 290 290 290 291 290 291 291 290 291 290 292 291 291 290 291 290 289 289 288 288 287 287 287 288 288 287 287 287 286 286 287 287 286 287 286 287 288 288 288 288 287 287 288 289 289 290 290 290 290
291 290 290 290 290 289 289 289 290 290 291 291 290 291 291 291 290 290 289 289 289 288 289 287 287 287 287 287 287 286 286 287 287 287 287 286 286 286 286 286 287 287 287 285 285 287 286 287 288 289 290 290
291 291 291 290 289 289 289 289 289 289 290 290 292 291 291 290 290 290 289 289 288 288 287 286 286 286 286 287 287 287 287 287 288 287 286 287 285 286 286 284 286 287 286 284 283 282 283 284 286 289 289 289
291 291 291 290 290 290 289 290 290 290 290 291 290 290 290 290 290 290 289 288 288 288 287 286 285 285 286 286 287 286 285 286 285 286 285 286 285 284 285 286 287 286 287 283 283 284 282 280 281 285 286 288
291 291 291 291 291 291 290 288 290 289 289 289 289 289 290 289 289 289 288 288 288 288 287 286 286 285 285 286 287 286 285 285 284 285 285 285 286 285 282 283 283 287 286 285 284 279 280 280 281 278 281 282
291 292 290 289 289 289 288 288 287 287 286 287 288 288 288 288 289 289 288 288 287 287 287 286 286 285 285 285 285 286 284 284 284 284 285 285 285 284 283 282 283 284 286 285 286 283 281 278 277 278 280 283
292 291 289 288 286 285 285 284 285 284 285 286 286 287 288 288 288 288 287 287 287 286 286 285 285 285 284 284 285 285 285 284 284 284 284 284 284 284 284 283 282 281 284 286 286 286 284 283 278 279 281 280
291 290 289 288 287 287 286 285 285 286 286 287 287 288 287 287 288 288 287 286 286 286 286 285 285 285 284 284 284 285 284 283 283 284 284 285 284 284 286 283 281 281 282 283 284 285 286 286 286 285 282 279

ECMWFFLT2_sfc_thetae_003.txt.gz
Theta_e
321 322 322 322 321 320 320 320 320 320 319 318 318 317 317 316 315 315 314 314 313 312 313 316 317 316 317 317 318 318 319 319 319 319 319 319 319 319 319 319 319 318 320 317 316 316 315 316 317 318 316 310
319 319 320 320 319 319 318 318 318 317 316 315 314 313 312 312 313 313 313 313 312 312 312 314 316 316 315 316 316 317 317 317 317 318 318 318 318 318 318 317 317 316 317 316 316 315 314 315 315 315 314 307
313 316 316 316 316 316 316 316 315 314 313 312 313 313 312 311 310 310 310 310 311 310 309 310 312 313 313 313 314 315 316 315 315 316 316 316 316 316 314 314 314 315 314 314 314 314 314 314 312 310 307 304
306 313 314 313 313 313 313 312 312 311 311 310 311 311 310 310 306 306 306 308 306 307 307 307 308 311 311 311 312 313 313 313 314 314 314 314 314 313 312 312 312 312 312 312 313 313 314 311 308 302 301 301
304 308 312 312 311 311 310 308 308 307 308 308 309 308 309 307 302 299 298 298 299 308 303 307 308 309 310 308 309 310 310 311 312 312 312 312 312 311 310 309 310 310 311 311 311 312 311 307 301 300 301 301
303 305 306 302 303 303 306 308 309 306 302 308 300 307 305 301 303 297 297 299 306 302 305 305 306 308 307 307 307 307 308 309 310 310 310 310 309 308 308 307 300 301 305 308 310 310 308 301 299 300 300 300
301 300 298 299 299 302 305 304 304 301 303 300 299 299 299 299 299 296 297 298 301 302 308 305 309 305 305 304 305 305 305 306 308 308 308 308 307 307 305 298 297 298 298 299 304 304 300 299 299 300 300 299
298 298 297 297 298 299 299 299 301 299 299 298 297 298 297 297 299 298 297 308 307 305 297 298 304 305 304 304 303 303 300 303 304 304 305 306 305 302 298 295 295 296 296 298 299 299 298 298 299 299 299 298
297 298 298 296 296 297 297 297 298 298 298 297 297 296 297 297 298 297 296 296 296 295 295 294 294 294 294 294 294 300 293 293 294 295 293 294 296 294 295 294 294 295 295 296 296 296 297 298 298 298 298 298
298 299 297 295 296 297 297 298 297 297 297 297 296 295 296 298 296 296 296 295 294 295 294 294 293 293 293 293 292 295 292 292 292 292 292 293 293 293 294 294 294 294 295 294 295 295 296 296 297 297 297 297
298 297 297 296 297 297 297 297 296 296 296 296 295 295 296 296 294 294 294 294 294 293 294 293 292 292 292 291 291 293 291 291 291 291 291 292 293 293 293 293 294 294 294 294 294 294 295 295 295 296 295 296
297 296 297 297 300 298 298 297 296 295 295 296 294 295 296 296 294 293 293 293 293 293 293 293 292 291 292 291 291 292 292 291 290 290 291 291 291 292 292 293 293 293 294 294 293 294 294 294 295 294 294 294
297 297 297 298 298 296 301 296 296 295 295 294 294 294 295 295 293 292 293 292 293 292 292 292 291 291 291 291 290 291 290 291 290 290 290 291 291 291 291 291 292 293 293 293 293 293 293 294 294 293 293 293
296 296 296 297 297 296 299 295 295 295 294 293 293 293 293 294 293 292 291 291 291 291 291 291 291 291 290 290 290 289 290 290 290 290 290 290 291 291 291 291 291 292 291 292 293 292 293 293 292 292 293 293
295 296 296 296 296 296 296 295 295 294 293 292 292 293 293 293 294 292 292 291 290 291 290 290 290 290 290 289 289 289 289 290 291 290 290 290 290 291 290 290 291 290 290 291 291 291 291 292 292 292 292 292
295 296 295 296 294 294 295 295 294 293 293 293 293 293 292 292 292 294 292 291 291 291 290 290 289 289 289 288 289 289 289 290 290 290 289 290 291 290 290 290 289 290 290 289 290 290 290 291 291 291 291 291
296 296 295 295 293 294 296 294 293 293 292 292 293 293 292 292 293 293 292 291 292 292 289 290 289 289 289 288 289 289 290 289 288 288 288 289 290 289 290 289 289 291 290 289 289 289 290 290 290 291 291 291
295 295 295 294 293 295 294 293 293 293 292 293 293 292 292 291 292 292 291 291 290 289 289 290 289 289 288 288 289 288 289 287 288 288 288 288 288 291 289 288 288 288 288 288 288 289 289 289 289 289 289 290
295 295 295 294 294 294 294 293 293 292 292 292 292 292 291 291 292 291 291 291 289 289 289 288 288 288 288 288 288 287 288 287 287 287 288 288 287 287 287 287 288 288 287 288 288 288 288 288 289 289 289 290
295 295 294 294 296 294 293 293 292 292 292 292 292 291 291 291 291 291 290 290 290 289 288 287 287 287 288 288 287 288 288 288 287 287 288 288 287 286 287 288 287 287 287 287 287 288 288 288 289 289 289 289
293 294 293 294 294 293 293 292 292 292 292 291 291 291 290 290 291 290 290 290 289 289 288 287 288 287 288 288 287 287 286 286 288 287 289 286 288 287 286 286 286 286 287 287 287 288 288 289 289 288 288 289
293 293 293 293 292 293 292 291 291 291 291 291 291 290 290 290 291 290 290 289 289 288 288 288 287 287 288 288 287 286 286 286 287 286 286 286 286 287 286 285 285 285 286 287 287 288 288 288 288 288 288 289
292 292 292 291 291 291 290 291 290 291 290 290 291 290 290 290 290 290 289 289 289 288 288 287 287 287 287 287 286 286 285 285 287 287 286 285 285 286 286 285 285 286 286 287 287 287 287 287 287 288 288 289
291 291 291 290 290 289 290 290 290 290 290 290 290 291 290 290 290 290 289 289 288 288 288 287 287 287 287 287 286 285 285 284 284 285 285 285 286 284 285 286 286 286 286 285 285 286 287 287 287 287 287 287
291 290 290 289 290 290 290 290 290 289 289 289 290 290 290 290 289 289 289 289 288 287 288 287 286 286 286 286 287 286 286 285 286 286 286 286 285 285 284 284 285 285 285 284 284 285 285 285 286 287 287 286
292 292 291 291 290 290 289 289 289 289 289 289 290 290 290 289 289 289 289 288 287 287 287 286 286 286 286 286 286 286 286 285 288 286 285 285 284 285 285 283 285 286 285 282 281 281 282 283 283 285 285 285
291 291 291 291 289 290 288 288 289 289 289 289 289 289 289 289 289 288 288 288 288 287 286 286 285 286 286 286 287 285 284 285 284 285 284 284 284 283 283 284 286 285 285 281 282 282 280 279 280 283 283 283
291 291 290 288 289 289 288 287 288 288 288 288 288 288 289 288 288 288 287 287 287 287 286 286 285 285 285 286 286 285 284 284 284 284 284 284 284 284 282 281 281 285 284 283 281 277 279 279 279 277 278 281
290 290 288 288 288 288 287 287 286 286 285 287 288 288 287 288 288 288 287 287 287 287 286 286 285 285 285 285 285 285 284 283 284 284 284 284 283 283 282 281 281 283 284 283 284 282 279 277 276 276 279 281
290 290 289 287 286 285 285 285 285 285 286 286 287 287 288 287 288 288 287 287 287 286 286 285 285 285 284 284 284 284 283 283 283 283 283 283 283 282 283 282 281 280 282 284 284 283 282 282 277 278 280 279
290 289 289 288 287 287 287 286 286 287 287 287 287 287 287 287 287 287 287 286 286 286 286 285 284 284 284 284 283 284 283 282 282 283 282 283 283 282 285 282 280 280 280 281 282 283 283 282 283 282 279 276

ECMWFFLT2_sfc_thetae_006.txt.gz
Theta_e
327 326 326 326 325 325 325 325 325 325 325 325 324 324 323 320 318 317 317 318 319 320 319 319 318 319 320 320 320 320 320 321 320 320 320 319 318 317 317 317 317 317 316 316 315 315 314 313 312 311 309 301
325 325 325 324 324 323 323 323 324 324 323 323 322 321 319 318 316 316 315 315 316 318 318 318 317 318 319 319 319 319 319 320 319 319 318 317 316 315 315 315 315 315 315 314 314 312 312 311 310 309 307 299
319 323 324 323 322 322 322 322 322 322 320 319 318 317 316 316 315 314 314 313 313 314 314 314 314 315 317 318 317 317 318 317 317 317 316 316 314 313 313 313 313 313 313 312 312 311 311 310 308 306 303 299
311 319 320 321 321 320 320 320 320 319 316 316 315 314 313 312 309 309 308 309 308 310 312 312 312 312 314 315 315 315 316 316 315 315 314 313 313 311 310 310 310 310 310 310 310 310 310 308 305 299 298 298
307 312 317 317 318 318 318 317 317 316 315 313 312 309 307 305 299 299 299 300 301 306 303 308 312 310 312 312 312 313 313 314 314 313 312 311 311 309 308 307 306 306 308 308 309 308 307 305 298 298 298 298
306 308 311 307 308 308 311 313 313 308 303 307 302 307 302 298 299 297 297 300 306 302 303 303 310 309 309 309 309 310 311 311 312 312 311 310 308 307 306 303 296 297 302 304 305 305 304 297 297 297 298 297
305 305 303 302 303 304 307 306 303 300 302 298 298 300 299 299 297 295 297 298 301 303 309 306 308 306 306 306 305 306 308 308 309 310 309 307 306 305 302 295 293 293 294 294 300 300 296 295 296 296 297 296
302 301 300 300 300 301 300 301 300 298 298 297 296 298 298 297 295 296 297 307 308 304 298 301 307 305 305 305 304 302 299 302 304 304 305 305 303 300 297 293 292 293 292 293 293 294 294 294 295 295 296 295
300 298 297 297 297 298 297 298 297 297 296 295 295 296 297 296 296 296 296 296 295 293 294 292 292 293 293 292 292 300 290 291 293 293 292 292 295 292 293 292 292 293 293 293 293 293 293 294 294 294 295 294
298 297 295 295 295 296 296 297 296 297 296 295 295 295 296 297 295 294 294 293 293 293 293 292 291 291 291 290 290 294 290 290 290 290 290 291 292 292 292 292 292 292 294 292 292 292 293 293 293 293 293 293
296 295 294 294 295 295 295 295 296 295 295 295 294 295 297 295 294 293 293 293 292 292 292 292 291 290 290 289 289 292 289 289 290 290 290 290 291 291 291 291 291 291 292 291 292 292 292 292 292 292 292 292
295 295 295 294 297 296 297 297 296 295 295 295 294 295 296 295 293 293 293 292 292 292 292 291 291 291 289 289 289 291 290 289 289 289 290 290 290 291 291 290 290 291 291 291 291 291 291 291 291 291 291 291
296 296 295 295 296 295 299 296 296 295 295 294 294 294 295 294 293 292 292 292 292 291 291 291 290 289 289 289 288 289 289 289 289 289 289 290 289 289 290 289 290 290 290 290 291 290 290 290 290 290 290 290
296 296 295 295 296 296 299 295 295 294 294 293 293 292 294 294 293 292 292 292 291 291 290 290 290 290 289 288 288 288 288 289 289 288 288 288 289 289 288 289 290 289 289 289 289 289 289 289 289 290 290 290
295 296 296 295 296 296 297 295 295 294 293 292 292 292 293 293 293 292 292 292 291 290 290 289 289 288 288 287 288 288 288 289 289 288 288 289 288 288 288 288 288 289 289 288 288 288 288 289 289 289 289 290
295 296 296 296 296 296 296 295 294 293 292 293 292 292 292 292 292 293 291 291 290 290 289 289 289 288 288 287 287 288 287 288 288 288 288 289 288 288 288 288 288 289 287 287 287 288 288 288 288 289 289 289
295 296 296 296 296 296 296 295 294 293 292 292 292 291 292 292 292 292 291 291 291 292 289 289 289 288 288 288 288 288 288 288 287 287 287 288 288 288 287 288 287 289 287 286 287 287 288 288 288 288 288 288
294 295 295 295 295 295 295 294 293 293 292 292 292 291 291 291 292 291 291 291 290 290 289 289 288 288 287 287 287 288 287 286 286 286 287 287 286 290 287 287 287 286 286 286 286 286 287 287 287 287 287 288
294 295 295 295 294 294 294 293 293 292 291 291 291 291 290 291 292 291 291 290 290 289 289 288 288 287 287 287 287 286 287 286 286 286 287 287 286 285 286 286 287 286 286 286 286 286 287 287 287 287 287 288
295 295 294 294 295 294 293 293 292 292 292 291 291 290 290 291 291 291 290 290 289 289 288 288 287 287 287 287 287 286 287 286 286 286 286 286 286 285 285 286 284 285 285 285 286 286 286 287 288 287 287 287
294 294 294 293 294 294 293 292 291 291 291 291 290 290 290 290 291 290 290 289 289 289 288 287 287 287 287 287 286 285 285 285 287 286 287 286 287 285 284 284 284 284 285 285 286 286 286 287 287 287 287 286
294 294 293 293 293 293 292 291 291 291 291 290 290 289 289 290 291 290 289 289 288 288 287 287 287 286 286 286 286 285 285 284 285 285 285 285 285 285 284 284 284 284 285 286 286 286 286 286 286 286 286 286
293 293 292 291 291 291 291 290 290 290 290 290 290 289 289 290 290 290 289 289 288 287 287 286 286 286 286 286 285 285 285 284 286 285 284 284 284 285 284 284 284 284 285 285 285 285 285 285 286 286 286 287
292 291 291 290 289 289 290 289 290 290 290 290 289 290 289 289 289 289 289 288 288 287 287 286 286 286 286 286 285 285 284 283 284 284 284 284 283 283 285 285 285 284 284 284 283 285 285 285 285 285 286 285
291 290 290 290 290 291 290 290 289 289 289 289 289 289 289 289 289 288 288 288 287 287 288 286 285 286 285 285 285 285 285 284 284 284 284 285 286 283 283 283 283 284 284 282 281 283 282 283 284 286 286 285
292 292 292 292 291 291 290 290 289 289 289 289 290 289 289 289 288 288 288 288 287 287 287 286 286 286 285 285 285 285 284 284 286 285 284 283 282 283 283 282 284 285 282 280 279 279 280 280 283 284 285 284
292 292 292 292 291 291 289 289 290 289 289 289 289 289 289 289 288 288 287 287 287 287 286 286 286 285 285 285 286 285 284 284 284 283 283 283 282 281 282 283 284 283 283 280 280 280 279 276 279 282 281 282
292 292 291 289 290 289 289 288 289 288 287 288 288 288 288 288 288 288 287 287 287 287 286 285 285 285 285 285 285 285 284 283 283 283 282 283 283 282 280 280 281 283 282 281 279 276 278 277 278 275 276 280
291 290 288 288 288 288 286 287 286 286 285 287 288 288 287 288 288 288 287 287 287 287 286 285 285 285 285 284 285 284 283 283 283 283 283 283 283 281 280 280 280 281 282 282 283 279 278 276 276 275 277 279
291 290 289 287 287 286 286 286 285 286 287 286 287 288 288 287 288 288 287 287 286 286 286 285 284 284 284 284 284 284 283 283 282 282 282 282 282 281 281 280 280 279 281 282 283 281 280 279 276 277 278 277
291 290 289 289 289 289 288 287 287 288 288 288 288 288 287 287 287 287 287 286 286 285 285 285 284 284 284 284 284 284 283 282 282 282 282 282 281 281 284 281 279 280 279 279 280 282 281 281 282 280 278 275

ECMWFFLT2_sfc_thetae_009.txt.gz
Theta_e
332 332 333 332 332 332 332 331 331 330 330 329 329 328 328 327 326 325 324 324 323 323 323 322 322 322 323 323 323 323 323 323 323 321 320 319 318 318 319 319 318 318 317 315 314 313 312 311 310 308 305 298
329 331 332 331 330 330 330 330 329 329 328 328 327 327 325 324 323 323 323 323 322 322 321 321 321 322 322 321 322 322 321 321 320 319 318 317 317 317 317 317 317 316 315 314 313 311 310 310 308 307 304 297
323 326 328 329 329 328 328 328 327 327 327 326 325 324 321 320 320 320 320 321 321 320 319 319 320 320 320 320 320 320 320 319 319 318 316 316 315 314 314 315 315 314 313 311 311 310 309 307 305 304 301 296
315 322 323 325 326 326 326 326 326 326 325 324 322 321 319 316 312 312 312 316 315 316 316 316 316 318 319 320 320 319 319 318 317 316 315 314 313 312 311 310 311 311 311 310 309 309 307 305 302 297 296 295
313 317 320 321 321 323 324 325 324 324 321 317 316 314 311 308 302 301 303 304 304 310 306 313 315 316 317 318 317 317 317 317 316 315 314 313 311 310 308 306 305 306 308 308 307 306 304 302 295 295 295 295
310 313 317 312 312 312 318 319 319 314 308 311 305 309 304 298 300 297 296 299 306 302 306 308 313 313 315 315 315 315 316 315 314 313 312 311 309 308 306 303 294 295 301 303 304 303 301 295 294 294 294 294
308 309 309 307 308 309 313 311 308 305 306 300 299 298 296 298 296 295 297 298 301 302 308 307 310 310 311 311 311 312 313 313 313 311 309 308 307 305 302 293 292 292 292 292 299 298 294 292 293 293 294 293
306 306 305 305 305 305 305 304 303 301 300 298 297 296 296 295 295 296 296 306 308 308 302 305 309 309 308 306 305 304 301 306 307 307 307 305 303 301 296 291 291 292 291 291 291 292 291 291 292 292 293 292
304 304 303 302 301 301 300 300 299 298 297 297 297 296 296 294 295 295 297 296 295 293 293 291 292 292 291 292 294 298 290 291 294 293 290 292 294 290 292 291 290 291 291 291 291 291 291 291 291 291 292 290
304 303 301 300 300 299 298 298 296 297 296 296 296 295 295 296 295 295 294 292 291 291 291 290 290 290 290 290 291 293 289 289 290 289 290 290 291 290 290 290 290 292 292 290 290 290 290 291 290 290 289 289
302 300 300 299 298 297 296 296 296 296 295 295 295 295 296 295 293 293 291 291 291 291 290 290 289 289 289 289 289 291 289 289 289 289 289 289 289 289 289 289 289 290 289 289 289 289 289 289 289 289 289 289
300 299 297 297 299 297 297 296 295 295 295 295 294 295 295 295 293 292 291 291 290 290 290 290 290 289 289 289 289 290 289 289 288 288 288 288 288 289 288 289 289 289 289 288 288 288 288 288 288 288 288 289
298 297 296 296 296 295 298 295 295 295 295 294 294 295 295 294 292 291 291 290 291 290 290 289 289 288 288 289 288 289 288 289 288 288 288 288 288 287 287 288 289 288 288 288 288 288 287 287 287 288 288 288
296 296 295 294 295 295 297 295 295 294 295 294 293 294 294 294 293 292 291 291 289 290 289 289 289 289 288 287 288 288 288 288 288 287 287 287 287 287 287 288 290 288 287 287 287 288 287 287 287 287 287 287
295 295 294 294 294 294 295 295 295 294 294 293 293 294 294 293 293 292 291 290 290 289 289 288 288 288 287 286 287 288 288 288 288 287 287 288 287 287 287 287 288 287 287 286 287 287 287 287 287 287 288 287
293 293 293 293 293 293 295 295 294 294 293 294 292 293 293 293 292 293 291 290 290 289 289 288 288 287 287 286 287 288 287 288 288 287 287 287 287 287 287 287 287 288 286 286 286 286 286 287 287 286 287 287
293 293 293 293 293 293 295 295 294 293 293 293 292 292 293 292 292 293 291 290 290 291 288 288 287 286 287 287 287 287 287 287 287 287 287 288 287 286 287 287 287 287 286 285 286 286 286 286 286 287 286 287
293 293 294 294 293 294 295 294 294 293 292 293 292 292 292 292 292 292 291 290 289 289 288 288 287 287 286 286 286 287 287 286 286 286 286 286 288 291 287 286 285 285 285 285 285 285 286 285 286 286 286 286
294 294 294 294 293 293 294 294 294 293 292 292 291 291 291 292 292 291 291 290 290 288 288 288 287 286 285 286 286 286 286 286 286 286 286 285 285 285 285 285 286 284 284 284 285 285 287 285 286 286 286 286
295 294 294 294 295 293 294 294 293 292 291 291 291 291 291 291 291 291 290 290 289 288 288 287 287 286 286 286 286 286 285 286 285 286 286 286 285 284 284 284 283 284 284 284 285 285 286 285 287 286 285 286
295 294 294 294 294 294 294 293 293 292 291 290 291 290 290 291 291 290 290 290 289 288 288 287 287 285 286 286 285 285 285 285 286 286 287 285 286 283 283 283 283 283 284 285 285 285 284 285 286 285 285 285
294 294 293 293 293 294 293 293 292 291 291 290 290 290 290 290 291 290 290 289 289 288 288 287 286 285 286 286 285 284 284 285 285 285 285 284 284 283 283 283 283 283 284 285 285 285 284 284 284 284 284 286
293 292 292 291 291 291 291 291 290 290 290 290 290 290 289 290 290 290 289 289 288 288 288 286 286 285 285 285 284 284 284 284 285 285 283 284 283 284 284 283 283 284 284 284 284 284 284 284 283 284 285 286
292 291 291 290 289 289 290 290 290 290 291 290 290 290 289 290 290 290 289 288 288 287 287 286 286 285 285 285 284 284 284 284 284 284 283 283 284 284 285 284 283 283 283 283 282 284 283 283 283 283 286 284
291 291 290 290 290 291 291 290 290 290 290 290 290 289 289 289 290 289 288 288 287 287 288 286 285 285 284 285 285 284 284 284 284 284 283 285 285 283 282 282 282 283 282 280 280 280 281 282 283 285 285 283
292 292 292 292 291 292 292 291 290 290 289 290 290 289 289 289 289 288 288 288 287 287 287 286 285 285 285 285 284 284 283 283 286 284 284 284 282 282 282 281 282 283 280 279 278 279 279 280 282 284 282 283
292 293 293 292 292 292 291 291 291 290 290 290 289 289 288 289 288 288 287 287 287 287 286 286 285 285 285 284 285 284 283 284 283 283 283 282 283 281 282 283 283 282 280 278 279 279 278 277 278 282 280 281
293 293 291 289 290 289 288 288 289 288 288 288 288 288 288 288 288 288 288 287 287 287 286 285 285 285 284 284 285 284 284 283 283 282 282 282 283 283 281 279 281 282 281 280 278 276 278 276 278 277 277 278
292 291 289 288 288 288 287 287 286 286 285 287 288 288 287 288 288 288 288 287 287 287 286 285 285 284 284 284 284 284 283 283 283 283 283 283 283 281 281 279 279 281 281 281 281 278 277 276 276 276 276 278
292 291 290 288 288 287 287 285 286 286 287 286 287 288 288 287 288 288 287 287 287 286 286 285 285 284 284 283 284 284 283 283 282 282 282 283 283 281 280 281 280 279 281 282 282 279 278 278 276 276 277 277
292 291 290 290 290 290 289 288 288 289 290 289 288 288 287 287 287 287 287 286 286 286 286 285 284 284 284 284 283 284 282 282 282 283 282 282 282 281 282 281 279 280 279 279 280 280 280 282 280 279 277 275

ECMWFFLT2_sfc_thetae_012.txt.gz
Theta_e
334 335 336 338 337 337 336 335 334 333 332 331 331 331 331 330 329 328 328 327 326 326 325 326 326 325 325 325 325 325 326 325 324 323 323 322 322 321 321 320 319 318 316 315 313 312 312 310 309 306 302 296
331 333 335 335 335 335 335 335 333 332 331 330 330 330 329 329 328 327 326 325 325 325 325 325 325 325 325 326 326 326 325 323 322 321 321 320 320 320 319 318 317 315 314 313 311 310 309 308 307 305 302 295
326 328 331 333 333 333 333 333 333 332 330 330 330 329 329 327 326 325 325 325 324 324 323 323 324 324 325 325 325 323 323 322 321 319 319 318 317 317 317 317 316 314 313 311 310 309 307 305 303 301 298 294
318 325 325 328 330 330 331 331 331 330 329 327 326 326 325 322 318 318 316 319 318 322 322 323 319 323 323 324 323 322 322 321 319 318 317 316 314 313 313 314 313 312 311 310 309 307 305 302 299 294 293 293
315 319 323 324 325 326 328 328 328 328 325 321 319 318 314 311 306 306 308 307 306 313 307 317 319 322 322 322 321 321 320 320 318 317 316 314 313 311 309 308 308 309 309 308 308 305 302 299 293 293 292 292
312 315 321 318 319 318 322 322 322 321 316 315 309 312 307 303 304 302 301 303 310 304 307 310 316 319 321 321 320 319 319 318 317 316 315 313 312 310 307 303 292 295 302 304 304 302 299 292 291 292 291 291
311 313 313 312 314 315 317 316 315 311 310 306 306 303 301 301 299 298 300 300 303 303 310 308 314 318 318 318 318 318 317 316 315 314 313 311 309 307 303 293 291 291 290 291 298 296 292 290 290 291 290 291
310 310 311 311 311 312 312 311 309 306 304 303 302 300 298 296 296 297 298 307 308 308 302 307 312 314 314 314 313 313 310 314 313 312 310 307 304 299 294 290 290 290 290 290 290 290 290 289 289 290 290 289
309 309 309 308 308 309 308 306 305 304 302 300 298 297 296 295 296 296 298 299 299 296 296 294 294 294 294 294 295 299 291 292 294 292 290 292 293 290 291 290 290 290 289 291 290 290 289 289 289 289 289 288
309 308 308 307 307 306 304 304 303 301 299 297 296 295 295 296 295 296 297 296 294 293 292 291 289 289 289 290 291 292 289 289 289 289 290 290 290 289 290 290 290 290 291 289 288 289 289 288 288 288 287 287
307 306 307 306 304 305 303 301 301 299 297 296 295 294 295 295 294 295 294 293 292 291 290 290 288 288 288 288 289 290 289 289 289 289 289 289 289 288 289 289 288 288 288 288 288 288 288 288 288 287 287 287
305 305 304 304 304 304 303 300 300 299 297 295 294 294 294 295 294 294 292 292 291 290 289 289 288 287 287 288 288 289 289 289 288 288 288 289 288 288 288 288 287 288 287 287 287 287 287 287 287 287 287 287
305 303 303 302 302 301 303 299 299 298 296 295 294 294 294 294 293 292 292 291 290 289 289 288 288 287 287 288 288 289 288 289 288 288 288 288 287 286 287 287 287 287 287 286 286 287 287 287 286 287 287 287
304 303 302 301 301 301 301 298 297 295 295 295 294 293 293 294 293 292 292 291 289 289 288 288 287 288 287 287 288 287 288 288 287 287 287 287 287 287 286 287 289 287 286 286 286 286 286 286 286 286 286 286
304 302 302 301 300 299 299 297 295 295 295 294 293 294 293 293 293 292 291 291 289 288 288 288 288 287 286 286 287 287 287 287 287 287 287 287 286 286 286 287 287 286 286 285 286 287 286 286 286 286 286 286
303 302 301 300 299 298 297 296 294 294 294 294 293 294 293 293 292 293 290 290 289 289 288 287 286 286 286 286 286 287 287 287 287 287 286 286 286 286 286 286 286 286 285 285 285 285 286 285 286 286 286 286
303 302 300 299 298 297 296 295 294 293 293 293 293 293 293 292 292 292 291 290 290 291 288 287 286 286 286 286 287 286 286 287 286 286 287 287 286 286 285 285 285 286 285 285 285 285 286 285 285 285 286 286
301 300 299 298 297 296 295 294 294 294 293 294 292 292 293 292 292 292 291 290 289 289 288 287 286 286 285 285 286 286 286 286 286 286 286 286 287 289 285 284 284 284 285 284 284 285 285 284 285 285 285 285
300 299 297 296 295 294 294 294 294 293 293 293 292 292 293 292 292 291 291 290 290 288 288 287 286 285 285 286 286 285 285 285 284 285 286 285 284 283 284 284 286 284 284 284 285 285 285 285 286 284 285 285
299 298 296 295 295 293 293 294 293 293 293 293 291 292 292 292 292 291 290 290 290 289 288 288 287 285 285 285 286 285 285 285 285 285 285 285 284 283 283 284 283 283 284 284 284 284 284 284 287 284 284 285
297 296 294 293 293 292 292 293 293 292 292 291 291 291 291 291 292 291 290 290 289 289 288 287 287 285 285 286 285 284 284 284 285 285 286 284 286 283 283 283 283 283 284 284 284 283 283 284 285 284 284 285
297 295 293 292 292 292 291 292 292 292 291 291 291 290 291 291 291 291 290 289 289 289 288 287 287 285 285 285 284 284 284 284 284 284 284 283 283 283 283 282 283 283 283 284 284 284 283 283 283 284 284 286
295 293 291 290 291 291 291 291 291 291 290 290 290 291 291 291 291 291 290 289 289 288 288 287 286 285 285 285 284 284 284 284 284 284 282 283 283 283 283 283 282 282 283 283 283 284 283 282 282 283 286 284
294 292 291 290 289 289 290 291 291 290 291 290 291 291 291 291 291 291 290 289 289 288 288 287 286 285 285 284 284 284 283 283 284 284 283 283 284 284 283 283 282 282 283 282 281 284 282 282 283 284 284 283
293 291 290 290 290 291 291 291 291 291 291 291 291 291 291 290 291 290 290 289 288 288 288 287 286 285 284 284 284 284 284 284 284 283 283 284 284 282 281 281 281 282 280 280 280 280 281 282 283 286 283 282
294 293 293 292 291 292 291 291 290 290 291 291 291 290 290 290 290 289 289 289 288 288 288 286 286 285 285 284 284 284 283 283 285 284 283 284 281 281 280 280 281 281 280 280 278 279 280 280 281 284 281 282
294 294 293 293 291 292 290 290 291 290 290 290 290 289 289 289 289 289 288 288 288 288 287 287 286 285 285 284 284 284 283 283 283 283 283 283 283 281 281 281 282 280 278 279 278 279 278 278 278 283 280 280
294 293 291 290 290 290 289 289 289 288 288 288 288 287 288 289 289 289 288 288 288 288 287 287 286 286 285 284 284 284 283 283 283 283 283 282 282 283 281 279 281 282 280 279 280 279 278 276 278 279 279 277
293 291 289 288 288 288 287 287 287 286 285 288 288 288 286 288 288 288 288 288 288 288 287 287 286 285 285 284 284 284 283 283 284 283 283 283 282 282 282 280 279 281 281 280 281 280 277 276 279 278 277 277
292 292 290 289 288 287 288 286 286 287 288 286 287 288 288 288 289 289 289 288 288 288 287 286 286 286 285 284 284 284 284 284 283 282 282 283 283 281 280 281 280 279 281 281 281 279 277 278 278 277 276 276
292 291 291 290 290 290 290 289 289 290 290 289 290 290 288 288 288 288 288 287 287 287 287 287 286 285 285 284 284 284 283 283 283 283 283 283 281 281 282 281 279 280 279 279 279 279 279 281 279 278 277 275

ECMWFFLT2_sfc_thetae_015.txt.gz
Theta_e
336 338 341 342 342 340 341 340 340 339 339 337 335 334 334 334 334 333 330 329 329 329 329 328 327 327 327 328 328 328 328 328 328 327 326 325 324 323 322 321 319 318 316 316 314 313 312 310 308 305 303 304
332 335 337 338 338 338 338 338 338 338 338 336 335 334 334 333 332 331 329 328 328 328 328 327 327 327 327 328 328 328 327 327 326 325 325 324 323 322 321 320 318 317 315 313 312 312 310 309 307 304 302 303
333 329 332 334 335 336 336 337 336 336 335 333 333 333 331 329 327 326 327 328 328 327 328 328 327 326 327 327 328 327 326 325 324 324 324 323 322 321 319 318 317 315 314 312 311 310 307 304 302 301 301 301
330 328 326 330 332 332 334 334 334 333 331 328 328 328 326 323 324 322 325 321 325 325 327 326 325 327 327 328 327 326 325 324 323 323 323 322 321 320 318 317 315 313 312 311 309 307 304 301 300 300 300 301
327 328 324 326 326 327 329 330 330 331 326 322 321 322 319 318 324 324 324 324 325 319 325 319 320 326 327 327 325 324 323 323 322 321 320 320 319 318 316 314 313 311 311 309 307 304 300 298 299 298 299 299
324 325 326 330 331 331 329 326 324 327 329 320 327 318 320 320 318 318 317 318 317 320 321 320 318 323 326 325 324 323 322 321 321 319 318 316 314 311 308 303 301 303 305 305 304 300 298 298 298 298 298 298
322 323 326 327 327 326 323 325 325 326 323 323 321 319 316 314 315 314 314 315 315 316 314 319 317 321 323 323 323 321 321 320 319 318 317 314 311 308 303 300 300 299 299 299 298 297 298 297 297 297 297 297
321 322 323 324 324 324 324 324 323 322 320 318 316 313 312 311 311 312 311 311 310 312 316 318 316 319 320 321 320 319 319 318 317 316 314 311 307 302 299 299 298 298 298 298 298 298 297 296 296 297 296 296
319 320 320 321 322 322 321 320 319 318 316 314 312 310 309 308 309 309 309 311 312 312 312 313 313 312 312 311 310 307 306 305 303 302 301 300 299 299 299 299 298 298 298 297 297 296 296 296 296 296 296 296
318 317 318 318 319 319 318 317 316 314 313 311 309 308 306 305 306 306 307 308 308 307 308 308 307 305 304 305 303 301 300 298 298 298 298 298 298 297 298 297 298 298 297 296 296 295 296 295 295 295 295 295
317 317 318 318 316 317 315 315 314 312 311 310 307 306 304 304 304 305 305 305 304 304 304 304 302 301 301 301 299 298 297 297 297 297 297 297 297 296 297 296 296 296 295 296 295 295 295 295 295 295 295 295
316 318 316 316 314 315 314 312 312 311 309 307 305 304 303 304 303 303 303 303 302 302 300 301 299 298 298 298 297 296 297 297 296 296 296 297 296 296 296 295 295 295 294 294 295 295 295 295 294 294 294 294
317 317 316 315 314 313 312 312 312 310 307 305 303 302 302 302 301 302 302 301 301 298 299 297 296 296 296 296 296 296 295 297 296 296 296 296 295 296 295 295 295 294 294 294 294 294 294 294 294 294 294 294
316 316 314 315 315 316 311 311 310 308 305 304 302 301 301 301 301 301 301 300 298 297 297 296 295 295 295 295 295 295 296 295 296 295 295 295 295 295 295 295 294 294 294 294 294 293 294 293 293 294 294 294
314 315 314 314 315 314 311 309 307 306 305 303 301 301 300 300 300 300 300 299 297 297 296 295 295 294 294 294 295 295 295 295 295 295 295 295 294 294 294 294 294 293 293 293 293 293 293 293 293 293 294 294
314 313 313 313 314 312 312 308 306 305 304 302 300 300 299 299 299 299 298 298 297 296 295 294 294 294 294 294 294 295 295 294 294 294 294 293 293 294 294 293 292 292 293 292 292 293 293 293 293 293 294 294
313 313 312 312 310 310 310 306 305 304 303 302 300 299 299 298 298 298 297 297 297 296 295 294 294 293 294 294 294 294 294 294 294 294 294 293 293 293 292 292 292 292 292 292 292 292 292 293 293 293 294 293
312 312 312 311 310 309 307 305 304 304 303 302 300 299 298 298 298 297 297 297 296 296 294 294 294 293 293 293 294 294 294 294 294 293 293 293 292 292 292 292 292 291 292 291 291 292 292 293 292 293 293 293
311 312 310 309 308 307 306 305 304 303 302 301 300 298 298 297 297 297 296 297 296 295 294 293 293 292 292 292 293 293 293 293 293 293 293 292 292 292 291 292 292 292 292 292 291 291 292 292 292 293 292 293
311 310 309 308 306 306 305 304 303 302 301 300 299 298 298 297 297 297 296 296 296 294 294 293 292 292 291 292 293 293 292 293 292 292 292 292 292 290 291 291 291 292 292 291 291 291 291 292 292 292 292 292
309 309 308 306 305 304 303 303 302 301 300 299 298 297 298 297 297 297 296 296 295 295 294 293 292 291 291 292 292 292 292 292 292 292 292 291 290 291 292 292 292 291 291 290 290 290 291 291 292 292 292 291
308 307 306 304 303 302 300 301 301 300 298 297 297 297 297 297 296 296 296 295 295 295 294 293 292 291 291 292 291 291 291 291 291 292 292 291 290 289 291 291 291 290 290 290 290 289 290 290 291 291 292 292
306 305 303 301 300 299 298 299 299 298 297 297 297 296 297 297 296 296 296 295 295 294 293 293 292 290 291 291 291 291 291 290 290 291 290 291 289 289 289 291 291 290 290 289 289 289 289 290 290 291 291 291
303 301 299 296 295 296 296 297 296 296 296 296 296 296 296 296 297 297 295 295 295 295 293 292 291 290 290 291 291 290 290 290 290 290 289 289 290 290 289 289 290 290 289 288 289 288 289 290 290 290 290 290
301 298 298 297 295 295 296 295 296 295 296 296 295 296 296 296 296 296 295 295 294 294 293 292 291 290 290 290 291 291 291 291 290 291 290 289 290 290 289 289 288 289 290 289 287 288 288 288 290 290 289 288
301 300 299 297 296 296 297 295 294 294 294 295 295 295 295 296 296 296 295 294 294 294 293 292 291 290 289 290 290 290 291 290 290 290 289 289 288 289 289 289 289 288 290 289 288 286 286 287 288 290 289 289
299 300 300 299 298 297 296 296 296 296 295 295 294 294 295 295 295 295 295 295 294 293 293 292 291 290 290 290 290 289 289 289 289 289 288 289 289 287 289 289 288 288 289 291 289 290 287 285 285 287 288 288
299 299 299 298 296 297 296 294 294 295 294 294 294 293 294 294 294 294 294 294 294 293 293 292 291 291 290 289 290 290 289 288 289 288 288 288 289 290 287 288 287 289 286 287 289 287 288 286 287 285 285 287
298 297 295 294 293 294 293 293 293 293 292 292 293 293 292 293 294 294 294 293 293 293 293 292 292 291 290 289 289 290 289 288 289 289 288 289 288 289 290 287 288 287 287 287 286 290 284 284 285 288 288 286
296 296 294 292 292 291 291 291 290 290 291 290 291 291 292 293 293 293 293 293 293 293 293 292 292 291 290 290 289 289 289 289 289 289 288 288 289 289 290 289 287 286 287 286 287 287 288 292 295 288 285 286
296 295 295 294 294 294 292 292 292 294 294 293 293 294 292 292 292 293 293 293 293 293 293 292 292 291 291 290 289 289 288 288 288 289 288 289 288 289 289 289 288 288 286 286 286 286 287 286 285 290 287 285

ECMWFFLT2_sfc_thetae_021.txt.gz
Theta_e
342 343 346 347 348 347 348 348 348 348 348 347 347 346 345 345 343 341 340 338 336 334 333 332 331 330 330 330 330 330 330 330 330 329 329 327 325 324 324 322 321 319 318 316 314 313 312 313 313 314 315 318
338 341 343 344 345 345 345 346 347 346 346 345 344 343 342 339 339 340 340 338 336 334 333 332 331 330 330 330 330 330 330 330 330 329 328 326 325 324 323 321 320 318 317 314 312 311 311 310 310 313 313 316
343 334 339 341 342 342 343 344 343 343 342 341 341 340 338 334 333 333 334 334 334 334 333 332 332 330 330 330 329 329 329 329 329 328 327 326 325 323 321 320 318 316 314 313 310 310 308 307 310 308 311 313
344 335 330 336 338 338 339 339 340 340 338 335 334 334 329 325 328 326 329 324 330 328 331 329 328 330 330 330 329 329 329 329 328 328 326 325 324 322 321 319 317 314 312 310 309 308 306 308 305 311 308 311
342 342 329 330 330 332 335 335 335 336 330 326 323 325 320 321 332 332 331 330 331 322 329 323 322 328 328 329 329 328 328 328 328 327 326 324 323 321 319 316 314 312 311 309 308 307 307 307 311 308 309 310
339 341 335 342 341 339 336 330 328 334 339 328 337 322 326 332 331 331 331 330 327 328 328 325 320 324 329 328 330 329 327 327 327 327 325 324 322 320 316 312 309 307 307 308 306 306 307 311 307 308 307 308
338 338 340 341 340 340 332 336 337 339 338 338 336 333 332 331 332 332 332 331 329 329 322 326 319 323 326 329 328 328 326 326 327 326 325 323 321 317 313 312 313 307 305 302 304 306 310 306 306 307 307 307
337 337 338 339 339 337 338 337 338 338 335 335 335 334 332 331 332 332 332 323 319 323 327 324 318 321 324 325 323 324 325 325 325 325 323 320 317 311 311 309 307 308 307 306 308 309 305 306 306 307 306 306
336 336 336 336 336 336 335 335 335 335 335 334 334 334 333 332 332 332 331 329 327 327 326 326 324 325 326 326 325 320 323 322 322 320 317 314 310 307 308 308 308 308 307 306 306 306 304 305 306 306 306 305
336 335 334 334 335 335 335 335 334 333 334 334 334 333 332 331 331 330 330 328 327 326 326 324 323 323 324 324 324 322 321 320 320 317 314 310 306 305 307 307 307 307 305 306 304 304 306 305 305 306 304 305
336 335 335 335 334 334 334 335 334 333 334 334 333 334 333 331 329 328 328 326 326 325 323 323 322 322 323 323 323 322 320 319 318 316 311 306 305 306 306 307 308 307 306 306 305 304 305 305 304 305 304 305
334 335 334 334 334 334 333 334 333 333 333 334 332 333 331 329 330 328 327 326 325 324 323 322 322 322 322 323 323 321 321 320 317 312 307 306 306 306 306 305 305 304 304 305 305 304 305 305 304 304 303 303
333 334 333 333 333 333 330 334 334 333 333 332 332 332 332 330 329 328 328 325 325 324 322 322 322 322 322 324 323 320 319 317 313 308 305 305 305 305 304 304 304 303 303 304 304 303 303 304 304 303 304 304
332 333 332 332 332 333 332 332 333 334 331 331 331 330 331 329 329 328 327 325 324 323 321 321 322 321 322 321 320 318 316 314 310 306 305 305 304 303 303 302 303 302 303 302 303 303 304 303 302 304 303 304
332 332 332 332 332 333 332 332 332 332 332 331 330 328 329 329 329 328 327 325 323 322 320 319 319 319 319 319 317 315 313 311 308 305 304 304 303 303 302 302 301 301 302 302 302 302 303 302 303 302 303 303
330 330 330 331 331 331 332 332 331 332 332 330 330 329 329 328 328 327 327 325 322 321 319 318 318 317 317 316 315 313 312 308 306 305 305 307 305 305 303 302 301 302 300 300 300 302 302 302 302 301 303 302
329 330 330 330 330 331 332 332 331 330 330 330 329 329 327 327 328 327 326 324 322 319 318 317 316 315 315 315 314 312 311 308 306 305 305 305 305 303 303 301 301 303 301 300 300 300 300 301 302 302 302 302
328 328 329 330 330 331 331 331 330 329 330 329 328 327 326 326 327 325 325 324 321 318 317 316 315 314 313 313 313 311 308 305 304 304 304 303 302 302 301 300 300 299 299 299 299 300 300 301 301 301 301 301
328 328 328 328 329 330 330 330 329 329 329 328 328 326 324 325 325 324 324 323 319 317 316 314 313 313 312 312 311 308 307 305 303 302 302 301 299 300 300 300 298 298 299 298 298 299 299 300 301 301 301 302
327 327 327 328 324 329 330 328 329 328 328 328 327 325 323 324 324 322 323 321 319 316 315 313 312 311 311 311 308 307 306 305 301 301 302 300 300 298 299 298 297 298 298 298 298 299 299 299 299 299 300 300
326 327 326 326 327 327 328 327 327 327 328 327 326 325 323 323 322 320 321 319 318 316 314 312 311 310 310 309 307 306 304 303 302 301 302 299 301 300 299 299 298 298 298 299 299 299 299 300 299 299 299 299
325 325 325 325 325 325 325 326 326 326 326 325 325 324 322 322 321 319 320 318 316 316 314 312 310 309 308 307 306 304 303 302 301 302 301 299 301 300 299 298 297 297 298 299 298 298 298 298 298 299 299 298
324 324 324 324 324 323 323 324 324 325 324 324 323 323 322 321 319 317 319 316 315 314 312 311 309 307 307 306 304 303 302 301 301 302 301 300 299 300 300 299 298 298 298 298 298 298 297 298 298 299 298 297
321 321 320 320 321 321 320 321 320 322 321 321 321 321 320 319 318 317 317 315 314 314 311 309 308 306 306 304 303 302 301 300 299 300 300 300 300 299 299 300 298 299 298 297 297 296 296 297 297 297 296 297
318 318 318 318 318 317 319 318 319 319 320 320 319 319 318 317 316 316 315 314 313 312 310 309 308 306 305 303 302 302 301 301 301 301 300 300 300 299 298 298 299 299 298 295 293 294 295 294 295 295 296 295
317 317 317 317 317 317 317 317 316 316 317 318 318 317 316 315 314 314 312 312 312 311 311 308 306 305 304 302 301 301 302 302 300 301 301 300 297 300 298 297 298 298 296 293 292 291 291 292 293 294 294 294
314 316 317 316 316 316 316 317 317 316 316 316 315 314 313 313 313 312 311 310 310 309 309 308 306 304 303 302 301 300 300 301 300 300 300 299 296 295 297 297 299 297 297 293 295 295 292 289 289 291 291 293
312 314 315 316 315 314 315 312 312 313 312 311 311 310 311 312 312 311 310 309 309 308 308 307 306 304 302 301 301 300 299 300 300 300 300 299 297 296 293 295 296 298 297 297 295 290 291 292 291 289 288 289
309 311 312 312 310 310 310 309 308 308 307 308 308 309 309 309 310 310 310 309 308 307 306 306 305 304 302 301 300 300 299 299 300 299 299 299 297 296 294 293 295 296 297 299 299 296 292 292 290 291 293 290
307 307 307 307 306 305 306 305 306 305 305 306 306 306 308 308 308 308 308 308 308 307 305 305 305 304 302 301 300 299 298 299 300 299 299 299 298 297 297 296 294 294 296 298 302 303 302 300 293 293 292 291
305 306 306 305 305 305 305 304 306 307 307 307 307 307 306 306 306 307 306 307 307 306 305 305 304 303 302 301 300 299 298 298 299 299 299 299 298 298 297 298 293 294 294 297 298 300 300 298 295 300 292 290

ECMWFFLT2_sfc_thetae_024.txt.gz
Theta_e
343 344 347 347 348 347 348 347 348 348 349 348 348 348 347 347 345 344 344 344 342 340 337 336 335 334 333 333 332 331 330 330 329 329 329 329 326 325 323 323 321 319 317 316 315 315 314 315 316 317 315 313
339 341 344 345 345 345 345 346 347 347 347 347 346 346 345 343 342 343 343 342 341 337 336 336 335 333 332 332 331 330 329 329 329 328 328 328 325 325 323 322 321 318 316 314 313 312 312 313 315 314 315 309
338 335 339 342 342 342 343 344 344 345 345 343 344 343 341 338 336 335 336 337 337 336 335 333 333 333 331 330 330 330 329 329 328 328 328 326 325 324 322 321 319 316 315 312 311 310 310 310 309 311 310 307
341 333 332 337 338 339 341 341 342 342 340 337 336 336 334 330 329 327 330 328 330 330 333 330 326 331 332 330 330 330 329 329 328 328 327 326 325 323 321 319 317 314 312 310 310 309 310 312 310 305 303 304
341 339 330 332 332 334 336 338 338 339 334 328 327 328 324 322 329 329 328 326 326 323 325 322 324 329 332 330 330 331 329 329 328 328 327 326 325 322 321 317 314 312 311 309 308 309 309 310 303 302 302 303
340 340 333 338 338 335 335 332 331 333 336 329 333 324 323 327 328 327 325 325 324 324 322 321 321 325 330 330 331 331 329 329 328 327 326 326 324 322 319 315 306 307 311 308 309 308 311 302 301 301 301 302
337 338 336 338 339 338 331 333 332 335 334 333 332 328 326 326 326 326 325 324 324 324 320 321 320 324 327 329 329 330 330 328 327 327 326 326 324 320 316 308 301 299 299 300 307 308 304 301 300 302 301 301
334 335 337 338 339 338 337 336 334 335 334 333 332 328 327 326 326 326 325 323 320 322 321 319 319 323 324 326 325 325 325 327 327 326 325 324 322 317 310 306 304 300 299 296 295 299 301 300 301 300 300 300
333 332 337 337 338 337 337 336 335 335 334 333 332 328 327 326 326 327 326 323 322 322 321 318 318 320 320 320 319 320 317 319 319 320 316 315 312 305 304 303 303 303 301 301 301 299 299 300 300 300 300 300
332 332 331 335 336 335 335 335 335 334 334 333 332 330 327 326 326 327 324 322 322 321 321 319 318 318 319 319 318 319 317 315 316 314 311 309 306 302 301 301 300 300 300 298 298 299 299 298 298 299 299 300
332 331 331 331 334 333 332 333 333 333 333 333 331 330 327 326 325 325 323 321 321 320 320 319 318 317 317 318 318 317 316 315 315 312 309 305 304 300 300 300 301 301 300 299 298 299 299 299 298 299 298 299
332 331 330 330 328 329 329 329 329 330 330 331 330 328 328 325 325 324 322 321 320 319 319 318 317 317 316 318 317 317 316 314 312 311 306 302 300 300 300 300 300 300 300 299 299 299 298 298 297 297 297 297
331 331 330 329 328 328 326 329 328 328 329 328 328 328 327 325 324 323 322 321 320 319 317 316 316 316 316 316 316 317 314 313 311 309 302 299 299 300 300 299 298 298 298 297 297 299 298 297 296 296 298 297
330 330 329 329 329 328 326 328 329 328 327 328 327 326 327 326 325 323 322 320 319 319 316 315 316 316 315 316 316 315 314 311 309 303 298 299 300 299 298 298 298 297 296 296 297 297 297 296 297 296 297 297
330 329 329 329 329 328 327 328 328 327 327 327 326 326 327 325 324 323 322 320 320 318 316 315 315 315 315 315 315 314 312 309 305 300 299 300 298 298 297 297 296 296 297 296 297 297 296 296 296 296 296 296
328 328 328 328 328 328 328 327 327 326 326 323 325 325 327 326 324 323 323 321 320 318 315 314 314 314 314 314 312 312 308 306 303 299 299 298 297 297 296 296 296 296 295 295 296 296 296 295 296 295 296 296
327 326 327 326 326 327 328 327 326 326 326 325 325 324 325 325 324 322 322 320 319 316 315 313 313 312 312 312 311 309 305 303 300 299 298 299 299 297 296 296 295 297 295 294 295 296 295 295 295 295 295 296
324 325 324 324 324 325 326 326 325 325 325 325 324 323 323 324 324 323 322 320 317 316 314 313 312 311 310 309 307 307 304 301 298 297 298 298 297 299 296 295 295 293 294 293 293 294 294 294 294 294 295 295
322 322 323 322 322 323 323 325 324 324 325 324 324 323 321 323 322 322 321 319 317 314 313 312 311 310 308 309 306 304 301 300 298 298 298 296 296 295 294 295 295 294 294 293 294 294 293 293 294 294 295 295
320 322 321 321 320 321 321 321 321 321 322 323 322 321 320 321 321 321 321 318 316 314 312 311 310 309 308 307 305 303 301 300 298 297 298 296 295 293 293 294 293 293 293 292 293 293 293 294 294 293 294 295
320 320 320 320 320 322 321 321 320 321 320 320 319 318 317 319 319 319 319 317 315 313 311 309 308 308 307 306 304 301 300 298 297 297 297 295 295 293 291 292 291 292 293 293 293 292 293 292 292 293 294 293
318 319 319 318 318 318 319 320 320 320 319 319 318 318 316 317 318 317 317 316 313 312 311 308 307 306 306 304 302 301 300 299 297 296 296 294 294 293 293 291 291 292 293 295 294 293 293 292 292 292 293 293
317 318 318 318 317 316 317 317 319 318 317 317 317 316 315 317 317 315 316 314 312 311 309 307 305 305 304 303 301 300 298 298 296 296 295 293 293 294 293 292 292 292 294 294 294 293 292 292 292 292 292 291
314 316 313 312 313 313 314 313 314 315 315 315 314 314 314 314 314 313 314 312 311 310 309 306 304 303 302 301 300 299 297 296 295 295 294 293 293 292 293 293 293 293 293 292 291 291 291 291 292 292 291 292
311 310 310 310 311 311 312 312 313 313 313 313 313 313 313 312 313 314 314 312 310 310 307 307 303 302 301 300 299 298 297 296 295 295 295 294 293 292 292 291 292 293 293 291 289 290 289 289 291 291 292 292
310 310 311 310 311 311 311 309 309 310 311 311 312 310 310 309 309 311 311 310 309 309 308 305 303 301 300 299 298 298 297 296 295 295 295 294 292 292 291 291 293 293 292 288 287 286 287 287 289 290 290 290
307 309 310 309 308 308 308 309 309 309 308 309 309 308 307 307 307 306 306 306 306 308 308 306 303 301 300 298 298 297 296 295 294 295 294 293 293 291 290 290 293 293 292 287 287 287 286 283 284 287 286 288
305 307 308 307 307 306 304 303 305 306 305 305 306 305 305 305 306 305 304 305 304 305 306 306 304 302 299 298 297 297 296 295 294 294 294 294 292 292 290 290 292 293 291 289 289 284 285 284 284 283 284 285
302 304 304 305 304 303 303 303 302 302 301 302 302 302 303 303 305 305 303 303 303 303 304 303 304 302 299 299 297 297 296 295 295 295 295 295 292 291 291 290 290 291 291 290 292 289 285 284 284 283 284 285
301 301 301 300 298 297 298 298 299 299 300 300 300 300 302 303 303 303 303 302 302 301 301 301 302 301 300 299 298 297 296 295 294 294 294 294 294 292 291 291 290 290 291 291 291 290 288 287 284 284 284 284
299 299 299 300 299 298 298 297 299 299 299 299 299 300 301 301 302 302 301 301 301 300 300 300 300 300 299 298 298 297 296 295 294 295 295 294 294 293 292 290 289 290 290 290 290 292 293 291 289 289 285 282

ECMWFFLT2_sfc_thetae_027.txt.gz
Theta_e
343 345 347 348 348 347 348 347 348 349 349 349 349 349 349 347 346 345 345 344 343 342 340 339 338 337 335 335 336 336 335 332 331 330 330 330 328 326 324 323 322 319 318 317 316 316 317 317 318 317 315 311
340 342 345 346 346 345 346 346 347 347 347 347 347 346 345 343 343 343 344 344 343 341 340 340 339 336 335 334 334 333 332 331 331 330 330 329 327 325 324 323 321 318 316 315 313 314 315 315 317 316 313 306
340 336 340 342 343 343 343 344 344 345 344 343 344 343 341 339 337 336 337 339 341 340 337 335 336 337 335 334 333 332 331 331 331 330 330 328 327 325 324 322 319 317 315 313 312 313 315 312 312 311 306 304
343 336 334 337 339 340 341 341 342 342 340 337 336 336 336 333 333 330 333 329 333 332 335 333 329 333 334 333 332 331 330 330 330 329 330 328 326 325 323 320 317 314 313 312 311 313 313 312 310 300 300 303
342 341 331 333 333 334 337 338 338 339 334 330 329 330 328 327 333 333 333 331 329 324 328 324 324 330 334 334 334 334 333 330 330 329 329 327 326 324 322 317 314 313 312 311 311 312 314 309 299 298 300 304
342 341 334 339 337 336 335 332 331 334 337 330 335 326 331 332 329 329 329 328 325 325 324 322 322 326 331 333 332 332 332 330 330 329 328 327 326 323 319 315 303 305 312 311 311 312 310 300 298 298 299 303
340 341 338 338 338 336 331 333 333 336 335 335 335 332 331 328 327 326 325 325 324 323 320 321 321 325 328 331 329 330 332 331 329 329 328 327 325 322 316 303 298 297 297 298 308 306 300 299 298 298 299 300
338 339 338 337 337 337 336 335 335 336 335 334 333 331 328 326 325 325 324 322 320 321 320 320 320 323 325 327 325 325 326 329 329 328 328 325 324 318 306 298 297 296 295 295 294 296 298 297 298 297 297 299
335 336 336 337 336 336 336 336 337 337 336 334 331 329 327 325 324 324 322 321 320 320 319 317 319 321 321 321 318 320 315 316 319 321 317 317 313 304 302 300 297 296 294 296 294 296 297 297 296 297 297 299
333 332 335 335 336 336 337 337 337 337 336 334 331 328 326 325 324 323 322 321 320 319 318 317 317 317 317 316 317 316 315 313 315 312 311 310 307 303 301 300 299 297 296 295 296 296 296 296 296 295 295 298
331 330 334 335 335 335 335 336 336 336 335 333 330 327 326 325 323 323 321 320 319 319 317 317 316 316 316 316 315 315 315 313 313 310 309 307 306 301 298 297 297 297 297 296 296 295 296 296 295 295 295 298
330 329 331 333 332 333 332 333 334 335 334 333 330 327 325 324 324 322 320 319 319 318 317 316 316 315 315 315 315 314 315 313 311 309 308 307 303 301 297 296 296 296 296 295 296 296 295 295 294 294 294 296
330 329 328 330 332 333 328 332 333 333 332 332 330 327 325 323 323 322 320 319 319 317 317 316 316 315 316 315 315 313 313 313 312 309 307 305 305 301 298 296 296 296 295 295 295 296 295 294 294 294 295 294
328 328 327 327 330 331 328 330 331 330 330 331 330 327 326 324 324 322 320 319 318 317 316 315 315 315 315 315 314 314 313 311 312 309 305 302 302 300 297 297 297 295 295 294 295 294 294 294 295 294 294 293
328 326 326 326 325 327 327 328 326 327 329 329 329 329 325 324 324 323 320 319 318 317 315 315 314 314 314 314 314 314 313 310 311 309 305 301 300 297 296 296 295 294 295 294 295 295 294 294 294 294 294 293
327 326 325 324 325 324 324 324 324 324 326 325 327 327 325 324 323 322 320 319 318 317 315 314 314 313 313 313 313 314 313 308 308 306 301 299 298 296 296 295 294 295 294 293 295 293 293 293 294 293 293 293
326 325 324 324 324 324 323 323 324 324 323 324 324 324 325 324 323 321 320 319 319 316 315 313 313 312 313 313 312 312 311 307 303 301 298 297 297 295 295 294 294 295 294 293 294 294 293 293 293 294 294 294
324 323 322 321 323 323 323 322 321 322 322 321 322 322 323 323 322 321 320 319 317 316 315 313 313 312 311 312 311 311 308 306 301 299 297 296 295 296 294 293 293 293 292 292 292 292 292 291 293 293 294 293
321 319 321 319 319 321 321 322 322 319 320 319 320 320 320 321 320 320 318 317 317 315 314 313 312 311 311 310 309 308 305 304 299 298 297 295 295 294 292 292 293 292 292 292 293 292 293 293 292 292 293 294
317 318 317 317 316 319 317 318 321 319 320 319 317 318 320 319 319 318 317 316 315 315 313 312 311 311 308 308 307 306 302 301 298 296 296 295 294 292 291 292 292 291 291 291 291 291 291 292 292 292 292 293
314 316 316 316 317 317 316 317 318 317 317 318 318 316 316 317 318 317 315 315 314 313 312 310 311 308 308 306 305 303 300 299 297 297 297 294 294 294 291 291 290 289 291 291 290 290 290 290 292 292 293 293
315 316 316 316 316 315 317 315 315 315 317 316 315 315 315 316 316 316 314 313 312 312 312 310 309 307 306 305 304 302 299 298 296 296 296 294 292 293 292 291 290 290 290 292 291 290 290 290 290 290 291 292
314 314 314 314 314 314 314 315 314 314 315 314 315 313 313 314 316 316 315 313 313 313 310 309 308 307 305 304 302 301 299 296 294 294 295 295 292 291 292 291 290 290 291 292 291 290 290 290 290 290 290 292
311 312 311 311 311 312 310 312 311 313 312 313 313 311 311 313 315 314 316 314 313 313 310 308 307 307 305 302 301 300 298 296 294 294 293 293 293 290 290 289 290 290 291 289 289 289 288 288 289 289 290 290
308 307 305 306 307 307 306 308 308 310 311 311 309 310 311 310 311 312 313 312 311 312 309 308 306 306 304 302 301 300 300 298 296 295 294 293 292 291 289 288 289 291 291 290 287 287 286 288 287 289 289 289
306 305 304 303 302 306 306 307 307 306 307 307 308 308 308 308 308 309 308 307 307 307 308 307 305 304 304 302 302 301 299 297 296 294 293 292 290 290 291 289 290 291 291 287 287 286 285 285 285 286 288 287
303 303 304 304 302 303 302 303 304 303 303 304 305 305 304 304 303 304 304 305 304 306 306 306 304 303 303 302 301 300 298 296 295 294 293 292 292 289 288 289 290 291 292 287 285 285 284 281 284 285 286 285
299 301 301 301 301 302 303 302 302 303 303 302 302 303 303 303 301 302 301 301 302 303 304 304 303 302 300 300 300 300 299 297 296 294 293 292 292 291 289 288 289 291 291 287 288 283 284 281 281 280 283 284
298 299 299 299 299 299 299 299 299 298 299 299 298 300 301 301 300 300 300 300 299 300 301 301 303 301 300 299 299 299 299 298 297 296 296 294 293 291 291 289 288 290 290 289 292 288 282 280 281 282 281 283
297 297 297 297 296 295 295 294 295 295 296 297 297 298 297 299 299 299 298 298 298 298 298 299 299 300 299 299 300 299 299 298 297 296 295 295 295 292 291 291 289 289 291 289 290 288 287 286 285 281 282 282
296 295 296 295 295 294 294 293 294 294 295 294 295 295 296 297 297 297 298 297 296 297 296 296 296 297 298 298 298 298 298 297 297 297 296 296 295 294 294 290 289 289 290 289 289 289 288 288 285 285 284 282

ECMWFFLT2_sfc_thetae_030.txt.gz
Theta_e
343 344 347 347 348 347 347 347 348 348 348 349 349 349 349 349 346 346 345 346 344 344 343 342 341 340 340 340 339 338 338 337 333 331 331 332 329 327 324 323 321 320 318 317 318 319 320 321 320 317 314 312
339 342 344 345 345 345 345 346 347 347 347 347 347 346 345 343 343 344 345 344 344 343 342 341 341 339 338 337 337 337 336 335 332 331 331 331 328 326 324 322 320 319 316 315 317 317 318 319 317 316 315 310
339 336 340 342 342 342 343 344 344 345 344 343 343 343 341 339 338 337 338 340 341 341 339 337 337 339 338 336 335 334 334 332 331 331 332 330 328 326 324 321 318 317 315 314 316 315 316 314 311 312 311 307
341 335 333 337 339 339 341 341 342 341 340 337 336 336 335 332 334 330 334 330 335 334 337 335 331 335 336 336 335 333 332 331 331 331 331 330 328 326 323 321 318 315 314 314 314 315 314 311 307 302 304 304
342 340 331 333 333 334 337 338 338 339 334 329 328 329 327 327 336 334 334 334 336 326 332 326 326 332 335 336 336 335 334 331 331 331 331 329 328 325 323 318 315 314 312 313 313 313 312 308 297 300 302 305
343 343 334 339 338 336 336 332 331 333 336 330 333 325 330 334 334 333 332 333 330 331 328 325 323 327 333 336 333 333 334 331 331 330 330 328 327 324 320 316 300 302 311 314 312 313 311 297 295 297 301 302
342 343 341 341 341 338 332 333 331 335 333 333 333 331 333 331 332 331 331 331 328 327 322 323 321 325 329 332 330 331 332 333 331 330 330 327 325 323 317 302 297 296 294 295 305 303 297 295 295 297 299 300
341 341 341 341 341 340 339 337 334 335 334 333 334 333 333 333 331 329 330 325 321 322 323 323 320 323 326 328 325 326 327 329 331 331 330 327 325 316 304 296 296 295 293 291 291 293 295 294 294 296 297 299
339 340 340 340 341 339 339 338 337 337 336 336 336 334 333 332 330 328 328 326 324 323 322 321 322 323 324 322 317 320 316 319 319 321 317 318 310 301 299 296 294 293 292 293 293 293 295 295 294 295 297 298
337 337 338 338 339 339 338 338 338 337 337 336 336 334 332 329 328 326 325 323 322 321 320 320 319 321 321 317 317 314 315 312 314 314 312 310 306 300 298 296 295 294 293 292 294 294 294 294 294 293 295 296
333 335 337 338 338 338 337 338 337 337 338 337 335 333 331 329 327 325 324 322 321 321 320 320 319 319 317 317 315 313 314 312 312 311 310 308 306 300 297 297 296 295 295 293 293 294 294 294 293 293 296 296
332 332 333 336 335 336 336 336 337 337 338 336 334 332 331 328 327 325 323 322 321 321 319 319 318 317 315 315 314 312 314 312 308 309 308 307 303 301 297 296 295 295 295 293 293 294 293 293 293 293 294 294
331 329 330 333 335 335 331 336 336 337 336 335 333 331 330 328 326 325 323 322 321 320 319 318 316 315 314 314 313 312 312 312 310 307 306 306 305 303 300 294 294 294 294 293 293 294 293 293 292 292 293 294
328 327 328 330 333 334 332 334 336 333 334 335 332 330 329 328 328 325 323 321 319 318 316 315 314 313 313 313 312 312 312 309 310 308 304 304 305 304 299 295 294 294 293 293 293 292 294 293 293 292 293 294
328 326 327 328 330 331 331 332 333 332 333 333 332 330 328 327 327 325 322 320 318 316 316 314 313 313 312 312 312 312 312 310 310 307 307 306 305 304 300 296 293 293 293 293 293 293 293 293 292 292 292 294
325 325 325 325 326 328 328 327 328 330 331 331 331 329 327 326 325 324 322 321 319 317 315 314 313 312 312 313 311 311 311 309 309 308 306 303 303 301 299 296 293 292 293 292 294 291 292 291 292 292 292 293
325 324 323 322 324 325 325 325 325 326 326 327 327 326 325 324 323 322 321 319 318 315 315 314 313 312 312 312 312 311 309 308 306 304 301 299 298 297 295 294 292 292 291 292 292 291 291 291 291 291 291 292
321 322 321 321 321 322 322 323 323 324 325 325 325 325 324 323 322 321 320 319 317 316 315 314 313 313 311 311 311 310 309 308 304 303 300 299 296 297 295 293 292 291 291 291 291 291 290 290 292 291 291 292
318 317 317 317 319 320 321 321 323 321 322 321 323 323 323 322 322 321 320 318 318 316 314 313 312 312 312 310 310 311 308 308 303 303 301 296 297 293 293 292 291 291 291 291 292 292 291 292 291 290 292 292
314 314 313 315 315 318 317 318 320 318 320 320 320 321 321 320 320 321 321 318 317 316 314 314 313 313 310 309 309 309 307 306 303 300 299 296 297 294 292 291 290 290 290 289 291 290 290 291 291 291 290 292
313 314 314 314 314 314 314 315 315 316 316 318 318 316 319 318 318 318 317 316 316 316 314 313 312 311 310 309 309 308 305 305 303 300 299 295 295 296 293 291 290 289 288 289 290 289 289 289 290 290 292 292
313 314 314 314 314 314 315 313 314 314 315 314 314 315 316 315 315 315 316 316 315 314 314 312 312 310 309 309 308 307 304 304 300 298 298 296 293 293 293 291 290 290 288 289 290 288 288 288 289 289 290 292
312 313 314 314 313 313 313 314 313 313 313 313 314 313 313 314 313 314 315 315 314 314 312 312 311 310 309 309 308 307 304 301 297 297 296 297 293 291 292 292 291 290 289 289 289 288 288 287 288 289 289 290
308 309 308 310 311 311 309 310 310 310 311 312 312 312 313 313 314 314 313 313 313 313 312 310 310 310 308 308 307 306 303 300 298 298 296 295 294 291 290 289 289 288 289 287 287 288 287 286 286 288 289 289
303 304 303 305 304 303 305 306 308 307 308 308 309 310 311 311 312 313 312 311 311 310 308 308 307 307 306 305 305 305 304 303 301 300 299 297 294 292 290 288 287 288 289 288 287 285 284 285 285 287 289 288
302 301 300 302 301 302 303 304 305 304 305 306 308 308 308 308 309 309 308 308 309 308 309 307 306 306 306 305 305 305 304 302 300 298 297 295 294 293 293 290 288 290 290 287 285 285 285 284 285 286 287 287
298 299 300 301 300 300 300 299 300 301 300 302 304 304 304 305 306 306 305 305 305 306 306 305 304 303 303 303 303 302 301 301 299 297 296 295 296 293 292 292 291 290 291 287 284 282 284 282 284 285 287 287
296 297 297 297 297 298 298 296 297 300 301 301 302 301 301 301 301 301 301 301 301 301 302 303 302 301 301 301 301 301 301 299 299 298 296 295 295 295 292 291 291 292 292 287 288 284 285 280 281 280 283 286
296 297 296 297 297 297 296 297 296 296 296 296 297 299 299 299 299 300 299 299 299 299 299 298 300 300 300 300 300 300 301 300 300 299 298 296 295 294 295 292 291 291 292 290 291 288 280 280 281 280 279 281
294 294 294 294 293 293 292 292 292 292 291 292 292 293 294 295 296 297 299 297 297 297 297 298 296 296 299 298 299 299 300 299 299 298 297 296 296 294 294 295 292 290 292 292 291 289 286 284 282 281 280 283
293 292 292 292 291 291 290 290 290 290 291 291 291 292 292 292 293 293 294 295 296 296 296 296 296 295 294 295 296 297 298 297 298 298 297 297 296 295 295 293 292 291 291 292 291 291 290 287 285 281 282 283

ECMWFFLT2_sfc_thetae_033.txt.gz
Theta_e
343 344 346 347 348 347 347 347 348 348 348 348 349 349 349 348 347 346 346 346 345 345 344 344 343 343 342 342 341 339 338 337 334 332 331 334 331 328 325 322 321 319 317 319 320 322 322 322 321 318 315 311
339 342 344 345 345 345 345 345 347 347 346 347 346 345 345 343 343 344 345 345 345 344 343 343 343 343 342 341 340 339 337 336 336 333 335 332 330 328 325 322 320 317 316 318 318 319 320 321 320 318 315 308
338 335 339 342 342 342 343 344 344 344 343 342 343 342 340 338 337 336 338 339 342 342 340 338 339 342 341 339 338 336 336 335 333 335 334 332 330 327 325 322 319 316 316 317 317 317 316 316 315 314 311 305
340 334 332 336 338 339 340 341 342 341 339 336 335 336 335 332 333 330 334 330 335 334 338 335 333 337 338 338 336 335 334 333 333 334 332 331 329 327 325 322 319 315 315 316 316 316 314 312 310 304 303 303
342 339 330 332 332 334 336 337 337 338 333 329 328 329 327 326 336 334 333 334 336 327 335 328 327 333 336 339 338 337 337 332 333 334 332 330 329 326 324 321 317 314 314 314 314 314 312 307 300 300 301 302
342 342 334 338 337 335 335 331 330 333 334 329 331 325 330 335 335 335 333 332 331 333 332 328 323 328 334 337 335 334 336 332 332 333 332 330 328 326 323 317 298 298 308 314 314 311 306 296 296 298 299 299
342 342 340 339 340 338 331 332 330 333 331 330 331 331 333 333 335 335 334 333 330 328 325 328 322 326 330 334 331 332 334 334 332 333 332 330 328 324 318 300 295 294 291 292 305 303 296 293 295 296 297 298
341 342 341 341 341 340 339 338 335 335 333 331 331 333 334 334 334 334 334 328 324 325 327 326 320 324 326 329 326 326 328 330 331 332 331 330 327 316 303 295 295 293 290 290 290 293 293 292 293 295 297 298
340 340 340 340 341 340 339 338 338 337 336 335 334 333 334 334 333 332 332 330 328 328 326 324 324 325 326 325 323 322 320 318 318 319 313 314 309 300 299 297 294 292 290 292 291 292 292 293 292 295 296 296
338 338 339 338 340 340 338 338 338 338 337 336 336 335 334 333 332 331 331 328 327 326 325 323 323 323 324 322 321 319 318 314 311 309 309 308 304 299 297 294 292 292 293 290 291 291 292 292 292 293 294 295
337 338 339 338 338 338 337 336 336 336 338 337 336 335 333 332 331 329 329 327 325 325 324 323 322 322 321 322 320 318 318 314 309 309 308 306 304 298 296 295 294 292 292 291 291 292 292 292 292 293 293 294
336 337 337 337 333 336 335 336 335 336 337 336 335 334 333 332 331 329 327 326 325 324 322 322 321 321 320 319 319 316 317 314 307 306 305 304 299 299 296 295 295 293 293 292 291 293 293 292 291 291 293 293
334 335 335 335 335 335 333 336 337 335 334 336 336 333 332 331 330 328 327 325 325 322 321 321 320 319 319 318 317 315 314 313 309 306 306 305 303 299 297 294 295 293 292 291 291 292 292 292 291 291 292 292
331 332 332 333 334 336 334 334 336 335 333 332 332 332 331 332 331 328 327 325 323 322 321 319 318 318 317 317 315 315 315 311 310 308 303 303 301 301 297 295 294 294 292 292 291 291 291 292 292 291 292 292
328 328 330 331 333 333 333 333 333 334 335 332 331 330 329 328 328 328 326 325 323 321 320 318 317 317 316 315 315 315 315 309 309 307 308 307 305 303 300 298 293 293 292 290 291 291 291 292 291 291 291 292
323 324 325 326 330 331 332 331 332 332 332 330 332 329 329 328 328 325 325 324 322 321 319 317 317 316 315 315 313 313 313 310 308 308 304 303 302 301 300 296 292 291 292 290 291 290 291 290 291 291 290 292
321 320 320 321 323 327 329 329 330 330 331 331 330 328 327 327 326 324 325 323 322 320 319 317 316 315 315 316 314 313 311 310 307 306 303 300 299 298 297 296 294 292 290 290 290 289 291 289 291 290 290 291
317 316 316 317 318 321 325 327 328 329 329 330 330 329 328 328 327 325 324 323 321 320 319 318 317 316 315 314 313 311 310 310 308 307 304 301 300 300 299 297 294 293 292 290 289 289 289 288 290 289 289 290
315 313 316 317 317 319 321 322 325 325 324 324 327 327 327 326 325 324 323 322 322 320 319 317 316 314 314 311 309 311 310 311 307 308 306 301 302 295 295 294 293 292 293 291 291 291 290 290 290 288 290 289
311 312 312 314 314 316 316 317 318 319 321 321 321 323 323 324 324 323 323 321 320 318 317 316 315 314 310 309 310 311 308 308 307 305 304 300 302 298 296 293 293 290 290 289 290 289 289 289 290 289 288 289
313 314 314 314 315 315 314 315 315 316 316 317 317 317 318 318 318 319 318 316 316 317 317 316 316 314 311 309 309 308 307 307 306 305 303 299 299 302 300 294 293 290 289 289 289 288 288 288 289 288 289 290
312 313 313 313 313 312 313 313 314 315 315 315 315 315 315 315 315 314 315 315 315 315 313 312 312 309 309 309 309 308 308 308 305 304 304 302 298 299 300 295 294 293 289 289 289 288 288 288 287 287 288 289
309 310 311 311 311 310 310 311 311 312 312 312 313 313 314 314 314 313 314 314 314 314 312 311 311 311 309 308 308 308 307 306 304 303 302 304 299 295 297 297 293 293 291 289 288 288 287 286 286 287 287 288
306 307 305 306 308 307 308 308 307 308 308 309 309 309 310 310 311 311 311 312 312 311 311 310 309 309 308 307 307 307 306 304 302 302 301 300 299 294 293 291 291 291 291 289 287 287 287 285 285 287 287 287
301 302 303 302 302 303 304 304 304 304 305 305 305 305 306 307 307 307 307 309 310 310 308 308 308 307 306 306 306 305 305 305 304 302 301 298 297 296 293 291 290 291 292 291 290 286 286 287 286 287 288 287
297 298 298 299 299 298 299 300 299 299 300 301 301 301 301 302 303 303 304 304 306 306 307 306 305 305 305 305 305 304 303 302 300 299 298 297 297 295 295 295 292 292 293 290 290 289 286 284 285 288 287 287
295 295 296 296 295 296 295 295 296 295 295 296 295 295 296 297 299 300 300 300 301 302 303 303 303 301 301 302 302 302 301 300 300 298 298 296 297 296 293 292 293 293 293 292 288 287 287 285 284 286 285 286
294 295 295 295 295 295 294 293 294 294 294 293 293 292 293 293 294 295 295 295 296 297 297 298 299 299 298 298 297 298 297 296 298 299 299 298 296 296 295 292 292 293 293 291 291 290 289 285 284 284 285 282
293 294 294 294 294 294 293 293 292 292 291 291 291 291 291 291 291 292 292 292 292 293 294 295 296 296 297 297 296 297 297 297 297 297 298 298 297 296 297 296 293 293 292 292 292 292 285 286 286 284 284 282
292 292 291 291 291 290 289 288 288 287 287 288 288 288 289 290 290 290 290 290 291 291 292 292 293 294 294 295 295 295 295 296 297 297 297 297 297 296 295 294 293 292 293 292 292 291 290 290 288 286 285 285
291 290 290 289 288 288 287 287 287 287 288 288 288 288 288 288 289 289 289 289 289 289 290 290 291 292 292 293 293 294 295 295 295 296 296 296 296 296 296 295 293 293 294 292 292 292 292 289 287 288 287 287

ECMWFFLT2_sfc_thetae_036.txt.gz
Theta_e
342 344 347 348 348 348 348 348 348 349 348 348 348 349 349 348 347 346 347 345 344 344 344 343 343 343 343 341 341 339 337 336 334 333 337 334 331 329 327 324 322 319 319 321 323 324 325 324 322 319 314 310
338 341 344 345 345 345 345 345 347 347 346 346 346 345 344 343 343 343 345 345 344 344 343 344 344 343 342 341 340 339 338 337 336 337 336 333 331 329 327 324 321 317 318 320 320 322 324 323 321 318 314 307
338 334 339 341 341 341 342 343 343 344 342 341 342 342 340 339 337 337 338 339 341 342 340 339 339 343 343 341 340 337 335 335 338 336 334 333 331 329 327 323 319 317 318 318 319 320 319 317 315 313 309 304
340 334 332 336 337 338 339 340 341 340 338 336 335 336 336 332 331 331 335 331 335 334 339 336 333 338 339 341 338 335 333 333 336 335 333 332 330 328 326 323 319 316 316 317 317 318 317 313 310 303 302 301
341 340 329 331 331 333 335 336 336 337 334 329 328 329 328 326 334 334 335 333 335 328 336 329 328 334 338 340 339 337 334 333 335 334 333 331 330 327 324 320 317 316 317 316 315 314 312 307 300 299 300 301
342 341 333 337 337 335 335 331 330 332 332 328 330 324 329 333 333 335 334 334 332 333 333 329 325 329 334 338 335 335 336 334 335 334 333 331 329 327 321 314 298 296 305 309 312 311 306 296 295 296 297 298
341 341 339 339 339 338 332 333 331 332 330 328 329 331 333 332 333 334 333 333 331 332 326 329 322 327 330 334 331 332 334 335 335 334 332 331 328 322 314 299 294 290 289 289 301 300 294 292 294 295 296 296
341 341 340 340 339 339 338 338 336 336 335 333 332 333 333 333 332 334 334 329 325 328 328 327 321 324 327 329 327 327 329 330 333 333 332 330 325 314 302 296 293 290 288 290 289 291 291 290 291 293 294 295
339 340 340 340 340 339 338 338 337 337 336 334 334 333 333 334 332 333 334 332 331 329 328 327 325 326 327 326 324 322 322 322 324 322 315 313 307 300 300 296 291 289 287 290 290 291 291 291 291 292 293 293
338 339 339 338 340 340 339 336 338 338 336 334 335 334 334 333 333 332 332 331 331 330 328 326 324 325 325 323 323 322 320 319 317 314 312 309 305 299 297 294 292 292 292 289 289 290 290 290 290 291 292 292
337 338 339 339 338 337 338 339 335 334 338 337 334 335 334 333 332 332 331 327 326 328 328 328 324 322 322 323 322 321 321 319 317 315 312 309 305 297 296 294 292 291 289 289 291 291 290 290 290 291 290 291
336 336 337 337 335 337 334 336 337 337 334 335 337 335 334 332 331 330 328 329 328 325 323 322 322 322 321 321 320 319 320 318 314 313 310 308 302 299 296 295 293 292 290 289 289 292 291 290 290 289 290 291
334 335 335 334 334 336 332 333 335 337 335 333 333 334 334 333 334 332 330 328 326 325 324 321 320 320 321 321 318 316 316 318 314 311 310 309 306 299 297 295 295 294 292 289 289 291 291 291 290 289 289 290
331 332 332 332 333 334 333 333 334 333 334 333 330 332 332 331 330 329 329 327 326 324 322 322 319 317 318 318 317 317 316 314 313 312 309 308 305 302 297 296 295 295 294 291 290 290 291 290 290 290 290 290
330 329 331 331 332 332 333 332 333 333 332 332 330 328 328 329 327 327 327 327 325 324 322 320 319 317 315 316 316 317 317 313 313 312 312 310 308 304 300 298 294 294 294 290 290 289 291 290 289 290 289 290
326 327 327 327 329 331 331 330 330 330 329 328 330 325 326 326 325 323 325 324 323 323 323 322 319 317 316 317 316 316 316 312 311 311 309 308 307 304 301 296 293 292 294 291 289 288 290 289 289 289 290 289
322 323 324 324 326 327 328 329 329 329 328 329 328 328 323 321 322 321 322 320 321 320 321 319 318 317 317 317 315 314 313 312 310 309 307 305 304 303 300 297 294 292 291 292 290 288 289 289 289 289 288 290
318 319 320 321 322 323 325 325 326 326 327 327 327 325 323 324 324 323 322 322 321 321 321 319 318 318 316 316 315 313 312 311 310 310 308 306 305 304 304 302 297 295 295 292 289 289 288 288 288 287 288 289
314 316 317 318 318 318 319 319 319 319 319 320 321 322 322 322 323 323 323 322 321 317 319 319 317 317 317 313 311 312 312 312 309 310 310 306 307 301 301 301 297 294 295 293 294 291 290 289 288 287 288 287
315 316 315 315 313 315 315 315 315 315 315 315 316 316 316 317 317 319 319 319 319 319 317 316 315 313 311 310 310 310 310 311 310 308 308 306 308 304 302 300 301 294 295 291 292 290 289 288 289 288 286 287
314 314 313 312 312 311 311 311 311 311 312 311 312 312 312 313 313 315 315 316 316 316 315 314 313 312 310 309 311 310 309 310 309 308 307 303 304 307 307 301 301 297 293 292 290 288 288 288 288 288 287 287
312 311 310 309 308 307 307 307 307 307 307 307 308 308 308 309 309 310 312 312 314 313 312 312 311 310 310 310 310 309 309 308 306 305 306 306 301 300 302 301 299 299 295 291 290 289 288 288 287 287 287 287
308 309 308 307 305 304 304 303 303 303 302 303 303 304 304 304 305 306 308 309 310 310 310 309 309 309 309 309 309 308 307 305 304 303 303 303 302 298 295 296 295 295 293 292 289 289 289 287 287 287 287 288
305 303 302 302 302 301 300 300 299 299 298 299 298 300 300 300 301 303 304 305 307 307 306 306 306 306 306 307 308 307 305 304 304 303 302 301 301 299 297 295 293 293 293 291 290 290 290 287 286 287 288 287
299 299 299 298 297 296 296 296 296 295 295 295 295 296 297 297 297 298 299 301 302 302 303 303 303 304 304 306 305 304 304 304 303 303 302 301 299 299 297 295 292 293 295 293 294 291 290 289 287 289 289 288
296 296 296 294 294 294 294 293 293 292 293 293 293 293 293 294 294 294 294 296 298 298 300 301 300 300 300 302 303 303 302 300 299 299 298 299 297 295 297 296 294 294 295 292 290 291 290 289 289 288 287 287
294 294 294 294 292 292 292 293 292 291 291 291 290 290 291 291 292 292 292 293 294 295 296 297 298 298 298 298 299 299 299 299 299 298 297 296 297 296 293 292 293 293 294 293 290 290 289 287 285 290 286 285
293 293 293 293 292 292 291 290 291 290 290 289 289 288 288 289 289 289 289 290 291 292 292 293 294 294 295 295 295 296 295 295 296 296 297 297 297 296 293 291 290 291 293 292 293 292 289 286 284 287 287 283
291 292 291 291 291 291 290 289 289 288 287 287 287 287 286 286 287 288 288 288 289 290 290 291 291 292 292 292 293 293 293 293 293 293 293 295 295 294 294 292 291 291 292 293 294 293 288 288 287 287 286 286
290 290 289 289 289 287 286 285 285 284 284 284 284 284 285 285 286 286 286 287 287 288 289 289 289 290 290 290 291 291 291 291 292 292 292 292 293 292 292 292 291 291 292 292 293 292 291 292 289 287 287 287
289 288 288 287 286 285 285 283 283 284 284 283 283 284 283 283 284 284 284 284 285 286 287 287 287 288 288 288 289 289 290 289 289 290 291 291 291 291 292 292 291 292 292 292 292 292 292 290 289 289 287 285

ECMWFFLT2_sfc_thetae_039.txt.gz
Theta_e
342 344 346 348 349 348 348 348 349 350 349 349 349 349 349 348 347 345 346 345 344 343 343 343 342 343 342 342 341 339 338 338 339 339 337 334 332 330 328 324 321 321 322 323 325 327 326 325 322 318 318 325
338 341 344 345 344 345 345 345 347 347 346 346 346 345 344 343 343 343 345 345 343 342 342 344 344 342 342 342 340 339 337 338 339 337 335 333 332 330 327 323 321 321 321 321 323 324 323 321 320 318 317 324
342 334 339 341 341 341 342 343 343 344 342 341 342 342 339 337 336 336 338 340 341 341 340 339 340 343 343 341 340 338 337 338 337 336 334 332 331 329 326 323 321 320 319 319 321 322 320 317 314 313 318 322
345 335 332 336 337 338 340 340 341 340 338 336 336 335 334 329 333 332 336 330 339 335 338 336 337 339 340 342 338 336 337 338 336 335 333 332 330 328 325 322 321 320 318 317 318 319 317 314 311 318 318 320
344 343 330 332 332 333 335 337 336 337 332 328 328 330 325 324 339 341 341 337 342 329 342 330 329 335 339 341 338 338 339 337 336 335 333 332 330 326 321 318 315 315 315 315 315 316 313 309 316 314 317 319
343 343 336 342 342 342 339 333 331 338 344 331 340 322 330 339 339 341 340 340 334 339 340 334 325 330 335 339 335 336 338 337 336 335 333 331 328 323 318 311 310 306 307 311 311 310 307 312 313 313 314 317
343 343 342 342 342 342 334 337 338 342 339 339 339 340 340 338 340 340 340 340 336 336 328 336 324 328 331 335 332 333 337 337 336 335 333 331 326 321 314 311 308 304 305 306 304 303 308 310 310 311 312 314
342 343 342 342 341 341 343 342 340 342 341 338 336 338 339 339 339 340 340 330 325 329 335 333 324 324 327 328 327 327 332 333 334 333 332 329 323 316 310 309 305 303 303 304 304 305 304 306 308 310 311 311
341 342 342 343 342 341 339 342 343 342 341 338 338 338 338 339 338 339 340 338 337 338 338 334 332 332 332 334 333 324 331 333 330 328 327 324 316 313 312 309 304 302 302 303 303 304 303 304 306 308 309 308
340 340 341 340 342 342 341 340 339 339 339 339 339 339 338 335 336 337 337 337 337 338 337 337 335 333 330 329 330 330 328 329 329 326 326 323 318 312 309 307 304 304 302 303 303 302 303 303 304 306 307 307
339 340 341 340 340 340 340 340 339 338 338 338 339 340 338 337 336 335 337 334 335 336 335 336 336 332 331 330 328 326 326 325 326 325 324 322 318 310 308 304 304 304 304 304 305 304 304 304 304 304 305 307
338 339 340 340 335 340 338 337 339 339 340 338 336 334 336 336 338 337 336 335 334 332 331 332 332 328 328 330 328 324 322 322 323 324 322 320 315 311 308 306 305 305 304 304 305 307 305 304 303 304 303 304
337 337 338 337 337 338 336 340 339 337 337 338 337 335 334 332 335 336 336 336 335 332 331 331 329 325 327 328 327 323 323 322 321 321 320 319 315 311 308 306 306 305 304 303 303 305 306 305 303 303 303 303
335 335 335 335 336 336 332 337 339 337 335 334 336 337 334 332 332 333 334 334 333 331 331 331 330 328 329 329 327 325 322 321 321 319 318 317 314 311 309 308 306 305 306 304 303 303 304 304 302 301 302 303
333 333 333 333 335 335 335 336 336 338 337 335 335 335 334 333 329 329 331 333 331 330 331 329 328 325 322 324 326 326 324 320 319 318 318 317 314 314 311 310 305 305 307 305 303 301 303 303 301 301 301 301
329 331 331 331 333 334 333 330 333 332 330 328 329 329 329 329 328 326 328 327 327 327 326 327 325 323 321 322 324 324 322 317 316 317 316 315 315 313 311 307 304 303 307 306 303 301 302 301 301 301 300 301
325 325 325 323 321 321 321 321 321 321 320 321 322 322 323 323 324 325 324 324 324 321 327 326 326 324 321 321 321 321 318 315 314 313 313 311 310 309 309 307 305 303 303 306 304 301 301 300 302 300 300 301
319 319 318 317 317 317 317 317 316 316 317 317 317 318 318 320 320 322 323 323 322 322 322 321 321 321 319 318 318 317 315 315 315 315 314 310 311 309 311 312 310 307 309 307 302 302 300 300 300 299 300 300
315 315 315 314 314 313 313 312 312 312 313 313 314 314 315 316 316 318 320 321 322 320 320 319 317 316 316 315 316 316 315 314 313 314 313 310 311 308 309 308 306 305 306 305 306 304 300 300 299 299 299 299
312 311 310 309 308 308 309 308 308 309 309 309 309 310 310 312 313 314 316 317 319 317 317 316 315 314 313 314 314 313 312 312 311 311 310 307 309 309 308 306 305 302 303 303 303 301 300 299 298 299 299 299
308 307 305 305 304 304 304 303 302 303 303 304 305 305 306 307 309 311 311 313 314 313 313 313 312 312 312 313 313 312 311 310 309 309 308 306 305 307 307 305 303 304 302 302 300 299 299 299 298 299 299 298
305 304 303 302 301 301 299 299 299 299 300 300 300 300 301 302 304 306 308 309 310 310 310 310 310 310 311 312 312 310 309 308 308 308 309 306 303 304 306 303 301 301 299 298 299 299 299 299 298 299 298 298
305 303 301 300 299 298 298 297 296 296 296 297 297 297 297 298 300 301 303 305 306 305 306 307 307 308 309 311 310 308 308 308 306 306 307 307 303 300 300 302 300 300 299 299 299 299 299 297 298 298 297 297
302 301 300 299 298 296 296 295 294 294 294 295 295 295 295 296 297 298 299 300 302 303 303 303 303 305 307 308 308 307 306 305 305 305 306 304 305 303 301 300 300 299 297 297 298 299 300 299 298 298 297 297
300 299 296 296 294 293 293 293 293 292 292 292 292 293 294 294 295 296 297 298 299 300 300 300 301 301 302 304 303 303 302 303 302 303 304 303 301 303 303 300 298 298 297 298 302 300 301 300 299 296 297 296
296 296 296 294 292 292 291 291 291 290 290 290 291 291 291 292 293 293 294 295 296 296 297 297 297 298 298 299 300 299 299 299 299 300 300 302 302 300 299 297 297 298 300 300 296 296 297 298 299 299 295 296
295 295 295 294 293 292 290 291 290 290 289 289 288 288 289 290 290 291 292 293 293 294 294 295 295 295 296 296 297 297 296 297 297 297 298 299 299 300 300 298 298 297 297 296 296 296 295 296 296 301 299 296
294 294 293 293 293 292 291 289 289 288 288 288 287 286 287 287 288 289 289 290 291 292 292 292 293 293 293 294 295 295 295 295 294 295 296 297 297 299 298 298 297 297 296 295 296 296 294 294 291 295 295 293
294 293 292 292 291 291 290 289 288 287 285 286 286 285 285 286 287 287 287 288 288 289 289 290 291 291 291 292 292 293 293 293 293 294 295 295 296 295 296 296 296 297 297 297 296 293 293 293 294 293 292 291
293 293 293 292 290 287 286 284 284 283 283 283 284 284 285 286 286 286 286 286 287 287 287 287 288 289 289 289 290 291 291 292 292 292 292 293 294 294 295 295 294 294 297 296 296 296 294 293 290 288 290 291
290 289 288 287 286 285 284 283 283 284 284 284 284 285 284 285 285 285 285 285 286 286 286 286 286 287 287 287 287 288 289 289 290 291 291 292 292 292 293 294 293 292 293 296 295 295 296 295 294 292 290 288

ECMWFFLT2_sfc_thetae_042.txt.gz
Theta_e
343 345 348 349 349 348 348 348 348 349 350 349 349 349 348 347 346 345 345 344 344 343 342 342 342 342 341 342 340 340 339 339 340 338 335 333 331 328 326 325 324 324 324 325 327 327 326 324 323 322 321 332
338 342 345 345 346 345 346 346 348 348 347 347 346 345 344 343 342 344 345 344 342 343 342 342 341 342 342 341 341 339 339 339 338 336 334 332 330 328 326 324 323 322 322 323 325 324 323 322 321 320 321 329
347 335 340 342 341 342 343 344 344 344 343 342 343 341 339 337 336 336 337 339 341 341 339 338 340 342 342 340 339 339 338 338 337 335 333 332 330 327 325 324 322 320 320 321 322 322 320 318 316 316 323 327
348 338 332 337 338 338 340 340 341 340 338 335 334 333 331 328 335 332 339 329 340 335 338 336 337 338 340 340 338 339 339 338 336 334 333 332 329 326 324 322 319 318 318 318 319 319 318 316 314 323 323 325
347 348 331 333 332 334 336 337 337 337 331 325 322 327 322 327 350 347 347 345 345 329 346 331 330 335 340 341 340 340 339 337 336 334 333 331 328 323 319 317 314 314 315 314 315 315 314 312 319 321 322 322
345 347 340 349 349 349 342 334 332 341 349 338 348 325 338 347 344 344 345 344 339 343 343 337 325 330 336 339 335 338 338 336 335 334 333 330 327 323 318 315 320 314 312 311 312 311 311 315 316 318 317 318
345 345 346 347 347 348 338 343 346 347 347 348 347 345 345 343 345 346 344 344 339 341 330 342 323 328 332 335 332 336 336 336 335 334 333 331 327 322 317 324 319 314 312 312 307 309 312 313 314 315 315 315
343 345 344 345 345 344 347 348 347 348 347 347 347 347 344 343 345 345 344 327 323 333 342 339 325 325 326 329 328 330 333 333 334 333 333 330 325 323 323 326 321 316 312 309 309 310 308 309 311 312 312 312
342 343 345 344 343 344 344 344 345 343 345 345 346 347 345 344 344 344 342 342 341 340 340 341 340 336 337 336 336 328 337 336 335 333 335 331 327 330 328 325 322 319 314 311 308 308 308 309 310 311 311 310
341 342 342 342 342 342 342 345 343 344 345 343 345 346 344 344 344 343 342 341 340 339 338 338 338 338 337 336 335 336 335 335 335 335 334 333 331 329 328 325 321 317 314 312 309 308 309 308 309 309 310 310
340 343 343 343 344 342 340 341 342 343 344 342 342 343 344 343 342 341 340 340 340 339 339 337 337 336 336 337 335 333 334 334 335 333 331 331 331 328 326 322 318 314 310 311 310 310 309 308 308 309 309 309
339 341 341 344 343 341 341 340 339 341 340 341 343 342 341 338 339 340 338 339 339 340 339 338 339 338 337 336 336 334 334 332 330 329 329 330 330 327 325 322 318 316 313 312 312 313 311 310 309 309 308 309
338 339 340 341 339 342 337 339 339 342 340 339 340 342 339 338 338 338 339 339 338 339 338 339 339 339 337 336 335 332 331 331 330 328 327 327 328 327 325 323 322 319 317 317 317 315 314 312 311 310 309 309
339 339 337 338 339 340 334 336 338 338 336 334 335 336 338 337 337 337 337 337 340 338 337 338 337 337 336 334 335 334 333 332 330 328 326 326 325 324 324 324 324 322 320 319 318 316 315 313 311 310 308 309
337 336 332 334 332 329 328 327 327 328 327 328 327 328 331 333 333 333 336 335 336 338 337 337 336 334 333 334 334 334 333 331 330 327 325 324 324 324 325 325 323 321 322 321 318 315 315 313 313 311 310 310
327 325 324 324 324 323 323 322 322 321 321 321 322 323 325 327 330 331 330 329 327 326 328 330 330 328 328 327 329 330 329 324 323 323 320 318 318 318 319 320 319 319 320 321 318 317 315 314 314 313 313 313
323 322 321 319 319 319 319 318 318 318 318 319 319 320 321 324 327 329 327 326 325 323 324 325 324 322 320 321 324 326 324 322 320 320 319 315 315 316 319 319 319 319 319 319 318 317 315 316 315 314 315 314
317 316 317 316 315 316 317 316 316 316 316 316 317 318 318 320 322 323 324 325 324 324 322 322 321 321 320 321 321 322 322 321 320 321 320 317 318 314 318 320 318 318 319 319 318 318 317 317 317 315 315 314
313 312 312 312 312 312 312 312 312 312 313 314 315 316 316 317 318 321 320 320 320 319 319 318 317 317 317 319 320 320 321 321 319 318 316 316 318 316 315 314 313 313 314 314 317 318 316 316 315 314 314 313
308 308 308 308 307 308 309 308 308 308 308 309 310 312 313 314 315 317 318 319 320 321 320 318 316 316 317 317 318 318 317 317 316 314 313 312 315 315 313 312 311 308 308 309 312 314 314 314 313 313 313 312
306 305 304 303 304 304 305 305 305 304 304 304 304 306 307 309 310 313 313 315 317 318 317 316 316 315 316 317 317 316 315 314 315 315 313 312 312 315 314 312 309 308 306 306 307 310 311 313 312 312 312 311
304 303 303 302 302 301 301 301 302 303 302 301 302 302 302 304 305 308 309 310 311 312 313 313 313 313 312 312 312 311 311 311 311 312 312 310 307 307 309 307 306 307 307 306 306 306 308 309 309 310 310 309
303 302 302 302 302 301 300 300 300 301 301 301 301 301 301 301 302 303 306 306 306 306 306 307 308 309 309 311 311 310 310 310 311 311 310 310 308 306 305 305 303 303 306 307 307 307 306 307 308 310 308 306
305 304 302 300 301 300 299 298 298 298 298 299 300 300 301 301 302 302 302 305 305 304 303 304 304 305 305 306 306 306 306 306 307 308 309 308 310 309 306 305 305 306 306 308 309 309 310 310 309 308 306 305
305 303 301 299 297 297 297 296 296 296 297 297 297 298 299 300 300 301 301 302 303 304 303 304 304 305 305 305 305 304 304 305 305 306 308 308 307 307 306 303 304 305 305 307 307 309 309 309 308 306 305 303
301 301 300 299 297 296 296 296 295 294 295 295 295 296 296 297 298 299 299 300 301 301 302 302 302 302 302 303 303 303 303 303 303 304 305 307 306 306 304 302 303 303 305 304 301 302 304 306 308 307 304 304
300 300 299 298 296 295 293 294 294 294 293 294 293 293 294 295 295 296 296 297 298 298 299 300 300 300 300 301 302 301 300 301 301 302 303 303 304 304 304 303 303 302 302 299 301 305 303 302 301 304 302 304
298 297 297 296 296 295 294 292 293 293 293 293 292 291 292 293 293 294 294 294 295 295 296 297 297 298 298 299 300 300 299 299 299 300 300 301 301 303 301 302 300 302 302 300 299 298 299 299 300 299 302 298
297 296 296 295 295 295 294 294 293 292 290 290 290 290 291 291 292 292 292 293 293 293 293 294 294 295 295 296 297 297 297 296 297 298 299 299 299 300 300 299 299 300 301 300 301 298 297 298 298 296 296 297
300 298 297 296 295 293 292 290 290 288 288 288 288 288 290 291 291 291 291 292 292 292 292 292 293 293 293 293 293 293 293 293 293 294 295 296 297 298 299 298 296 296 300 299 299 300 299 297 294 293 295 296
297 296 295 294 293 292 290 288 288 289 289 289 289 290 289 289 290 291 290 290 291 291 291 291 291 292 291 291 291 292 292 291 291 292 293 293 294 294 296 296 293 294 295 296 296 298 298 298 298 298 295 292

ECMWFFLT2_sfc_thetae_045.txt.gz
Theta_e
344 345 348 348 348 348 348 347 346 346 346 347 347 347 346 347 345 344 344 344 343 343 343 342 342 341 341 340 340 340 340 339 337 335 333 332 330 329 327 326 324 324 325 325 326 326 325 325 325 323 320 329
339 343 345 346 346 346 346 346 346 346 346 346 347 346 345 344 344 345 344 343 343 342 342 342 342 341 341 340 339 339 339 337 336 334 333 331 330 329 327 325 322 322 322 323 324 323 323 324 322 323 320 327
349 335 341 342 343 343 344 345 345 345 343 342 343 341 340 338 338 337 338 339 341 341 338 338 339 342 341 340 339 339 338 336 335 333 332 331 329 327 325 323 321 320 320 320 321 322 322 320 319 316 323 323
349 337 334 339 338 339 341 342 342 340 337 334 334 333 332 329 334 331 338 330 339 334 338 335 336 338 339 339 339 339 338 336 335 334 332 331 329 326 323 320 317 317 317 317 318 318 318 320 314 323 319 321
346 347 331 334 333 334 337 339 337 337 329 323 322 326 324 326 349 345 345 342 343 329 342 329 329 335 339 339 340 339 337 336 334 333 332 330 328 325 321 318 318 318 315 313 314 314 318 312 323 316 316 317
345 349 342 347 348 347 341 334 329 339 347 338 346 329 335 344 342 341 342 342 339 342 341 336 326 331 336 339 337 337 337 336 334 333 332 330 328 325 321 317 317 313 311 314 314 315 310 324 313 315 314 315
344 344 346 346 345 347 337 342 345 345 345 346 344 345 345 340 342 342 342 341 343 341 329 340 322 329 333 335 334 335 336 335 334 334 332 331 328 325 323 325 326 320 320 317 308 309 318 311 312 313 313 312
342 342 344 344 344 344 345 344 344 345 345 345 345 346 343 341 341 343 343 326 325 335 342 333 322 323 326 328 329 330 333 333 334 334 332 330 327 326 326 328 325 322 318 316 313 312 309 310 311 313 311 311
340 342 343 343 342 343 344 345 344 343 343 343 345 345 343 342 341 342 341 342 342 341 338 339 340 339 339 338 336 327 335 334 335 332 332 329 327 330 329 327 325 324 322 320 318 315 312 310 311 312 312 311
339 341 340 341 340 340 341 344 343 342 343 341 343 342 341 340 340 340 340 340 340 339 337 337 337 338 338 337 336 335 338 336 334 334 333 332 331 329 329 327 325 324 321 321 319 317 315 313 311 312 310 310
339 340 340 340 341 340 336 341 342 343 343 344 343 343 343 342 340 341 340 338 339 338 338 336 335 335 337 337 335 334 335 334 334 334 332 332 332 329 328 326 324 322 320 320 319 318 317 315 313 312 311 311
336 339 339 342 339 340 338 339 339 341 339 341 341 343 341 339 340 340 339 339 337 338 338 337 336 336 335 335 335 335 335 334 334 333 333 331 333 329 327 326 324 322 320 320 319 318 318 317 315 314 311 311
336 338 339 341 340 340 336 339 338 338 338 338 339 340 340 338 337 337 338 339 340 338 337 337 337 337 336 336 336 335 333 333 332 331 331 330 330 330 328 326 325 323 323 322 322 320 318 318 316 315 314 313
335 337 337 338 335 335 335 334 333 332 332 333 333 333 335 336 336 336 336 337 342 340 339 337 338 336 335 334 336 335 333 333 332 332 331 331 329 327 326 327 325 324 324 323 321 320 319 317 316 317 314 314
332 331 332 332 331 329 329 329 330 330 330 329 328 328 331 334 334 334 333 332 331 333 334 336 335 334 334 333 333 334 333 331 329 327 325 325 324 324 324 322 321 321 324 323 321 320 319 318 317 316 316 315
328 326 325 327 325 325 325 324 324 325 325 324 324 326 328 330 331 330 330 330 329 328 326 326 326 326 326 326 328 328 328 326 325 322 320 319 319 319 321 322 320 321 322 323 321 321 319 319 318 317 318 317
324 321 319 320 321 321 322 322 322 321 322 322 321 326 327 327 328 328 327 327 326 325 325 325 324 322 322 323 324 324 324 323 324 322 320 319 320 320 321 323 321 322 322 321 321 321 320 320 319 318 318 318
318 317 315 317 317 316 318 320 318 317 319 319 319 320 323 325 324 324 325 325 323 323 322 321 321 321 321 322 323 323 323 322 323 322 320 319 320 318 321 320 319 320 320 321 321 322 321 320 319 318 318 317
311 313 312 312 312 312 313 314 313 313 313 314 316 317 316 318 320 324 325 325 323 323 321 320 319 319 319 319 319 319 321 321 320 320 319 320 320 318 318 317 315 316 317 316 317 319 319 319 318 318 317 317
307 308 309 309 309 310 311 310 310 309 310 311 312 313 313 314 314 317 321 322 323 321 321 319 317 317 318 319 318 318 318 319 318 317 316 315 317 316 315 316 314 313 311 311 311 313 316 318 317 317 317 316
306 306 305 305 306 307 307 307 307 307 307 308 308 308 309 310 311 312 313 317 321 319 318 316 314 314 314 315 315 315 315 315 316 315 313 310 310 314 312 310 310 309 309 309 310 311 312 314 315 316 316 314
305 305 305 304 304 304 305 305 305 305 305 305 305 306 305 307 308 309 310 310 312 312 311 312 311 312 312 312 312 312 312 311 311 312 311 307 307 310 308 306 306 305 306 309 311 311 312 313 313 314 313 310
305 305 304 304 303 302 302 303 303 304 304 304 304 304 304 305 305 306 308 308 308 308 308 308 307 307 308 308 308 308 308 310 312 311 312 311 308 307 307 306 307 307 307 308 310 310 311 312 312 313 309 310
305 305 304 302 302 301 300 301 301 301 301 302 301 302 303 304 304 305 306 307 307 307 307 306 306 306 307 307 307 306 306 306 307 308 310 309 309 308 307 306 306 306 305 308 310 310 311 312 311 309 307 306
305 303 302 301 300 298 299 299 299 298 299 299 299 300 300 301 301 302 303 304 305 305 305 305 306 306 305 306 305 305 304 305 306 307 308 308 307 306 304 303 304 304 305 307 304 307 310 310 309 306 306 305
304 303 302 300 298 298 298 298 297 296 297 297 298 297 298 298 299 299 300 300 302 302 303 303 303 303 303 303 303 303 303 303 303 304 304 306 306 306 303 301 303 303 303 302 300 301 304 307 306 305 305 304
301 301 301 300 298 297 296 297 297 296 296 296 295 295 296 296 296 297 297 298 298 299 300 300 301 301 301 302 302 301 300 301 301 301 301 302 303 303 303 302 302 301 301 298 300 303 302 301 300 302 303 302
301 300 299 299 298 298 297 295 296 295 295 294 294 293 294 294 295 295 295 295 296 296 297 297 297 297 298 298 298 297 296 297 297 297 298 300 300 301 298 299 299 300 299 299 298 295 296 299 301 298 299 296
299 298 297 297 297 297 296 296 295 294 292 292 292 292 292 292 293 294 293 294 294 294 294 295 295 295 294 295 295 294 293 293 294 294 295 296 297 297 296 294 297 297 297 297 299 297 295 295 294 293 293 295
300 299 298 297 296 295 294 292 292 290 289 290 290 290 291 292 292 292 292 293 293 293 293 293 293 294 293 293 293 293 293 292 292 293 293 294 294 294 295 293 292 292 295 295 295 296 295 295 292 290 292 292
301 300 300 299 297 295 293 290 290 291 291 290 290 290 290 290 291 292 291 292 292 292 292 293 293 293 292 292 292 292 292 291 291 292 292 293 292 292 293 293 290 290 290 291 292 293 293 294 295 296 292 287

ECMWFFLT2_sfc_thetae_048.txt.gz
Theta_e
343 346 348 348 346 348 346 347 347 346 344 345 346 345 345 345 345 344 343 343 342 342 341 342 342 341 341 341 340 340 338 336 335 334 333 332 330 327 325 322 323 323 323 323 323 324 324 327 324 322 320 320
339 343 345 346 345 345 346 346 346 345 345 346 345 346 345 344 344 344 343 343 343 342 341 342 340 340 339 340 339 338 337 336 334 333 332 331 329 327 323 321 321 321 320 321 321 322 324 323 322 321 321 316
338 335 340 341 341 342 344 345 344 345 342 342 344 343 341 340 338 337 338 339 341 341 339 338 338 340 340 339 339 338 336 335 334 333 332 330 328 325 321 319 319 318 318 318 319 320 321 320 318 317 316 313
344 331 332 338 338 340 341 342 342 340 338 335 334 334 332 330 330 329 333 330 334 333 337 334 335 337 338 339 339 338 336 335 334 333 332 330 328 324 320 318 317 316 315 316 316 320 319 317 315 310 309 310
346 339 330 331 331 333 337 338 337 338 328 324 323 324 322 323 338 339 336 334 338 326 333 323 328 335 338 339 339 337 336 335 334 332 331 330 328 324 320 321 318 317 314 314 317 316 315 313 308 308 309 309
346 340 336 341 338 338 335 331 329 331 335 333 335 324 326 337 340 339 339 338 337 336 332 327 326 330 336 339 337 336 336 335 334 333 331 330 328 326 319 315 306 307 314 315 315 313 312 305 305 306 307 307
342 342 342 341 342 341 334 337 336 340 340 340 340 338 339 336 338 336 338 338 337 337 328 330 324 329 332 336 334 335 336 335 335 333 332 331 329 327 324 311 315 310 305 305 308 308 305 304 305 305 305 305
336 340 342 341 341 342 341 341 340 340 339 339 339 340 340 338 336 337 335 327 327 333 333 326 323 326 327 330 330 330 331 332 334 333 333 331 330 327 320 318 316 313 310 307 305 304 302 302 304 303 304 304
335 336 336 338 340 340 338 338 339 338 339 338 339 338 337 337 337 338 336 334 334 336 335 333 331 329 329 328 328 325 329 330 331 328 326 323 320 320 321 318 318 316 313 312 310 308 305 303 302 303 303 304
333 336 335 335 337 338 339 339 338 336 337 338 337 338 337 336 336 336 334 335 336 335 334 335 334 333 332 328 328 326 327 328 328 326 327 324 321 320 321 319 316 315 314 313 310 308 308 306 303 302 302 304
334 334 335 336 335 335 336 337 337 336 337 338 336 336 336 335 334 334 334 333 333 332 333 333 334 334 332 331 329 327 326 326 326 327 325 324 322 322 320 317 315 314 313 312 312 310 310 308 305 303 302 301
332 334 336 335 334 334 332 334 335 334 335 335 335 335 335 331 333 332 333 334 334 331 332 331 332 333 333 331 329 329 330 329 327 328 325 324 324 324 321 317 316 314 314 313 312 312 310 309 308 306 304 302
331 334 336 335 332 330 327 330 329 330 330 330 331 332 333 332 332 332 332 332 333 335 332 331 332 332 332 331 330 330 329 329 328 327 324 324 326 324 322 320 319 316 316 313 315 313 311 310 308 306 305 304
332 332 331 329 327 327 327 328 328 327 325 326 327 328 330 330 330 330 330 329 331 331 332 332 331 331 331 330 330 329 326 325 324 323 323 322 321 321 321 319 318 318 316 315 314 312 311 311 309 308 306 306
326 326 325 324 324 323 324 326 326 324 322 324 326 326 328 328 328 328 327 327 325 324 326 325 325 325 325 324 324 325 324 322 321 320 318 317 318 318 319 319 318 318 318 314 314 312 312 312 310 309 309 308
320 321 321 321 320 320 320 322 322 320 320 321 324 325 324 325 326 326 325 324 323 323 322 322 322 322 322 321 322 323 322 321 320 318 316 317 317 317 318 318 317 319 318 317 317 314 313 312 311 310 310 309
317 318 318 317 318 319 319 318 317 317 316 317 317 318 321 323 323 322 322 322 321 319 320 320 319 319 319 320 321 322 321 321 320 318 317 316 317 317 318 319 318 319 319 317 315 313 312 312 312 311 310 310
313 313 313 312 313 313 314 312 311 310 312 313 313 313 314 315 321 323 322 321 320 319 319 318 318 317 317 318 318 319 319 318 317 318 318 316 316 315 317 315 314 313 313 312 312 314 313 313 311 311 311 309
310 310 310 310 310 309 308 307 307 307 308 310 310 310 310 311 312 317 321 321 320 319 317 316 315 316 316 317 317 317 318 318 316 314 312 311 313 313 314 313 311 310 309 308 309 310 312 314 313 312 311 309
308 307 308 308 307 307 306 305 305 305 305 305 306 306 306 308 309 310 312 314 316 314 313 313 312 312 312 312 313 313 313 313 312 310 308 308 309 309 307 308 308 308 307 307 308 310 311 312 311 311 311 308
305 305 305 305 305 305 304 303 303 303 303 303 303 303 303 305 306 308 309 309 309 308 308 308 308 308 308 308 309 309 309 309 309 307 305 304 306 308 305 305 304 304 305 306 307 308 309 310 310 310 305 305
304 304 303 303 302 302 302 302 301 301 301 301 301 302 302 302 303 305 306 306 306 305 304 304 304 304 305 305 305 306 307 308 308 308 306 304 305 305 303 302 301 301 301 303 305 306 306 307 306 304 303 302
303 303 302 301 300 300 299 299 299 299 299 299 299 300 301 301 300 301 303 304 304 303 303 303 303 303 303 303 303 303 303 303 304 306 307 307 305 303 301 300 300 299 299 300 302 303 304 304 303 301 301 300
304 303 301 300 299 298 297 297 297 297 296 296 297 298 298 298 298 299 300 301 302 302 301 301 301 301 301 301 300 300 300 300 300 300 301 302 301 299 298 298 298 298 297 299 299 299 303 303 301 300 300 300
302 300 299 298 297 295 296 295 295 295 294 294 295 295 296 296 296 296 297 297 298 299 299 299 299 298 298 298 298 297 297 297 297 298 299 300 300 298 295 295 296 296 297 296 296 297 301 300 300 300 297 298
301 300 298 296 294 295 294 294 293 292 292 293 293 293 293 293 294 294 294 295 295 295 296 296 295 295 294 295 294 294 294 293 294 295 296 296 297 298 295 293 293 294 295 293 291 292 295 297 299 297 295 297
299 298 297 296 294 294 292 292 292 292 292 292 291 291 291 292 292 292 292 292 293 293 293 292 292 292 291 291 291 290 290 291 291 291 292 293 292 293 295 293 293 291 292 289 291 293 293 293 294 296 293 293
297 297 296 295 294 293 292 290 291 290 290 290 289 289 290 290 290 290 290 290 291 291 291 291 290 290 290 290 290 289 289 289 289 289 290 290 290 291 288 290 291 291 290 290 290 287 289 291 290 287 287 289
295 295 294 294 293 293 292 291 289 288 287 288 288 288 288 288 289 289 289 290 290 290 289 290 289 289 289 289 289 288 288 288 288 288 288 288 288 288 287 286 286 288 289 288 290 289 286 286 286 285 286 288
295 294 293 292 291 290 288 287 286 285 285 285 286 286 287 288 289 289 289 289 289 289 289 289 289 288 287 287 288 288 288 287 287 288 288 288 287 287 287 287 285 285 287 287 288 288 287 289 286 284 286 284
296 294 294 293 291 289 287 286 285 286 286 286 286 287 287 287 288 288 288 288 288 288 288 288 288 287 287 287 287 287 287 287 286 287 287 288 287 286 287 286 284 284 284 284 286 287 286 286 285 285 285 282

ECMWFFLT2_sfc_thetae_051.txt.gz
Theta_e
343 345 347 347 347 347 347 347 347 347 346 346 346 346 347 346 345 344 344 344 343 343 342 342 342 341 341 340 338 337 336 336 335 334 331 327 324 321 322 321 321 323 324 325 326 326 327 326 323 319 318 318
339 342 345 346 345 345 345 347 347 346 346 346 346 345 344 343 343 343 344 344 343 342 342 342 342 341 340 339 338 336 336 335 334 333 330 326 322 321 319 320 319 320 322 323 323 324 325 323 321 318 317 314
336 335 339 341 342 342 343 344 344 344 343 342 343 343 340 339 338 336 337 339 341 341 339 338 338 341 340 339 337 336 336 335 334 332 329 326 322 319 318 317 317 318 319 321 321 324 321 317 315 313 311 309
338 331 332 336 338 339 341 342 342 341 339 336 336 336 334 330 330 329 332 329 333 333 337 335 333 337 338 338 337 336 336 334 334 332 330 326 323 320 317 317 317 317 318 319 321 321 319 314 311 305 304 303
339 335 330 332 330 333 337 338 337 337 328 325 324 325 322 325 335 335 332 332 332 325 331 325 327 335 338 338 337 336 335 335 333 332 331 328 324 322 320 320 317 317 318 319 319 317 314 310 304 304 303 302
342 336 335 336 335 336 335 331 327 329 332 331 331 320 325 335 336 336 333 334 332 332 327 325 324 330 336 338 335 336 335 334 333 332 331 329 325 321 321 313 302 304 311 314 315 313 310 303 302 303 302 300
340 339 338 337 337 338 332 332 334 336 333 336 334 333 333 334 336 336 334 334 332 332 324 327 324 329 333 335 333 334 336 334 333 333 332 330 328 323 320 308 309 304 303 303 309 306 302 300 300 301 302 300
339 339 339 338 338 338 338 336 336 337 337 336 335 337 336 336 334 334 335 330 326 330 330 326 324 327 329 330 329 329 331 332 333 334 332 331 329 322 316 312 310 307 306 304 305 304 299 298 300 301 300 300
329 337 340 339 338 338 337 337 335 333 337 338 337 335 335 334 334 333 332 332 332 333 331 331 330 328 330 328 325 324 328 330 327 324 320 318 316 314 314 314 313 312 310 308 307 307 304 301 300 300 301 300
328 334 336 337 338 337 335 335 336 337 335 335 336 335 333 334 334 332 332 332 332 332 332 333 332 330 331 328 325 325 328 327 324 322 320 318 316 315 315 314 312 310 310 309 308 308 307 304 300 300 298 300
328 331 332 332 334 335 335 336 335 334 334 334 334 334 332 332 331 331 331 330 330 330 332 332 333 332 331 329 326 325 326 324 322 325 322 320 317 317 315 313 311 310 309 308 309 309 308 305 304 302 300 299
329 332 331 329 328 330 329 331 330 329 329 330 330 330 330 329 329 328 329 330 330 330 329 330 329 330 329 329 328 326 326 326 324 325 322 322 321 320 316 313 310 310 310 309 309 309 308 307 305 303 301 302
330 329 328 327 327 327 325 327 326 326 326 327 328 328 327 326 326 326 328 328 329 329 328 328 329 330 329 329 328 328 326 327 325 323 321 322 321 319 318 316 314 311 310 311 311 310 309 308 305 304 304 305
326 325 325 325 324 324 324 324 324 325 324 325 325 325 325 325 325 324 324 324 325 325 324 325 325 324 325 325 325 325 323 322 321 320 319 319 319 318 317 316 317 315 311 311 310 310 310 308 307 306 305 305
322 322 321 321 321 321 321 322 323 322 322 323 324 324 324 324 323 323 323 323 323 322 322 321 321 321 322 322 322 322 320 318 318 318 318 318 318 318 318 318 318 317 315 313 313 310 310 308 309 309 308 306
320 320 320 319 319 318 318 318 317 316 316 314 315 320 323 323 323 321 321 321 321 320 319 319 319 320 320 320 321 321 320 318 317 317 317 317 317 316 317 317 316 317 316 314 312 310 311 308 310 309 308 308
317 316 316 315 314 313 314 313 314 313 312 311 311 311 313 320 321 320 319 319 319 318 318 318 317 317 317 318 319 319 319 318 316 316 316 315 314 313 313 312 311 313 311 309 309 310 311 309 311 312 310 308
312 311 311 310 309 309 309 308 307 307 308 308 309 309 310 311 316 320 319 317 316 315 315 314 315 314 314 315 316 316 316 314 313 312 312 312 310 309 309 308 308 308 307 307 309 310 311 312 312 312 308 306
309 309 308 308 307 306 306 306 305 304 304 305 306 308 308 310 311 312 313 314 313 312 310 309 310 311 312 313 313 312 313 311 309 309 308 308 306 305 305 305 305 305 305 307 308 309 311 311 310 308 305 304
307 307 306 306 306 305 304 304 303 303 303 303 304 306 307 308 308 308 308 309 309 308 308 307 307 307 309 309 309 309 308 307 305 305 304 304 303 301 300 301 300 301 301 303 306 308 309 309 306 304 303 303
305 305 304 304 303 303 302 301 301 301 301 302 302 302 304 306 306 306 306 306 306 305 305 304 303 304 304 304 305 305 305 306 305 303 301 299 299 299 298 297 297 297 297 299 302 304 306 304 302 301 301 301
303 303 302 301 301 300 299 298 298 298 298 298 299 300 300 302 303 304 305 304 303 302 301 301 300 300 300 301 300 300 300 300 302 303 299 297 297 296 295 294 294 294 296 298 299 301 301 299 299 298 299 299
302 301 300 300 299 298 297 296 295 296 296 296 296 297 297 298 299 300 301 300 300 299 299 298 298 297 297 298 298 297 297 297 298 299 296 294 292 293 292 291 292 293 295 297 300 301 298 298 297 298 298 298
301 300 299 297 296 295 294 293 293 293 293 294 294 295 295 295 296 297 297 298 297 296 296 295 295 294 294 294 294 294 293 293 294 296 296 293 290 289 289 290 290 291 294 297 299 298 296 295 296 297 297 297
300 298 296 295 294 292 292 292 292 292 292 292 292 293 294 293 294 294 294 294 294 293 293 291 291 291 291 291 291 291 290 291 291 292 294 294 292 289 288 288 288 289 292 296 296 296 295 294 293 294 295 294
300 298 296 294 293 292 291 291 290 289 290 290 291 291 291 291 291 292 292 291 291 290 290 289 289 289 289 289 289 289 289 289 290 289 290 291 291 290 288 286 287 288 288 287 289 292 293 294 293 291 292 292
297 296 295 293 291 291 289 290 289 289 289 289 289 289 289 289 290 290 289 290 290 289 289 288 288 287 288 287 288 288 287 287 287 287 287 288 287 286 287 286 287 286 287 285 287 290 290 287 291 292 288 289
296 295 294 292 291 290 289 288 288 288 288 288 288 287 288 288 288 288 288 288 288 288 287 287 287 287 287 287 287 287 286 286 286 286 286 286 287 285 283 283 284 286 286 286 285 282 287 287 284 280 283 286
295 293 291 290 289 289 288 287 286 286 286 286 287 287 286 286 287 288 287 287 287 287 287 287 287 286 286 286 286 286 286 285 285 285 285 285 285 285 282 282 282 283 285 285 286 286 282 281 281 281 283 283
293 292 290 289 287 286 285 284 284 284 284 284 285 285 285 286 286 287 287 287 287 287 287 286 286 286 286 285 286 286 285 285 286 285 285 285 285 285 284 283 282 281 283 285 285 284 284 285 281 279 281 280
293 291 290 289 288 287 285 284 283 284 284 285 284 285 285 285 286 286 286 286 286 286 286 286 286 286 286 285 285 286 285 285 284 285 285 285 285 284 286 284 282 281 282 281 284 284 283 283 282 283 280 278

ECMWFFLT2_sfc_thetae_054.txt.gz
Theta_e
342 344 347 347 347 347 348 348 347 346 346 347 346 346 346 345 345 344 344 343 342 342 342 342 340 340 339 338 337 336 335 334 331 326 324 322 322 322 324 325 325 326 325 325 325 325 325 323 322 319 317 315
339 342 344 345 344 344 345 346 347 346 346 346 346 344 344 342 342 343 344 343 342 342 341 341 340 339 337 337 336 336 335 333 330 326 322 320 320 320 321 323 323 323 323 323 323 322 320 319 317 315 313 308
336 335 340 341 341 341 343 345 344 344 343 342 343 342 340 338 337 336 337 339 340 341 338 338 338 339 338 337 336 335 334 332 329 326 323 321 319 319 320 321 322 322 322 322 321 320 317 314 312 310 303 300
339 332 332 337 337 338 340 341 341 341 338 336 335 335 333 330 331 330 332 329 333 333 337 335 334 337 337 337 336 335 334 333 330 328 326 323 320 319 319 319 319 320 320 321 320 318 316 312 307 299 297 298
338 334 329 331 331 333 337 337 337 337 329 326 324 327 323 325 333 334 332 333 333 326 331 326 329 335 337 337 336 335 334 333 331 329 327 325 322 320 319 317 316 317 320 320 318 315 312 307 300 297 296 297
339 335 334 337 336 336 334 331 327 330 333 330 331 322 327 334 333 334 333 332 331 330 328 324 325 330 335 337 335 335 334 333 332 330 328 326 324 323 321 316 304 304 311 314 315 311 307 301 299 298 296 296
339 337 337 336 337 336 331 331 333 335 332 334 332 331 333 333 335 335 333 332 330 330 323 326 324 329 332 334 332 334 335 333 333 332 331 329 327 324 319 309 305 303 303 303 307 304 300 298 299 298 297 296
339 339 337 336 337 337 336 333 333 333 334 334 333 333 335 336 335 335 334 328 324 328 328 325 324 327 328 329 328 329 330 331 333 333 331 328 324 319 313 310 307 307 306 304 304 301 298 298 299 299 297 295
338 339 337 336 336 336 335 334 335 334 334 334 334 334 336 336 335 334 334 331 330 331 330 330 330 329 330 327 323 324 325 325 321 320 317 317 314 312 312 310 309 309 308 307 306 303 300 299 299 299 299 296
330 337 338 336 336 337 336 336 335 334 334 334 335 334 332 331 330 331 330 332 332 330 331 331 330 330 330 325 323 326 327 323 319 318 318 316 314 312 312 310 309 307 309 309 307 305 303 301 299 299 298 298
324 334 336 338 337 337 336 336 334 333 333 333 333 333 330 330 329 329 329 330 331 330 332 332 331 331 330 328 326 324 326 321 318 321 319 316 314 312 311 310 309 308 307 308 308 306 304 303 302 301 299 299
328 330 333 333 333 334 330 331 330 330 330 330 330 329 329 328 329 330 329 329 330 330 331 331 331 330 330 328 326 325 325 323 320 320 319 318 316 314 313 312 310 309 309 308 308 307 306 304 303 303 302 301
328 330 330 330 330 328 326 327 327 327 328 327 327 326 326 327 327 329 329 328 328 329 329 329 328 328 328 327 325 326 325 325 323 321 319 318 316 316 315 313 311 309 309 310 309 308 307 306 305 304 303 302
326 327 327 326 326 325 325 325 325 325 324 325 325 324 324 324 325 325 326 325 325 325 324 324 324 323 324 324 323 324 323 322 321 319 319 318 317 317 316 315 313 312 312 310 309 308 308 307 306 304 303 301
323 324 323 323 323 323 322 321 319 318 319 320 323 323 322 321 321 323 323 323 322 322 322 321 321 321 321 321 320 320 319 319 318 318 318 318 317 317 315 314 315 314 311 310 311 309 308 307 306 305 303 302
321 320 319 319 318 317 317 316 315 314 314 313 316 320 321 320 321 321 321 321 320 320 319 319 318 319 319 319 319 319 318 317 317 316 315 314 314 313 312 311 312 311 311 311 311 311 310 308 307 305 303 302
316 315 314 313 313 313 314 313 313 312 311 311 313 315 319 319 319 319 319 318 318 317 317 316 316 315 315 316 316 316 315 315 314 312 310 309 309 308 307 307 308 309 309 310 310 311 311 309 305 303 302 302
312 311 310 310 310 309 309 309 309 309 310 310 310 312 313 316 316 316 315 315 314 314 314 313 313 313 313 314 313 312 311 309 308 307 306 305 304 303 303 303 304 306 307 308 310 310 309 306 303 302 301 300
309 309 309 308 308 307 307 306 306 307 308 309 309 309 308 310 311 312 313 313 312 311 311 310 310 309 309 309 308 307 306 304 303 302 301 302 301 299 299 299 300 303 304 306 307 307 306 303 302 301 300 299
308 307 307 306 306 305 305 304 304 304 305 306 308 308 307 307 307 308 309 309 309 307 307 307 306 307 308 307 306 305 303 301 299 298 297 297 298 296 295 297 298 299 301 304 304 304 302 301 300 298 297 295
306 306 304 303 303 302 302 301 301 302 303 304 305 305 306 306 306 306 306 306 305 304 302 302 302 303 304 304 303 302 300 298 297 295 294 292 293 294 293 294 295 297 298 300 300 299 299 299 297 295 293 292
303 302 301 301 300 299 298 298 298 299 300 301 302 303 303 304 304 303 303 303 302 301 300 300 300 300 301 300 299 297 296 294 293 292 291 290 290 290 290 291 293 296 297 297 296 296 296 296 295 294 293 291
301 300 299 298 298 297 296 296 296 297 297 298 299 300 301 301 301 301 301 300 300 299 297 296 296 296 296 297 296 295 294 293 291 290 289 288 287 288 287 288 290 294 296 295 295 295 295 295 294 294 294 292
300 299 297 296 296 295 294 294 294 294 294 296 297 297 298 298 298 297 297 296 296 295 294 293 293 293 293 293 294 293 292 291 291 289 288 287 286 287 288 288 288 291 294 293 292 292 292 292 292 292 292 292
299 297 296 296 294 293 292 292 292 291 291 293 294 294 295 294 293 293 292 292 293 292 292 291 291 291 290 290 291 290 289 289 289 290 288 287 287 286 287 286 286 286 290 293 291 290 289 289 290 290 289 289
301 300 298 295 293 292 291 290 290 289 289 290 292 291 290 290 290 290 290 290 290 290 290 289 289 289 288 289 288 288 287 287 288 287 286 286 285 285 285 283 284 286 288 289 288 288 287 288 289 288 287 287
298 296 295 294 292 291 288 288 288 288 288 289 288 288 288 289 289 289 288 288 288 288 288 288 287 287 287 287 288 287 286 285 285 285 285 284 284 283 284 284 285 284 285 286 285 287 288 286 284 288 285 286
295 293 292 291 291 290 288 287 288 287 287 288 287 287 287 287 287 287 287 287 287 287 286 286 286 286 286 286 286 286 285 284 284 284 284 284 284 284 282 281 282 284 284 284 286 288 285 284 283 282 280 282
293 291 289 289 289 289 287 287 287 286 286 286 287 286 286 285 285 286 286 286 286 286 285 285 285 285 285 285 285 286 285 284 284 284 284 284 283 283 282 281 280 283 284 283 284 284 280 279 278 280 278 278
292 290 288 288 287 286 286 285 285 285 285 285 284 284 284 285 284 285 285 285 285 285 285 285 285 285 285 285 285 286 285 285 285 284 284 284 283 282 282 282 281 280 283 283 283 283 283 281 278 278 278 277
292 291 290 290 289 288 287 285 283 283 284 284 284 284 284 283 284 284 284 284 284 284 285 285 285 285 285 285 285 285 285 284 284 284 284 284 283 283 284 282 280 280 280 280 282 282 282 282 281 279 276 277

ECMWFFLT2_sfc_thetae_057.txt.gz
Theta_e
341 344 346 346 347 347 346 347 347 346 345 345 346 345 345 345 344 343 343 342 342 342 341 340 339 338 337 336 335 332 327 325 324 324 326 326 326 325 326 326 326 326 325 323 320 319 318 317 315 314 312 310
338 341 344 345 344 344 345 346 347 346 346 345 344 344 343 342 342 343 343 343 342 342 341 339 338 338 337 335 334 330 324 322 323 323 324 324 324 324 324 323 323 323 321 318 317 315 314 313 313 311 309 306
338 335 339 341 341 341 342 343 343 344 342 341 342 341 339 337 336 335 336 338 340 340 338 337 337 337 336 335 334 330 329 325 323 322 322 322 322 322 322 322 321 321 320 319 317 314 311 308 307 306 302 302
339 334 333 335 336 338 340 341 341 340 338 336 335 335 333 329 331 330 332 329 332 333 337 334 332 336 336 335 334 332 329 328 325 322 321 320 321 320 321 322 322 321 320 319 318 314 311 307 303 295 295 297
339 336 330 331 330 333 336 337 337 337 330 326 324 326 323 325 334 334 331 331 330 326 331 326 328 334 336 335 334 332 330 329 327 324 323 322 321 319 319 317 317 319 320 319 317 312 308 304 296 295 295 296
338 335 333 337 335 334 334 331 328 330 334 331 333 323 327 334 332 333 333 333 331 329 328 327 325 329 334 336 334 333 331 330 328 327 326 324 322 321 318 312 302 304 311 313 313 310 306 297 296 295 296 297
338 336 337 337 337 336 331 331 333 334 332 334 332 330 333 332 334 334 333 331 329 329 323 326 323 328 331 333 331 333 333 332 331 330 329 326 323 320 315 306 304 302 300 300 305 303 299 297 296 296 297 298
338 337 337 337 337 337 336 334 334 335 334 333 332 333 334 334 333 333 333 327 323 327 328 325 322 326 327 328 327 326 327 329 329 328 325 323 319 314 309 307 305 304 302 300 299 299 298 298 297 297 297 299
337 338 336 336 336 336 334 333 333 331 333 333 333 334 334 335 334 334 332 330 329 329 329 329 330 328 325 323 322 322 321 320 318 316 313 312 311 309 309 308 307 306 305 303 301 299 299 299 298 298 298 299
336 337 336 335 336 335 335 334 334 333 334 334 334 334 335 335 333 333 331 330 330 329 330 331 330 328 325 323 323 322 323 319 316 315 313 312 310 309 308 308 307 307 306 304 303 302 301 300 299 299 299 300
328 335 337 336 336 335 334 335 334 333 334 334 334 333 332 332 330 330 329 329 329 329 331 331 330 329 326 325 324 321 323 320 318 317 315 313 311 309 309 309 308 307 306 305 304 303 302 302 301 301 300 300
329 334 337 337 331 335 332 332 332 331 331 331 330 330 330 329 331 330 329 328 328 327 331 331 331 330 329 325 323 324 324 322 320 320 318 316 314 313 311 310 309 308 308 306 305 304 302 301 300 300 299 300
330 333 333 333 332 332 328 329 328 328 328 327 326 327 327 327 329 329 330 328 327 327 327 328 328 329 328 326 325 325 324 323 321 319 318 316 315 315 314 312 310 309 308 307 306 304 302 301 299 299 298 298
330 330 329 328 328 327 324 326 326 325 324 325 325 324 325 325 325 327 327 326 326 325 324 324 323 323 325 324 323 323 321 321 320 318 317 316 314 315 315 313 311 312 311 310 308 305 302 300 300 299 299 300
328 327 325 324 324 325 323 322 322 322 323 323 323 323 323 324 323 324 324 324 323 323 322 321 321 319 320 320 320 320 319 319 318 318 317 316 315 315 314 313 312 312 311 310 308 305 303 301 301 301 300 300
324 323 322 320 320 319 319 319 319 318 319 318 320 321 322 322 323 322 322 322 321 321 320 319 318 318 318 317 318 318 317 316 315 313 312 311 311 311 311 310 311 311 311 309 307 304 302 302 301 300 300 298
319 318 317 317 316 317 317 317 317 316 316 318 318 319 320 320 321 321 320 320 319 317 318 317 316 315 315 315 315 314 313 312 310 308 307 306 307 307 309 309 310 311 310 308 305 302 301 301 300 299 298 297
314 313 313 313 312 313 314 314 314 313 313 313 314 315 316 317 317 318 318 317 317 316 316 315 314 313 312 312 311 311 309 308 307 305 304 303 304 304 306 306 308 308 305 304 303 301 301 299 297 296 295 294
311 311 311 310 309 309 310 311 311 311 311 311 311 311 311 313 314 315 315 315 315 314 314 312 310 309 309 307 306 304 303 303 302 303 302 302 302 301 302 303 305 306 304 302 301 300 298 296 295 294 292 292
310 310 309 309 307 307 307 308 309 309 310 309 309 309 310 310 311 312 312 312 312 311 310 309 307 307 305 303 301 300 300 299 298 298 297 297 301 301 300 302 302 303 301 301 299 297 295 294 293 292 291 290
307 307 306 306 305 304 304 305 306 306 307 307 307 307 307 307 308 308 308 308 308 308 307 306 305 306 303 300 298 297 296 295 296 295 294 292 294 299 298 299 298 298 298 296 294 293 292 291 290 288 287 286
305 303 303 302 302 302 301 301 302 303 304 304 304 305 304 305 305 305 305 304 304 303 303 302 301 300 298 297 295 294 293 291 291 290 292 290 290 294 297 296 296 295 294 293 292 292 291 290 289 287 287 286
301 301 300 301 300 299 299 299 299 301 301 301 301 302 302 302 302 302 302 302 302 301 300 299 298 297 297 295 293 291 290 289 289 289 290 291 290 291 292 294 294 294 293 293 292 291 291 290 289 289 288 286
300 300 300 298 298 298 297 297 296 296 297 299 299 299 300 300 300 300 299 300 299 299 297 297 296 295 295 294 292 290 289 288 288 289 290 291 292 291 290 290 291 292 291 289 289 289 288 288 288 288 288 286
301 300 299 300 299 296 295 294 294 294 294 295 296 296 297 296 296 297 297 297 297 296 295 294 293 293 292 291 290 289 288 287 286 287 289 289 291 292 290 287 286 287 289 289 286 287 286 286 286 288 286 286
302 302 301 299 295 293 293 294 294 292 292 293 293 293 293 293 294 294 294 294 294 294 293 291 290 289 288 288 288 287 287 286 288 286 287 288 286 284 286 283 283 284 288 288 284 284 284 285 286 286 284 284
300 298 296 296 294 293 289 289 290 291 291 291 290 290 291 291 291 292 292 292 292 291 290 289 288 287 287 286 287 285 284 284 284 283 284 286 287 284 283 283 284 283 285 286 285 284 285 283 281 285 282 283
295 294 293 292 290 289 289 288 290 289 290 289 289 289 289 289 290 290 289 289 289 288 288 287 287 286 285 285 284 285 284 283 283 283 283 284 285 286 283 280 282 283 283 285 288 287 284 283 281 283 281 280
293 291 290 290 289 289 289 289 289 289 288 288 288 288 287 287 287 287 287 286 286 287 286 285 285 285 284 284 283 284 284 283 283 282 282 282 283 283 283 280 279 282 283 282 283 286 279 279 281 281 279 277
292 291 291 291 291 290 288 287 288 288 287 286 286 285 285 285 285 285 285 285 285 285 285 285 284 284 284 284 284 284 284 283 282 282 282 282 282 281 282 282 280 280 282 282 282 281 280 280 278 277 278 277
293 292 293 294 294 292 291 289 288 287 287 286 284 284 283 283 283 283 284 283 284 284 284 284 283 284 284 283 283 284 283 283 282 283 282 282 282 282 283 282 280 280 281 280 282 281 280 280 278 276 277 278

ECMWFFLT2_sfc_thetae_060.txt.gz
Theta_e
338 341 345 346 346 346 346 346 346 346 345 345 345 345 344 344 343 343 342 342 342 340 339 338 337 335 332 327 326 327 329 330 330 329 329 328 327 326 322 319 319 320 322 322 321 320 319 318 317 315 314 312
338 340 342 344 343 343 343 345 345 345 345 345 344 344 343 341 341 342 343 342 341 340 339 338 336 334 331 327 325 326 327 327 326 326 326 325 325 324 321 318 318 319 318 317 316 314 314 313 312 312 312 309
338 335 338 340 340 341 341 344 343 343 342 341 342 341 339 337 336 335 336 338 339 339 336 336 335 334 332 331 328 325 325 324 323 324 325 325 324 323 321 320 320 320 319 317 315 313 310 308 308 307 306 306
339 333 332 336 336 336 340 341 341 340 338 335 335 334 332 330 330 328 329 328 332 332 335 332 332 334 332 331 330 327 325 324 323 322 322 323 324 324 323 322 321 319 318 316 313 311 309 307 305 300 303 306
340 336 329 331 330 332 336 337 336 337 330 325 324 325 322 326 333 332 331 330 330 324 328 325 328 333 333 331 330 327 326 325 323 322 321 321 321 319 318 315 316 317 316 314 312 309 307 304 300 301 304 307
340 336 334 338 335 334 333 331 328 331 334 331 331 322 329 334 332 333 333 331 330 328 326 326 325 329 333 332 332 330 329 326 324 323 322 322 320 318 314 309 300 303 309 310 309 307 305 300 300 302 305 307
337 337 337 337 336 335 331 332 334 335 333 334 332 332 334 332 333 333 332 330 329 328 321 325 324 328 330 331 330 332 331 328 325 324 323 321 319 316 311 302 300 299 299 300 304 303 300 300 301 303 305 306
337 337 337 337 337 337 335 334 334 335 334 333 332 333 334 334 333 333 331 325 323 327 327 325 323 324 325 326 325 324 322 322 323 322 321 319 315 311 306 303 302 300 299 299 299 299 299 300 301 302 303 305
337 337 337 337 337 336 335 334 334 333 333 332 333 334 334 334 332 332 330 329 329 330 329 329 328 327 327 325 321 320 318 315 313 311 309 309 309 306 306 304 303 302 301 300 300 300 300 300 300 301 302 303
336 337 336 336 336 335 334 334 333 333 333 333 333 334 334 333 333 332 330 329 329 329 330 329 328 327 326 325 322 320 319 315 312 311 310 309 308 307 306 305 304 303 302 301 301 300 300 299 299 299 299 299
328 335 337 336 336 335 334 334 333 333 333 333 333 334 333 332 332 331 330 329 329 329 331 330 329 327 326 326 322 319 319 316 315 314 312 310 308 307 307 306 305 303 302 301 300 300 299 299 298 297 295 295
328 333 336 336 334 335 332 333 333 333 333 333 333 332 332 331 331 330 329 328 329 330 331 330 329 328 326 325 324 323 320 317 317 315 314 312 309 309 308 306 305 303 302 301 300 299 298 298 297 296 294 292
329 333 335 334 334 334 330 333 332 331 330 329 328 330 331 329 330 329 328 326 327 328 330 330 329 328 326 325 325 323 321 319 317 316 315 314 312 310 308 307 306 304 303 302 300 300 299 298 297 295 293 292
329 332 331 332 333 331 327 330 329 329 328 327 327 326 328 328 330 330 328 326 325 325 326 327 325 326 325 324 324 322 320 319 318 317 316 315 314 312 310 309 307 305 303 302 301 300 299 298 296 294 292 291
329 328 327 326 328 328 328 326 326 326 326 325 325 325 325 326 326 326 326 326 325 324 323 323 322 321 321 321 321 320 319 319 318 317 316 315 314 312 311 309 307 304 302 301 301 301 298 296 295 293 292 291
327 325 323 323 324 323 323 325 324 323 323 321 322 324 324 322 323 324 325 325 324 323 321 320 319 319 319 318 319 319 318 316 315 314 313 313 313 312 311 309 306 304 302 301 300 299 297 296 295 294 292 291
322 321 320 320 320 319 319 320 320 320 320 320 320 322 321 322 322 322 323 322 321 319 319 318 317 317 316 316 316 315 313 312 311 311 310 309 311 311 310 307 305 303 301 300 299 297 296 295 293 292 290 289
319 318 316 316 315 316 317 317 317 317 318 317 317 318 320 320 320 320 319 320 319 319 317 316 316 314 313 313 312 312 311 310 310 309 308 308 309 309 306 304 302 301 299 297 296 294 294 293 292 291 290 289
314 314 313 313 313 314 315 315 315 315 315 315 315 316 316 317 317 318 318 318 317 316 316 314 313 311 310 309 309 308 309 308 308 308 307 308 307 307 304 303 301 300 297 295 294 293 293 292 291 290 288 287
313 312 311 311 310 311 312 313 314 314 312 312 313 314 314 314 315 316 316 316 316 313 312 311 309 307 306 306 305 305 305 306 305 304 303 304 306 303 302 301 299 298 295 294 292 292 291 289 288 286 285 285
311 310 309 308 308 309 310 311 311 312 311 310 309 309 309 310 311 311 312 312 312 311 309 308 306 304 302 302 303 302 302 302 301 301 300 299 301 303 300 298 295 293 292 291 290 289 287 287 286 284 284 284
307 306 306 305 305 306 307 307 307 307 308 308 307 308 307 307 307 308 308 308 308 308 306 304 302 300 299 297 297 296 295 294 296 298 300 297 297 298 297 295 292 291 291 290 289 287 286 286 285 284 283 284
304 304 303 305 304 302 301 301 303 304 304 305 305 305 306 306 306 305 306 306 306 304 302 300 299 298 298 296 295 293 293 293 296 297 297 296 294 294 294 293 291 290 290 289 288 287 286 286 285 284 284 283
303 303 303 302 302 302 300 300 300 300 300 301 302 302 303 303 304 304 304 304 303 302 300 298 297 295 294 294 294 294 294 295 296 295 294 294 293 292 291 291 291 289 288 287 286 286 285 285 285 284 284 282
304 303 302 303 303 300 299 298 299 298 298 298 298 300 301 301 301 301 301 301 300 299 297 296 294 294 293 293 294 294 293 294 294 294 294 293 293 291 289 288 287 287 287 286 283 284 284 284 284 285 283 282
305 305 305 303 299 296 297 298 298 295 295 295 296 296 297 298 299 299 299 298 297 296 295 293 293 292 292 291 290 289 289 290 292 292 292 292 289 287 289 286 284 285 286 285 283 282 282 283 284 284 282 282
303 301 300 299 296 295 291 292 293 293 292 293 293 294 294 295 296 297 296 296 295 294 293 292 291 290 290 289 290 289 288 289 290 291 292 292 291 286 283 283 283 282 283 283 282 283 282 280 280 284 282 281
297 295 294 293 293 292 292 290 291 292 293 293 293 291 291 292 293 294 294 294 293 292 291 291 289 288 288 287 288 289 288 288 288 288 289 290 290 289 287 281 281 283 282 285 286 284 283 281 280 281 279 279
294 293 292 291 291 291 291 291 291 291 290 290 290 290 291 289 291 292 292 292 291 291 290 288 287 286 285 285 285 287 288 287 287 287 288 289 290 291 290 281 279 282 282 281 282 285 281 282 283 280 279 278
294 295 294 292 293 292 292 291 291 292 290 289 291 289 287 288 289 289 289 290 290 289 288 286 285 284 284 284 284 286 286 284 283 284 285 286 288 286 286 286 280 280 281 281 281 280 279 281 282 279 278 278
295 294 295 296 297 296 295 294 293 290 290 289 288 287 287 287 287 288 288 287 288 287 286 284 284 284 283 283 283 284 283 283 283 282 282 282 283 284 285 285 283 282 280 279 281 280 278 279 278 278 278 278

ECMWFFLT2_sfc_thetae_063.txt.gz
Theta_e
339 343 346 345 347 346 346 346 347 346 346 345 344 344 343 344 343 342 341 341 339 337 334 330 328 329 331 331 331 331 331 331 330 327 324 322 323 324 326 327 327 326 325 324 323 323 322 321 319 318 319 323
335 340 343 344 343 344 344 345 346 345 346 345 344 343 342 340 341 341 341 340 339 336 334 331 328 328 329 328 328 329 330 329 328 325 323 321 322 323 323 323 323 323 323 323 321 320 319 319 318 318 318 322
340 332 338 340 340 340 342 343 343 343 342 341 341 340 338 336 335 334 335 336 336 336 333 332 330 327 327 326 326 326 327 329 328 326 324 323 323 323 321 321 321 322 321 321 320 319 317 315 315 315 319 321
342 334 332 336 336 337 339 340 341 339 337 335 334 333 331 329 331 330 331 327 333 331 333 330 329 330 328 328 327 326 325 325 326 326 325 324 324 323 322 321 321 320 320 319 318 317 315 314 314 318 320 321
342 340 331 332 330 333 335 337 336 336 327 325 324 325 323 326 336 336 336 336 335 326 333 325 326 329 329 328 326 324 323 322 322 323 322 321 320 318 317 316 316 317 318 317 316 314 313 312 315 317 318 320
341 339 337 342 340 339 335 330 328 333 336 330 333 323 332 336 335 336 335 334 331 334 332 329 324 327 330 328 327 325 323 322 322 322 321 320 318 316 312 309 308 309 311 312 312 311 311 313 314 315 316 317
341 339 341 340 339 338 332 334 336 337 334 335 335 337 336 334 335 334 333 333 330 330 324 329 324 327 329 330 327 325 323 322 322 321 321 319 316 313 309 307 307 307 308 308 308 308 310 311 311 313 314 315
340 340 341 341 340 339 338 338 337 337 335 335 336 336 336 336 335 334 332 325 323 327 331 328 322 323 323 323 321 320 321 322 322 320 318 315 313 310 308 307 307 307 307 307 308 308 307 307 308 309 310 311
339 340 339 340 340 338 337 337 337 336 336 335 336 336 336 336 334 333 331 330 331 332 331 332 331 330 327 324 321 316 317 316 314 313 312 311 310 309 309 308 307 307 306 306 305 304 303 303 303 304 305 307
336 338 339 338 338 337 336 337 336 335 334 334 336 336 335 334 333 332 331 331 332 331 332 331 330 329 325 323 321 319 317 316 315 313 312 311 310 309 308 307 306 306 305 303 302 301 300 299 299 299 300 302
333 338 339 340 338 336 335 335 334 334 334 334 335 336 334 334 333 332 332 332 332 331 333 330 330 328 325 322 321 319 317 316 315 313 312 310 309 308 307 306 305 304 303 302 300 299 298 297 296 296 296 298
331 337 338 338 335 336 333 334 334 334 334 334 335 335 334 334 334 332 331 331 332 332 332 330 330 329 326 323 321 320 318 316 315 313 312 311 310 308 306 305 304 303 302 301 300 299 298 297 295 295 295 295
331 334 337 337 336 337 329 335 334 334 334 333 334 334 333 334 333 332 331 330 331 332 331 330 329 328 326 325 323 320 319 317 315 313 311 310 309 308 306 305 304 303 302 300 299 297 297 296 295 295 294 294
329 332 335 336 336 338 332 335 334 333 332 332 333 333 334 334 333 332 331 330 331 332 330 330 329 328 326 324 323 321 318 319 316 314 311 309 308 307 306 304 304 302 300 298 298 297 296 295 294 294 294 293
329 332 333 334 333 333 334 334 333 331 331 331 331 331 332 334 334 332 331 330 329 329 329 329 328 327 326 324 322 322 320 320 317 315 312 310 308 307 305 304 303 301 298 297 296 296 295 295 294 294 293 293
329 331 331 329 329 329 331 331 332 332 330 328 330 328 329 332 333 332 331 329 327 327 327 325 325 324 324 323 323 322 321 320 318 316 315 312 309 307 305 304 302 301 298 296 296 296 294 294 294 293 293 292
329 330 328 326 326 325 326 329 328 327 326 326 327 328 328 328 330 330 329 328 327 325 326 325 322 322 322 321 321 319 318 316 315 314 313 309 308 305 304 303 301 300 297 295 295 294 294 294 293 293 292 292
327 326 326 324 325 323 323 324 327 326 325 323 324 326 328 327 328 328 328 327 325 324 322 322 320 318 318 318 318 316 315 314 314 312 311 307 305 304 302 299 298 296 295 295 295 294 294 293 292 292 291 291
324 321 320 321 321 321 321 321 321 322 323 323 323 326 326 326 324 326 326 326 325 323 321 319 318 316 315 315 315 314 314 313 313 312 309 307 304 304 300 298 296 295 294 294 293 293 292 291 291 291 290 290
321 320 319 319 317 318 318 319 319 320 322 322 323 323 322 323 322 322 323 325 324 322 320 317 315 315 313 312 312 312 312 312 311 310 308 306 304 300 298 296 294 295 293 292 291 291 290 290 290 290 289 289
316 315 315 315 316 316 317 317 317 316 316 318 319 321 321 321 320 320 319 319 322 322 319 316 312 311 311 310 310 310 310 310 310 308 306 305 303 301 296 295 293 292 290 290 289 289 289 289 289 289 289 289
314 312 311 312 312 311 313 312 313 313 313 313 314 315 317 317 316 316 316 315 315 317 318 315 310 308 308 307 308 307 306 306 308 307 304 301 301 298 295 293 292 290 289 290 289 289 288 288 288 287 288 288
310 309 309 309 310 310 308 308 309 310 310 311 312 310 310 311 311 311 313 313 312 310 309 308 305 304 304 304 303 304 303 304 305 303 302 300 297 297 295 293 292 291 290 290 289 288 288 288 287 287 287 287
309 310 308 306 306 306 305 305 306 305 306 307 309 309 310 310 309 309 309 309 309 307 306 304 302 301 301 301 302 302 302 302 302 301 300 299 295 293 293 293 291 291 290 289 288 288 287 288 288 287 287 286
310 310 307 307 308 307 305 304 303 303 302 302 304 306 308 309 308 307 307 306 306 305 303 303 300 300 300 301 301 303 303 303 302 301 300 296 295 292 290 290 291 291 291 289 287 288 288 287 288 287 286 285
310 312 311 310 307 302 301 301 303 302 301 300 301 303 305 307 307 306 305 304 304 303 303 300 299 299 299 299 300 301 302 301 299 298 295 294 292 293 291 289 291 292 293 289 287 285 286 287 289 290 287 286
311 306 305 305 302 301 295 296 298 298 298 299 300 300 301 303 304 304 303 302 301 301 300 300 299 298 298 298 297 298 299 299 297 296 295 295 293 291 292 291 292 291 292 290 289 289 286 284 285 287 286 288
302 299 299 299 298 296 296 295 296 297 297 296 296 296 297 299 301 302 301 300 299 298 298 298 298 296 296 296 298 299 298 297 296 296 296 296 295 293 289 290 290 290 289 290 289 288 290 286 288 284 284 284
298 296 296 294 295 296 295 295 295 297 296 296 295 294 296 296 298 299 298 298 297 296 296 296 295 295 295 295 297 298 297 297 296 296 296 296 294 293 292 290 290 289 289 292 289 293 288 287 287 288 286 285
298 298 296 297 299 299 299 296 295 298 296 294 295 297 293 293 295 296 296 295 295 295 294 293 293 294 294 294 295 297 298 297 297 296 295 295 296 295 295 293 290 289 287 287 287 287 290 295 294 288 285 286
299 300 302 303 305 306 304 303 300 300 298 298 295 292 292 291 292 294 294 292 292 292 292 292 291 292 293 294 295 295 296 295 295 295 296 296 296 296 295 295 293 290 288 286 286 286 286 287 287 291 285 285

ECMWFFLT2_sfc_thetae_066.txt.gz
Theta_e
341 343 345 346 347 347 347 347 347 346 345 344 344 343 343 342 341 338 335 332 332 333 333 333 334 333 334 333 332 329 328 328 330 331 331 331 330 331 330 330 330 329 329 328 327 326 326 325 325 323 324 328
336 341 343 344 344 345 345 345 346 346 345 344 344 343 341 340 340 338 335 333 331 331 331 331 330 331 332 332 330 327 325 325 327 328 329 329 329 329 329 329 329 328 327 326 325 324 324 325 324 324 324 328
343 332 339 339 341 342 343 344 343 344 342 341 341 340 338 335 333 332 333 333 333 331 330 329 329 329 331 331 329 327 325 325 326 327 327 327 328 328 328 327 327 326 326 325 324 324 323 321 321 321 325 327
344 335 331 336 336 339 341 341 341 340 337 334 333 333 331 329 332 329 330 325 330 328 330 327 326 328 328 330 329 328 326 327 326 326 326 327 327 327 326 326 325 324 324 323 322 322 322 320 320 327 327 326
345 343 329 332 330 332 336 338 336 335 327 324 324 328 325 328 337 334 333 331 331 324 330 323 324 327 326 327 327 327 326 326 325 324 325 325 325 323 322 319 319 320 321 321 320 320 319 318 326 326 326 328
346 345 338 345 343 343 338 331 328 336 341 333 338 324 335 341 338 337 336 333 329 329 329 327 322 324 325 324 325 324 324 324 323 322 323 322 321 320 318 318 320 318 315 316 317 317 316 323 324 325 325 325
346 345 345 344 343 344 335 338 342 343 340 343 341 343 343 338 339 338 335 334 331 331 323 328 322 324 324 325 324 324 323 322 322 321 321 319 318 317 316 318 319 319 319 318 313 314 320 321 321 322 323 324
345 344 345 345 345 345 343 342 341 341 341 342 342 343 341 340 339 337 336 326 324 326 331 328 321 321 322 323 322 321 321 321 319 318 317 316 314 315 316 317 316 317 317 317 317 317 317 317 317 319 320 321
344 346 347 346 345 345 344 342 341 339 339 342 342 342 341 340 338 336 333 331 331 332 331 329 326 325 324 322 321 317 317 315 314 314 314 313 314 315 315 315 315 315 314 314 313 313 313 313 315 316 317 318
343 344 344 344 343 344 344 342 340 340 339 341 342 342 340 338 337 335 333 333 334 333 332 329 328 326 321 319 318 316 315 315 316 316 315 315 314 313 314 313 312 311 311 310 310 309 309 310 311 312 313 315
340 342 345 344 343 342 342 342 340 339 339 338 341 342 339 338 336 334 333 332 333 333 332 331 326 322 319 318 318 317 316 316 316 315 314 314 313 312 311 310 309 308 308 308 307 306 306 306 307 309 309 311
338 341 343 343 342 342 339 339 340 340 339 339 339 339 338 337 337 335 333 331 332 332 332 330 326 324 320 319 319 318 317 316 316 315 314 314 313 311 310 308 307 306 305 304 305 304 304 304 304 305 306 307
337 339 340 342 341 342 335 339 340 341 340 338 338 338 337 337 336 336 334 332 331 333 331 331 328 325 322 320 319 319 318 318 316 315 314 312 311 310 309 307 306 304 303 303 303 302 302 302 302 303 304 305
335 336 339 341 340 343 338 340 339 340 339 338 338 336 337 337 336 336 335 335 333 332 331 330 327 326 324 320 320 320 319 318 316 314 313 313 312 310 308 306 304 303 302 301 301 301 300 300 300 301 301 302
333 336 338 340 341 341 338 341 339 337 336 338 338 337 336 337 337 336 337 336 334 332 330 328 325 325 324 322 321 321 319 318 316 315 313 313 311 309 307 304 303 301 301 300 300 300 299 299 299 298 299 299
332 334 336 338 339 339 339 340 340 339 337 334 337 337 336 337 337 336 337 335 334 333 331 329 326 325 324 322 321 320 319 318 316 314 314 312 310 309 306 303 302 302 300 299 299 299 299 299 298 298 298 298
331 333 334 335 336 337 338 337 337 337 337 337 337 336 335 337 336 335 336 335 334 332 332 330 327 324 324 323 321 320 319 318 316 313 311 309 308 307 305 303 302 302 299 298 298 298 298 298 298 298 298 297
331 333 334 335 334 335 335 335 335 336 337 337 335 333 335 337 336 334 335 335 332 331 331 329 327 325 324 324 322 321 318 315 312 309 308 307 306 304 303 300 300 299 298 298 298 298 298 297 297 297 297 296
328 331 332 333 333 333 333 330 332 334 333 333 334 334 334 334 334 335 335 335 332 329 329 328 327 325 323 324 322 319 317 315 311 309 308 306 303 302 300 300 300 299 298 297 296 296 296 296 296 296 296 296
326 328 329 330 327 333 331 329 327 329 333 333 333 333 333 333 332 333 333 332 331 328 328 327 324 323 323 321 319 318 316 313 310 309 307 305 302 299 299 299 299 299 297 296 295 296 295 295 295 295 295 296
324 327 328 329 329 331 332 329 327 325 329 332 331 332 333 331 330 331 331 331 329 327 327 326 322 319 320 319 317 316 315 313 310 307 306 304 303 301 298 299 298 297 296 295 295 295 295 295 295 295 294 294
322 324 327 328 326 327 330 327 325 324 325 327 329 330 330 330 328 329 330 330 328 327 325 323 320 317 318 318 316 315 314 313 310 308 305 301 300 299 298 297 296 295 295 295 294 293 294 294 294 294 294 294
321 322 323 323 321 322 325 324 319 320 321 321 325 328 329 328 327 325 326 326 325 325 322 320 319 316 315 315 315 314 312 310 309 307 306 301 298 298 297 297 296 295 295 294 294 292 292 292 292 293 293 294
318 318 318 318 316 316 317 317 314 314 317 318 319 320 324 326 326 324 323 322 319 318 317 315 314 313 313 313 313 312 310 309 307 305 303 300 297 295 295 296 295 295 294 293 292 291 291 292 292 292 292 292
315 314 314 316 315 315 315 315 313 312 312 313 317 317 319 321 321 319 319 319 318 316 312 313 312 312 312 313 312 310 310 309 307 305 301 298 296 294 293 293 294 295 294 292 290 291 290 290 291 291 291 290
316 317 316 316 315 318 314 312 314 311 310 311 310 313 316 316 317 317 319 316 317 315 314 311 310 311 310 311 311 310 310 307 304 302 299 297 295 295 294 293 295 295 295 293 290 288 288 288 289 290 289 289
315 317 318 318 315 312 309 309 310 314 311 308 307 307 310 312 314 316 315 317 313 314 313 311 310 309 309 311 311 310 308 305 302 300 297 296 294 293 294 294 296 296 300 295 292 292 289 286 286 287 287 288
317 318 313 311 313 313 309 307 304 305 305 306 304 304 305 309 311 311 311 312 312 312 313 314 313 311 310 310 312 310 307 304 301 298 296 296 296 296 292 293 294 299 300 297 293 289 292 290 291 286 287 286
314 308 306 305 304 303 303 303 303 303 303 303 303 302 302 306 308 309 310 310 311 310 309 310 311 310 309 307 309 310 307 304 301 299 298 297 297 296 295 293 295 297 298 297 298 298 293 291 290 293 290 287
311 307 303 304 304 303 306 302 302 304 304 301 301 302 303 303 304 306 308 309 309 309 307 307 308 309 306 306 308 307 304 302 300 299 298 298 299 299 299 297 295 295 297 297 299 298 298 301 297 294 288 289
309 307 305 307 309 310 309 308 306 308 308 305 305 306 303 303 302 304 305 306 306 307 306 305 303 305 306 305 306 306 304 301 299 299 300 300 301 301 300 300 297 296 296 295 295 296 297 297 296 296 289 288

ECMWFFLT2_sfc_thetae_069.txt.gz
Theta_e
342 343 346 347 347 346 346 346 344 344 343 343 343 343 340 336 334 335 335 336 336 336 335 335 334 334 333 333 333 334 333 333 332 331 332 332 332 332 332 332 332 331 330 330 330 330 330 329 327 324 323 325
337 341 343 344 343 345 345 345 345 344 344 343 342 341 339 336 335 334 334 334 334 335 335 334 333 332 330 331 332 333 333 333 332 330 331 330 332 332 331 331 330 330 329 329 328 328 328 327 326 324 323 325
343 334 338 339 340 339 343 344 343 343 341 341 340 338 335 333 331 330 331 332 333 334 333 333 332 329 328 329 330 331 332 332 331 330 330 331 331 330 330 329 329 328 328 327 327 328 326 324 321 320 323 325
344 333 332 336 337 337 339 341 341 339 338 335 333 331 329 327 328 325 327 324 328 328 331 330 328 330 327 327 328 330 331 331 331 330 330 330 330 329 328 328 327 326 326 326 326 326 325 322 321 326 327 327
345 342 331 332 330 332 335 336 336 334 329 326 324 326 324 325 328 327 327 327 326 322 328 323 325 329 328 327 327 328 329 330 330 329 329 328 327 326 324 322 322 323 323 323 324 323 322 320 326 327 328 328
344 345 338 344 342 341 335 330 328 334 340 334 337 324 331 335 331 330 329 327 327 326 326 325 321 325 328 327 326 326 328 329 328 327 327 327 326 324 323 321 321 320 319 320 321 320 319 324 326 326 327 327
346 345 345 343 342 342 334 337 341 343 341 342 339 337 339 335 335 334 330 330 329 329 321 324 320 323 325 325 324 323 325 326 327 326 326 324 323 323 323 322 322 322 322 322 317 317 322 324 325 325 325 325
345 345 345 343 343 341 342 341 343 342 341 341 341 340 340 338 336 334 332 324 323 324 324 323 319 321 322 322 321 321 321 322 323 322 322 321 321 322 319 320 319 320 320 320 320 320 320 321 323 323 323 324
344 345 345 345 344 344 342 341 344 343 341 341 341 340 340 339 337 335 332 330 327 327 323 321 321 320 319 318 317 316 316 316 316 316 316 316 317 318 318 317 317 318 318 317 317 317 317 318 321 321 321 321
343 344 343 342 342 342 342 341 340 341 343 340 340 342 340 339 337 334 330 329 329 328 325 321 320 321 319 317 315 313 310 311 312 313 314 315 315 315 316 315 315 315 315 314 313 313 314 315 316 318 319 319
343 343 345 344 343 342 341 342 340 339 340 342 341 342 340 337 335 331 331 331 331 329 326 325 324 322 320 318 314 313 313 314 314 314 314 314 314 314 313 313 313 312 312 311 311 310 311 312 313 314 316 317
340 342 343 345 343 342 340 340 340 339 339 340 343 338 339 336 336 332 331 331 331 330 329 328 326 322 319 318 316 316 316 315 315 315 315 315 314 313 312 311 310 310 310 309 309 309 309 310 310 311 312 315
338 338 340 342 341 341 338 342 340 340 340 339 339 340 339 337 336 333 332 331 331 331 330 329 326 322 321 320 318 317 317 317 317 316 315 314 313 312 311 309 308 308 307 307 307 306 307 308 308 309 310 312
337 336 338 340 341 342 341 341 343 341 341 339 340 339 339 338 337 334 332 331 331 331 330 328 326 323 323 321 319 318 318 318 317 316 315 314 313 311 310 307 306 305 305 304 305 304 304 305 306 306 307 309
335 335 337 340 342 342 340 341 341 342 340 340 339 339 339 338 337 336 334 332 331 330 331 328 326 325 323 322 321 320 319 319 318 317 315 314 311 309 307 306 305 304 303 302 302 302 302 302 303 303 304 306
334 333 335 338 342 342 341 341 340 340 341 339 339 339 339 339 338 336 335 334 332 331 330 329 326 325 323 323 322 321 320 318 318 317 316 314 311 309 306 305 304 304 302 301 301 301 300 300 300 301 302 302
334 334 334 336 338 340 340 339 339 338 338 339 340 339 338 338 338 337 336 334 334 331 331 328 326 325 323 323 323 321 320 318 317 315 313 311 309 307 305 304 303 304 301 300 299 299 299 299 299 299 299 300
331 332 334 336 336 337 339 339 339 338 339 338 338 338 337 337 337 337 336 335 335 333 332 329 326 325 324 323 322 321 318 316 315 313 311 308 307 305 304 302 301 300 300 299 299 299 299 298 298 298 298 298
330 330 332 333 335 335 336 336 337 338 339 338 338 337 337 338 337 336 336 336 334 333 333 330 326 325 324 322 321 319 318 316 314 311 309 307 305 303 302 301 301 300 299 298 297 297 298 297 298 298 297 298
329 329 330 332 329 334 335 335 335 335 336 337 338 336 335 337 337 337 336 336 335 333 332 330 327 326 325 322 319 318 316 313 312 311 308 307 305 301 300 300 299 299 298 297 297 297 297 297 297 296 297 297
329 329 329 329 331 333 333 334 334 335 336 335 335 335 334 335 335 335 337 337 334 332 331 330 327 325 323 322 319 317 315 313 312 310 308 305 304 303 300 300 299 298 297 297 297 297 296 296 296 296 296 296
327 327 328 329 328 327 330 332 332 333 332 334 333 333 334 334 334 334 335 333 332 332 330 329 327 325 323 320 319 317 314 312 310 308 306 302 303 302 300 298 297 296 296 297 296 295 296 296 296 295 295 295
326 327 327 329 328 327 328 328 331 331 330 330 331 332 333 333 332 332 333 332 330 330 328 327 326 323 321 320 318 316 313 311 309 307 305 301 300 301 300 299 298 296 296 296 296 295 294 295 294 295 295 296
322 322 322 323 325 325 325 327 326 327 327 327 327 329 331 331 330 330 331 330 329 328 326 323 321 321 320 318 317 315 312 309 308 306 304 300 300 298 298 298 297 297 295 294 294 293 293 293 294 294 294 294
319 318 319 322 322 321 322 324 325 323 324 325 325 325 329 329 329 329 329 328 328 327 323 323 320 319 318 317 315 313 312 310 308 306 303 300 299 297 295 295 296 296 295 292 291 292 291 291 292 292 292 292
319 320 319 318 319 320 321 322 322 321 321 321 323 323 325 328 328 328 326 325 326 324 324 323 320 318 317 316 315 313 312 311 307 305 302 299 297 297 295 293 295 295 294 293 290 288 288 288 289 290 290 290
318 319 319 319 320 320 320 322 322 323 321 319 317 320 322 323 324 325 325 324 322 323 320 321 318 316 317 316 314 312 311 310 307 304 301 299 297 294 296 294 296 295 297 294 293 292 289 286 287 288 288 290
319 319 319 320 321 322 321 318 314 318 317 316 316 316 316 318 320 321 321 321 321 319 317 316 316 315 314 314 313 312 310 307 304 301 300 299 298 296 293 293 293 296 298 297 293 289 292 289 290 287 286 286
318 318 318 319 316 316 313 313 313 312 313 316 315 314 311 313 316 317 319 319 318 317 317 316 315 314 314 313 313 312 309 306 303 301 299 299 297 296 295 293 293 295 299 299 298 298 292 289 290 290 290 286
317 316 316 313 313 311 313 312 309 309 311 312 311 312 311 310 311 313 314 315 316 316 316 316 315 315 314 314 313 311 309 306 303 300 298 298 298 297 297 295 294 294 298 301 299 303 303 300 293 293 288 287
316 315 315 314 313 314 313 313 312 313 315 313 312 311 310 310 310 311 311 312 313 314 314 315 315 315 314 314 314 312 309 306 303 301 299 299 299 298 299 298 296 296 298 299 299 302 302 300 297 296 288 288

ECMWFFLT2_sfc_thetae_072.txt.gz
Theta_e
341 345 347 347 347 345 343 344 344 344 343 341 339 337 336 336 337 337 336 336 335 335 335 334 334 333 333 333 333 333 333 333 332 332 331 332 333 333 333 333 332 333 333 333 334 331 329 328 326 323 322 321
338 341 345 345 344 344 344 344 344 343 343 341 338 337 337 336 337 337 336 335 335 335 334 334 334 334 334 334 334 333 332 332 331 330 332 332 333 332 332 331 332 332 332 332 332 330 329 327 326 323 322 320
338 335 339 341 341 342 343 343 342 342 340 338 337 335 334 333 331 331 333 335 336 336 334 333 333 334 333 334 333 333 332 331 330 329 331 332 332 331 331 330 330 330 330 329 331 329 327 324 323 322 324 325
340 331 332 337 336 338 340 341 340 339 336 333 331 329 327 325 324 323 324 325 328 329 331 328 327 332 333 333 332 332 332 330 329 330 331 332 331 330 329 329 328 328 328 328 329 327 326 324 322 324 324 324
342 336 330 331 329 332 336 337 337 335 328 325 323 322 321 322 324 323 323 324 324 322 324 322 324 329 332 331 331 331 330 329 328 329 331 330 328 326 325 323 323 324 326 327 326 325 323 321 323 323 324 323
342 336 335 338 335 335 333 330 328 330 331 328 325 320 322 323 322 322 322 323 325 323 323 322 322 325 329 330 330 330 329 328 328 329 329 328 326 325 324 321 316 316 320 321 323 322 320 321 321 322 323 322
340 339 340 339 338 337 331 332 333 334 331 329 325 325 327 323 324 323 322 322 323 321 319 321 321 324 327 329 328 329 328 327 327 329 328 326 325 325 324 317 315 316 315 315 316 316 320 319 320 321 320 318
340 341 341 340 339 338 337 334 337 336 335 331 327 329 332 328 328 325 322 321 321 321 320 319 319 321 322 325 325 325 325 326 327 326 325 325 325 323 317 314 314 314 313 313 314 314 316 317 318 318 317 315
340 341 341 340 339 339 338 337 338 337 337 334 331 333 334 333 328 324 321 319 318 318 318 317 316 315 314 314 315 317 315 315 316 316 315 315 315 312 313 312 313 313 311 310 310 311 312 315 316 316 315 314
339 340 339 339 339 339 339 338 338 337 337 336 335 336 334 335 328 325 322 321 319 317 317 315 314 313 311 310 311 311 311 311 311 310 311 311 310 309 310 309 309 309 308 307 306 308 310 311 313 313 313 312
339 340 339 340 340 339 339 339 337 336 337 336 336 336 335 334 329 325 323 322 320 317 316 315 314 312 311 309 308 307 308 308 309 309 309 309 309 309 308 307 307 307 307 306 306 306 307 308 309 310 311 311
337 338 340 339 337 339 337 338 337 337 337 337 336 336 335 332 329 325 323 323 322 318 317 316 317 315 312 310 307 307 308 309 308 309 310 310 308 308 307 307 305 305 305 305 305 305 305 306 306 308 309 310
335 336 338 339 339 338 334 338 337 337 337 336 335 335 335 333 329 326 326 325 324 321 320 320 318 315 313 311 310 310 310 311 310 310 309 309 308 306 305 304 304 303 303 302 303 303 303 303 305 306 308 309
334 333 334 338 338 338 336 339 338 337 336 336 336 334 334 334 331 328 327 327 326 324 323 323 317 315 314 313 311 311 311 312 311 310 309 308 307 306 303 302 302 300 300 300 300 300 301 301 301 302 304 307
332 331 331 334 337 338 337 337 337 337 336 336 336 334 333 334 332 329 327 327 327 326 325 322 318 316 316 313 312 312 313 313 312 311 309 308 305 303 302 301 300 299 298 298 298 298 299 299 299 299 300 303
332 331 330 333 335 335 337 337 337 336 337 335 336 336 335 334 333 330 329 328 328 328 326 322 319 318 317 314 313 314 314 313 312 311 310 308 305 302 301 300 299 299 297 296 296 296 296 297 297 297 297 298
330 330 331 332 334 335 336 336 336 336 336 336 336 336 335 334 334 331 330 328 328 326 327 323 320 319 318 316 315 315 314 313 312 311 307 304 303 301 300 299 299 299 296 295 295 295 295 295 295 296 296 296
329 329 328 330 333 335 335 335 334 334 337 336 336 335 335 334 334 332 331 329 328 327 327 324 322 320 319 318 316 315 314 313 312 309 306 303 301 301 299 297 296 296 295 294 293 294 293 294 294 294 294 293
329 329 328 328 330 333 334 334 334 333 334 335 336 335 334 334 333 333 333 331 330 328 328 325 322 320 319 318 315 314 313 312 311 308 306 303 300 299 297 296 297 296 295 294 294 293 293 293 293 293 293 293
326 327 326 327 326 331 332 332 335 336 335 335 335 335 334 334 334 333 333 332 331 328 328 326 323 321 319 317 315 314 313 312 309 308 306 304 302 298 296 296 295 295 294 294 294 292 292 292 293 292 292 292
323 324 324 325 326 330 331 330 331 334 335 334 334 335 335 335 334 333 332 332 331 330 329 326 323 321 319 317 316 315 313 311 309 307 306 303 302 300 297 296 294 294 294 294 294 293 291 291 292 291 292 292
324 324 324 323 325 324 329 329 327 330 331 331 332 334 334 334 334 333 333 332 331 330 330 328 324 322 319 317 315 314 313 311 310 308 305 302 301 299 298 295 294 293 294 295 294 293 292 291 290 290 290 291
323 322 322 321 321 322 325 327 325 327 326 325 329 331 332 332 333 332 333 331 329 328 328 328 325 322 320 317 315 314 312 310 308 307 304 301 300 299 296 295 295 294 295 295 294 292 291 290 289 290 290 291
321 320 319 319 318 318 319 323 323 325 326 327 328 330 330 329 330 330 330 330 329 328 327 327 324 322 320 318 316 313 311 309 307 305 303 300 299 297 295 295 295 295 294 293 292 291 290 290 289 289 290 289
320 319 318 318 319 319 318 319 319 322 323 325 327 329 330 328 328 328 329 329 329 328 325 327 325 322 319 318 316 314 312 310 308 306 303 300 298 297 295 294 295 294 293 290 289 290 289 288 288 289 289 288
319 320 320 319 319 319 317 317 318 317 319 321 325 326 327 327 328 329 329 327 329 327 326 325 324 322 319 318 316 315 313 310 306 304 302 300 297 298 295 293 294 294 292 290 288 286 287 288 288 287 286 287
317 318 317 317 315 317 313 314 317 317 316 317 320 323 323 324 327 328 328 327 326 326 325 323 322 321 320 318 316 314 311 308 305 303 301 300 298 295 296 294 295 293 293 289 289 290 288 286 285 287 285 286
316 315 314 314 314 314 314 313 312 315 315 316 319 320 321 321 324 324 325 325 324 324 324 322 320 319 318 318 316 314 310 307 304 302 300 300 299 297 292 292 293 294 295 293 290 286 288 286 286 283 282 282
314 313 313 313 312 309 307 308 308 309 309 313 316 317 318 320 318 320 321 323 322 321 322 321 320 319 318 317 315 314 311 308 306 303 301 300 298 296 295 292 292 293 294 295 295 293 289 287 287 286 284 282
314 312 312 311 310 308 307 306 306 310 311 312 314 315 316 315 315 316 318 318 320 319 318 318 318 318 317 316 315 314 312 309 307 303 301 300 299 297 298 295 292 291 293 296 295 298 298 293 289 287 282 283
312 312 312 312 311 310 310 309 308 307 308 312 314 314 312 312 312 313 314 315 316 317 317 317 316 316 315 315 315 312 311 308 306 304 302 301 301 300 300 297 293 292 292 294 297 297 298 296 295 291 284 281

ECMWFFLT2_sfc_thetae_075.txt.gz
Theta_e
343 344 346 346 345 345 345 344 342 341 339 338 338 338 338 338 338 337 336 335 335 335 335 334 334 334 333 333 333 333 334 334 334 333 334 334 334 334 334 334 333 333 333 332 333 331 329 327 325 323 322 322
339 342 344 344 343 343 343 343 343 341 339 338 338 338 338 337 337 337 336 336 335 335 334 335 335 334 334 333 333 333 333 332 331 331 334 333 333 333 333 332 332 333 333 333 331 330 329 328 326 324 323 321
336 336 340 341 341 341 342 343 341 340 337 337 337 337 335 334 333 332 334 335 335 335 334 334 334 334 335 333 332 332 331 331 330 331 333 332 333 332 331 330 331 331 332 332 331 329 327 324 322 321 322 322
336 333 333 338 338 339 340 340 339 336 333 331 330 329 328 326 326 325 325 325 326 329 331 330 329 333 333 332 331 332 330 330 330 331 332 332 331 329 328 328 328 330 330 330 329 327 325 322 320 321 321 320
337 333 330 332 332 334 337 336 334 333 326 323 322 322 320 322 324 323 323 322 321 320 323 324 326 331 332 331 331 330 329 329 328 331 330 329 329 327 326 323 323 325 329 329 327 325 322 319 320 319 319 319
338 334 333 334 334 335 334 330 327 326 326 325 322 319 321 322 321 322 322 322 323 320 322 323 323 327 331 331 331 330 329 328 329 330 329 328 328 326 325 320 314 314 319 323 324 321 318 318 317 316 316 316
337 336 336 335 335 335 330 330 329 327 325 323 322 321 321 320 320 321 321 321 321 321 320 322 322 326 328 330 329 329 329 327 329 329 328 327 326 325 321 313 311 311 311 313 316 316 316 315 314 314 314 313
337 337 337 335 336 336 335 332 330 328 325 323 322 322 320 320 321 321 319 321 321 320 319 321 321 323 325 326 325 326 326 327 328 327 326 326 324 317 313 311 310 309 308 310 312 314 314 313 312 312 311 311
338 338 338 337 337 336 335 335 332 329 325 323 322 323 321 323 321 319 318 318 317 317 316 317 318 318 318 317 316 318 315 317 318 317 313 310 309 308 308 307 307 307 307 308 310 311 312 312 311 310 310 310
337 338 338 337 338 337 336 336 334 330 326 323 323 326 327 322 320 318 317 317 316 315 315 314 314 315 314 314 314 314 314 313 312 309 308 308 306 306 306 306 306 305 305 306 307 308 309 310 309 309 308 308
337 339 339 338 338 337 336 337 335 332 330 325 326 329 326 322 319 317 317 316 315 314 313 312 312 311 311 312 312 312 312 310 309 306 306 306 306 305 305 304 304 304 304 305 306 306 307 308 308 308 307 307
338 339 338 338 336 337 335 336 336 334 333 330 329 331 328 323 320 318 317 316 315 314 312 311 310 309 308 309 310 310 310 309 306 307 306 306 305 305 304 304 303 303 303 303 305 305 306 306 307 307 306 306
337 338 337 338 337 337 333 337 337 336 335 333 332 333 330 325 321 319 318 316 315 313 312 311 310 309 307 306 308 307 307 307 307 307 306 305 304 303 302 301 301 301 301 302 302 303 303 304 305 306 306 305
336 337 337 337 338 338 334 337 337 336 335 335 333 333 332 327 323 320 319 317 315 313 312 313 311 309 307 306 305 306 307 307 308 306 305 304 303 301 300 299 300 299 299 299 300 300 300 301 302 303 304 304
335 336 337 336 338 338 336 337 336 336 336 335 334 333 333 329 325 322 321 319 315 313 314 315 311 309 308 306 306 306 307 309 308 307 306 304 301 299 299 298 298 297 297 297 298 298 298 298 299 300 302 303
332 332 335 335 337 337 338 337 336 336 335 333 334 333 332 331 327 323 324 322 317 316 316 316 312 309 309 308 308 308 309 309 308 307 305 303 301 299 298 297 296 296 296 295 295 296 296 296 297 297 298 300
332 330 331 334 335 336 336 337 337 336 335 335 334 333 333 332 329 326 325 325 321 318 320 316 313 311 310 309 309 309 310 309 308 306 303 302 301 299 298 296 295 296 294 294 293 294 294 295 294 294 295 295
330 330 328 332 334 333 335 336 336 335 336 335 334 333 333 333 331 328 328 327 324 323 323 317 314 313 312 310 310 311 310 309 307 304 302 301 300 300 297 295 294 294 293 292 292 292 292 293 293 293 293 292
330 329 327 329 332 333 334 333 335 336 336 335 334 334 333 333 331 329 328 328 326 325 324 318 316 315 314 312 311 311 310 309 306 303 301 301 299 298 296 295 294 293 293 292 292 292 292 292 292 292 292 292
329 328 326 328 327 331 331 332 333 334 336 336 335 335 334 333 332 330 330 328 328 326 325 320 318 317 316 313 312 311 309 308 305 303 302 301 299 296 295 295 294 294 293 292 291 291 291 291 292 290 290 291
326 327 325 325 329 330 330 330 331 331 333 335 335 335 335 334 332 331 331 329 329 327 326 323 320 317 317 314 312 310 309 307 305 303 302 300 299 298 296 295 294 293 293 292 291 291 290 290 291 290 290 290
325 325 325 323 325 327 329 329 330 330 331 332 334 335 334 334 333 332 332 331 329 328 327 325 322 319 317 314 313 311 309 307 306 303 302 300 299 298 297 295 294 293 293 293 292 291 290 290 289 289 289 290
322 322 321 319 321 323 327 327 328 329 330 331 333 334 335 334 333 331 332 331 330 329 327 326 323 319 317 315 313 311 309 307 306 304 303 300 299 299 298 296 294 294 294 293 291 290 289 290 290 290 290 289
320 320 320 319 315 317 322 325 324 326 329 329 331 333 334 333 334 332 332 331 330 330 327 326 323 321 318 315 314 312 309 308 306 304 302 300 299 297 296 295 295 295 293 291 290 290 289 289 290 289 289 288
320 320 318 318 319 319 319 323 323 323 324 326 328 330 332 332 332 332 331 330 330 329 325 326 324 322 318 317 314 312 310 309 307 305 302 301 299 297 295 295 295 294 292 290 288 288 288 288 289 291 289 288
322 322 322 321 321 320 316 318 321 322 321 324 324 325 328 329 331 331 331 328 330 328 328 327 324 322 319 317 315 314 312 310 307 304 301 300 298 298 296 293 294 293 292 290 287 285 285 287 288 289 289 288
322 322 321 320 316 319 312 312 317 320 317 317 321 322 323 325 327 328 329 330 328 329 328 327 325 322 320 317 316 313 311 309 306 304 301 299 298 296 296 295 294 293 293 290 289 288 286 285 284 287 287 288
321 319 314 313 311 313 315 312 310 314 312 316 317 319 320 321 324 326 327 327 327 327 328 328 325 322 320 318 316 315 311 308 306 304 302 300 299 297 293 294 293 295 296 295 290 287 288 286 286 284 284 284
314 313 311 310 309 308 308 308 310 309 310 315 317 318 319 320 319 323 326 327 327 324 325 326 325 323 320 318 316 315 312 309 307 304 303 301 299 297 296 293 293 293 295 293 295 292 286 284 286 286 284 283
313 313 313 311 311 310 310 311 309 313 315 314 315 318 318 317 317 318 319 324 326 326 324 325 325 323 321 319 317 315 314 311 308 305 302 301 300 298 299 296 293 292 293 294 293 295 295 291 290 287 282 284
312 312 312 313 314 313 313 313 312 309 308 312 312 313 312 314 312 314 317 317 322 326 324 324 323 322 321 320 318 315 314 310 308 305 303 302 301 300 300 298 294 293 292 294 294 295 296 295 294 289 284 282

ECMWFFLT2_sfc_thetae_078.txt.gz
Theta_e
342 343 345 345 345 343 342 340 339 339 339 339 339 338 337 337 338 338 338 336 335 335 335 336 336 336 335 334 333 334 334 333 333 335 336 335 334 335 335 334 334 334 333 332 331 331 329 329 326 323 321 321
339 341 343 343 343 342 341 340 339 339 339 339 339 339 338 337 337 338 338 337 336 336 337 337 336 334 333 333 333 333 333 334 334 335 334 333 333 334 334 334 334 333 333 332 331 329 329 328 326 324 322 320
337 336 339 340 340 340 341 340 339 339 338 337 338 337 335 334 332 332 334 335 336 335 334 334 334 334 334 333 332 332 331 334 334 333 332 331 332 333 333 334 333 333 332 331 329 328 326 323 321 320 321 320
337 334 333 337 338 338 339 338 337 336 334 332 331 330 328 326 325 324 325 325 327 330 333 331 329 333 333 332 331 331 331 333 333 332 330 330 330 331 332 332 332 331 330 329 327 325 323 320 318 319 319 319
337 336 331 332 332 334 336 335 333 333 327 324 322 322 321 322 322 321 320 320 321 322 324 324 326 331 332 331 331 330 330 332 332 331 329 328 328 327 325 324 325 326 327 326 325 322 319 316 316 315 316 317
337 335 334 336 335 335 333 328 326 326 326 326 323 320 322 322 321 320 319 320 324 321 323 323 323 327 331 331 330 330 329 331 331 330 329 327 326 325 322 318 313 315 319 321 320 318 315 314 313 313 314 315
336 336 336 335 335 335 328 327 326 325 324 323 323 322 321 320 320 319 318 319 320 321 320 322 322 326 328 330 329 329 329 330 330 329 328 326 324 321 317 310 309 311 311 312 314 313 313 311 311 312 312 313
336 336 336 335 335 335 332 327 325 324 323 322 322 321 320 320 320 319 318 321 322 321 321 321 322 324 325 327 325 326 326 328 329 327 323 321 318 313 309 307 308 309 310 311 311 311 311 310 310 310 310 311
336 337 336 336 336 336 333 328 325 323 323 322 321 320 320 320 319 318 318 317 318 318 318 318 319 319 319 318 317 319 316 317 315 310 306 307 307 306 307 306 306 308 309 309 310 309 309 309 308 308 308 310
337 336 335 335 336 336 334 331 327 323 322 321 320 319 320 319 318 317 317 316 316 316 317 317 315 316 316 315 315 316 314 311 308 305 305 305 305 304 305 305 305 306 307 308 308 308 307 307 307 306 307 309
337 337 337 336 336 335 334 333 328 324 321 320 320 320 320 319 318 317 316 315 315 315 316 316 315 314 315 315 314 314 313 309 306 305 304 304 303 303 304 304 304 304 305 306 307 307 306 306 306 305 305 305
337 338 337 336 332 336 334 333 330 326 322 320 321 322 320 318 318 317 316 315 314 313 314 314 314 313 312 313 314 313 312 307 304 304 304 303 303 303 303 303 303 303 304 304 306 306 305 305 305 304 304 304
338 338 338 336 336 336 331 335 333 329 324 320 321 325 319 318 317 317 316 315 314 312 312 312 312 311 311 311 312 311 308 306 305 304 303 303 302 302 301 302 302 302 302 303 304 305 304 304 304 303 303 303
337 338 338 337 336 337 333 336 335 332 327 323 324 327 320 318 317 317 316 315 313 311 310 310 310 309 309 310 310 309 307 305 305 304 303 301 301 301 300 301 301 301 300 300 301 302 303 302 302 302 302 302
337 338 337 337 337 337 335 336 336 334 331 326 327 330 323 320 317 317 316 315 313 311 310 309 309 308 307 308 308 308 306 306 305 304 303 301 300 300 299 299 299 300 299 298 299 299 301 301 301 301 301 301
337 337 337 337 337 337 336 337 336 335 334 329 329 332 326 322 319 317 316 315 313 311 310 309 308 307 306 307 307 306 305 306 305 303 302 300 299 299 298 297 297 298 298 297 297 298 298 298 299 299 299 299
336 337 337 337 337 337 336 336 336 335 335 334 332 332 329 325 322 319 318 315 313 310 310 309 307 306 306 307 306 305 306 306 304 302 300 299 298 297 297 297 297 298 296 296 295 296 296 297 296 296 296 295
335 335 336 336 337 336 337 337 336 335 336 335 334 333 332 327 324 321 320 317 314 312 312 311 307 306 305 306 306 305 307 305 303 301 299 298 297 298 297 296 296 296 295 294 294 294 294 294 294 293 293 292
332 332 333 334 335 336 336 337 336 336 336 335 335 334 333 331 325 322 322 319 315 313 314 313 308 306 306 306 306 306 307 306 303 300 299 297 297 296 296 296 296 296 294 294 294 293 294 293 292 292 291 291
331 330 330 332 330 335 335 335 336 336 336 336 335 334 334 333 329 324 324 322 318 315 316 314 311 308 306 307 307 307 307 305 302 300 299 298 297 295 294 294 293 293 292 293 293 292 293 292 292 290 290 290
329 329 327 329 331 333 333 334 335 336 336 336 335 335 334 333 331 327 326 325 322 319 318 316 314 312 309 308 308 308 308 305 302 300 299 297 297 296 294 293 292 292 292 293 292 292 292 292 291 290 290 289
329 328 326 325 329 328 331 333 334 335 335 335 335 335 334 334 333 329 328 327 325 323 322 319 316 315 312 310 309 309 308 306 302 300 299 297 296 296 295 293 292 292 293 294 293 291 291 290 290 290 289 290
327 324 324 322 324 326 329 331 332 332 333 334 335 335 335 334 333 330 330 328 327 325 324 321 318 316 314 311 310 310 308 306 302 301 299 297 296 296 295 294 293 293 294 293 292 291 291 291 290 290 290 289
323 322 321 321 317 323 326 329 328 330 331 332 333 333 334 334 334 332 330 329 328 327 325 324 320 317 315 312 311 310 308 306 303 301 299 297 296 295 295 294 293 294 293 292 291 291 290 290 290 289 288 287
323 322 321 319 321 323 325 326 326 327 329 330 331 332 334 333 333 332 331 330 329 328 324 325 322 318 316 313 312 310 309 308 305 303 301 298 297 295 293 293 294 293 293 290 289 290 289 289 290 291 288 287
323 324 324 323 323 323 322 323 323 325 326 328 328 329 332 332 332 332 331 329 330 328 327 325 323 319 316 314 312 311 311 309 305 303 301 299 297 297 294 292 293 293 293 290 290 287 287 288 289 289 288 288
323 323 322 322 316 321 311 315 319 320 320 320 326 327 329 331 332 332 331 330 328 329 328 326 325 321 318 315 312 311 310 309 307 304 302 299 298 295 296 293 293 293 296 292 290 289 287 285 285 287 288 288
321 317 315 314 310 313 315 313 311 312 313 318 321 324 327 330 332 332 331 331 330 329 329 328 326 323 319 317 314 313 311 309 307 305 302 300 300 298 294 293 292 294 295 292 290 287 289 289 289 287 286 285
315 314 310 308 308 308 308 308 308 310 315 318 320 323 324 327 328 330 331 331 330 327 328 328 327 324 321 318 316 314 312 310 308 306 303 302 300 298 297 293 293 293 294 293 296 294 288 287 286 287 287 284
315 316 315 311 312 312 311 312 310 313 317 318 319 322 324 321 324 326 326 327 328 328 327 328 327 325 322 319 317 315 314 312 310 307 304 302 302 299 299 297 293 292 293 294 293 295 298 292 291 289 285 285
314 314 314 315 317 317 315 315 314 311 309 315 318 317 319 321 318 321 324 324 325 325 324 326 327 327 325 322 320 316 315 313 310 308 305 304 303 301 301 299 295 293 292 293 293 294 294 296 294 291 285 285

ECMWFFLT2_sfc_thetae_081.txt.gz
Theta_e
341 342 344 343 342 341 340 340 340 339 338 338 337 337 336 337 340 339 337 335 337 340 338 337 336 336 333 332 333 336 336 335 336 336 337 336 336 336 336 335 335 334 333 333 332 331 330 328 326 323 322 325
338 340 342 342 341 341 340 340 340 340 339 338 339 339 338 337 338 338 339 339 338 337 337 336 335 334 333 332 333 333 334 335 335 335 336 336 336 335 335 334 334 333 332 332 330 329 328 327 325 323 322 323
337 335 338 340 339 339 339 339 339 339 338 338 337 336 334 332 331 331 332 334 336 336 335 334 334 334 333 332 332 334 334 333 333 335 335 335 335 334 334 334 333 332 331 330 329 327 325 322 321 320 322 322
336 333 333 336 336 336 337 337 337 337 334 332 330 329 328 325 325 324 325 325 327 330 333 331 329 333 333 331 332 333 333 332 332 334 334 335 334 334 333 333 332 330 329 328 327 324 322 320 319 320 320 322
336 334 331 332 331 332 334 334 334 334 327 323 322 322 320 321 321 320 321 322 322 322 325 325 326 331 332 331 331 332 332 331 332 332 332 332 331 329 328 325 326 327 327 325 324 321 319 317 318 318 320 321
337 334 333 335 334 333 331 328 327 326 326 326 322 320 321 320 320 319 317 320 325 321 323 323 324 327 331 330 331 332 332 330 331 331 331 330 328 326 323 319 314 315 319 320 320 317 315 314 314 315 317 318
337 335 335 334 334 332 327 327 326 326 324 322 321 320 320 319 318 317 316 318 320 320 320 322 322 326 328 330 329 331 330 329 329 330 329 327 325 322 318 312 311 311 310 312 314 313 312 311 311 313 314 315
337 337 335 336 336 332 328 326 325 324 323 322 321 321 320 318 317 317 317 321 322 321 320 321 322 324 325 326 325 327 327 326 325 325 324 322 319 314 310 309 309 310 309 309 309 310 310 310 309 311 311 311
336 337 336 336 336 334 328 324 323 323 322 321 321 320 319 318 316 316 317 316 317 318 319 319 320 320 320 318 317 319 314 311 309 308 307 308 308 307 308 308 308 309 309 308 308 308 308 308 308 308 309 311
336 337 336 336 336 334 330 326 323 322 321 321 320 319 319 318 317 316 316 315 315 316 318 317 316 316 315 314 313 315 311 307 305 305 305 305 305 304 305 306 306 307 308 308 307 307 307 307 306 306 308 310
336 337 337 337 336 334 331 327 324 321 320 320 319 319 318 318 316 315 315 315 315 315 315 316 315 314 314 314 314 313 310 305 304 304 304 304 304 304 305 304 304 305 305 306 306 306 305 305 305 305 307 308
337 337 337 337 334 335 331 328 325 323 321 320 319 319 319 318 317 316 315 315 315 315 314 315 315 314 313 312 313 312 308 305 303 303 303 303 303 304 304 304 303 304 304 304 305 305 304 304 303 305 304 304
337 337 337 336 335 335 329 331 327 324 321 319 319 319 319 318 316 315 315 315 315 314 314 314 313 313 313 313 312 310 305 305 303 303 303 303 303 303 303 303 303 303 303 303 304 305 303 303 302 303 303 302
337 337 336 336 335 336 331 333 330 325 321 320 319 319 318 318 317 316 315 314 313 314 313 313 312 312 312 313 311 309 305 304 303 303 302 302 302 302 302 302 302 302 302 302 302 302 303 302 302 301 301 301
337 337 336 335 336 336 334 335 332 327 323 321 321 321 318 318 317 316 315 314 313 313 313 312 311 311 310 311 310 308 305 303 303 302 302 302 302 302 302 301 301 302 301 300 301 300 302 301 301 301 301 300
336 336 337 336 336 336 335 335 334 330 326 321 322 324 320 319 317 316 315 314 313 312 311 311 311 310 310 311 309 307 304 303 302 301 301 300 300 300 300 299 299 300 301 299 299 299 299 299 300 299 299 299
337 337 337 337 336 336 336 335 335 333 329 324 322 325 322 320 318 316 316 314 313 311 311 311 310 309 309 310 309 306 304 303 301 300 299 298 298 298 298 298 298 299 299 298 297 298 297 298 297 296 297 297
337 337 337 337 337 336 336 335 335 334 333 328 324 325 324 321 319 317 317 315 313 311 310 309 310 309 308 308 307 305 304 303 301 299 298 297 297 298 298 298 297 298 297 295 295 295 294 295 294 294 295 294
337 337 337 336 337 336 336 336 335 335 334 332 328 326 327 323 320 318 318 317 315 313 312 310 309 309 309 308 307 305 304 303 300 299 298 297 297 297 296 296 296 297 296 295 294 293 294 294 293 294 293 293
337 336 337 336 332 336 336 335 335 335 335 334 333 329 329 327 323 319 319 318 317 314 312 311 310 309 309 308 307 306 305 303 300 298 298 297 298 296 294 295 294 294 294 294 293 292 292 292 294 293 293 292
335 336 335 335 335 336 335 335 335 336 335 335 334 332 331 330 326 322 321 319 317 315 313 311 309 308 308 308 309 307 306 304 301 298 298 296 297 298 295 295 293 293 293 293 292 292 291 292 293 293 292 291
333 334 334 333 334 332 335 335 335 336 336 335 334 334 332 332 329 324 322 321 318 316 314 313 310 308 307 308 309 308 307 306 302 300 298 296 295 296 295 294 293 292 292 293 292 291 291 291 292 292 292 292
331 330 330 330 331 331 333 334 335 335 335 335 335 334 334 333 332 326 324 323 320 317 315 314 313 309 306 307 308 308 307 306 302 300 299 297 295 294 295 295 294 293 293 292 292 291 291 291 291 292 292 291
328 327 326 325 324 327 329 332 331 333 334 334 334 335 334 333 333 330 326 325 323 320 318 316 315 313 309 307 307 308 307 306 303 301 299 298 296 294 293 293 293 293 292 290 290 290 289 289 291 291 291 291
328 326 325 324 325 326 328 329 330 330 332 333 334 333 334 333 333 332 329 326 325 323 319 319 318 316 312 308 307 307 307 307 304 302 301 299 297 295 294 292 292 292 292 290 289 289 289 289 291 292 291 289
327 329 328 327 326 327 327 327 327 328 330 331 331 332 333 333 333 333 331 327 327 325 324 322 320 317 315 311 308 307 307 307 304 302 300 298 296 296 295 293 293 292 293 291 292 289 288 291 291 292 291 289
325 326 325 325 322 326 321 319 325 326 325 324 328 330 332 332 333 333 332 330 327 326 325 324 323 319 317 314 310 308 307 307 305 303 300 298 298 295 294 293 294 293 298 294 292 292 290 288 289 291 289 289
323 320 317 316 313 313 321 320 318 319 316 322 325 327 329 330 332 332 331 331 329 328 327 326 324 322 319 316 313 311 308 308 306 304 301 299 299 297 294 293 292 294 296 294 294 291 292 289 289 289 291 287
316 314 312 307 308 308 311 311 313 317 319 321 321 324 326 328 329 330 331 331 330 327 328 327 326 324 321 318 315 312 311 309 308 306 303 301 300 297 297 294 293 293 295 295 299 296 290 288 288 290 288 286
316 317 317 313 315 315 314 315 314 316 320 320 320 322 322 322 326 328 329 330 330 329 326 327 326 325 322 319 316 314 312 311 310 307 304 303 302 299 300 298 294 292 293 295 295 297 297 294 295 291 287 289
315 315 315 316 318 319 318 318 317 313 310 318 319 319 321 323 322 325 327 328 330 330 328 328 327 326 324 321 319 315 314 313 311 309 307 305 303 302 301 300 296 294 292 293 294 295 296 296 295 292 288 289

ECMWFFLT2_sfc_thetae_084.txt.gz
Theta_e
340 341 343 343 341 341 341 340 339 339 338 337 337 337 342 339 340 340 338 338 339 339 337 334 333 333 333 337 336 336 336 337 337 337 337 337 337 336 337 336 336 336 335 335 333 332 331 329 327 324 323 323
337 339 341 341 340 340 340 340 340 339 339 338 339 338 337 338 339 341 342 339 339 337 336 333 332 332 335 336 335 336 335 336 337 336 336 336 336 336 336 335 335 334 334 333 332 331 330 328 326 324 324 323
335 334 337 338 338 338 339 340 339 339 337 337 337 335 332 331 331 331 333 336 337 337 335 333 333 333 336 334 336 334 334 335 336 336 336 336 335 335 334 335 334 333 332 331 330 329 326 324 322 321 323 322
333 332 332 334 335 336 337 337 338 336 333 330 329 328 327 325 324 324 325 326 329 331 333 331 328 332 333 335 334 333 333 334 335 336 335 335 335 334 334 333 332 331 330 329 328 326 324 321 320 323 321 318
334 333 329 330 329 331 333 334 334 332 325 322 321 321 320 320 320 320 321 322 323 322 325 324 326 330 334 333 332 332 333 334 335 335 335 334 334 332 330 327 327 327 328 327 325 324 321 319 321 321 321 320
334 331 332 332 330 329 329 328 326 325 324 324 320 319 320 319 320 319 319 320 324 322 323 323 323 326 332 333 332 332 333 333 333 333 333 332 330 328 324 319 315 315 319 320 320 318 316 317 317 319 321 320
336 334 333 331 330 329 326 326 325 324 322 320 320 319 319 318 318 318 318 317 319 319 320 322 322 326 329 332 330 331 331 332 332 332 331 329 327 324 319 312 310 310 309 311 314 313 313 313 315 316 316 316
337 336 336 334 331 329 326 325 324 322 321 320 319 319 318 317 317 317 318 321 321 321 320 321 321 324 326 328 326 324 324 328 329 328 327 324 321 316 311 309 309 309 308 309 309 310 310 311 311 313 312 310
337 337 336 336 334 329 324 324 323 322 321 320 319 318 318 317 316 317 317 317 317 318 318 318 319 320 318 318 314 316 310 310 311 311 309 309 309 308 309 309 308 309 308 308 308 309 308 309 309 309 309 309
336 336 336 336 336 332 326 323 322 321 321 320 319 318 317 316 316 316 317 315 316 317 317 317 315 316 315 313 311 311 307 305 306 306 306 307 306 305 306 307 306 305 307 308 307 307 307 307 307 307 308 308
337 337 337 337 336 333 328 325 322 320 319 320 319 318 317 317 316 316 316 315 315 315 316 316 314 313 312 314 312 309 306 304 303 305 305 305 304 304 305 305 304 305 305 305 307 306 305 305 306 306 306 306
336 337 337 337 334 333 329 326 324 321 320 320 319 318 317 316 316 317 316 315 315 314 313 315 314 313 312 311 311 308 306 304 302 303 303 304 303 305 303 305 303 304 304 304 305 306 303 303 305 304 304 305
337 337 337 336 335 334 327 328 326 323 320 319 318 318 317 316 316 315 316 316 315 313 314 312 313 311 311 311 310 307 304 304 303 303 303 304 304 304 304 303 304 303 303 303 304 305 303 302 302 302 304 305
336 336 336 336 335 336 329 330 328 325 321 319 318 318 317 316 316 316 316 316 314 315 313 312 310 311 310 312 308 306 305 302 303 302 302 303 303 304 303 304 303 303 303 302 301 302 303 301 300 302 303 303
337 336 335 335 336 336 332 332 329 325 323 320 318 319 318 317 316 316 315 315 314 313 313 312 312 312 309 309 308 305 304 301 302 302 302 303 303 303 303 302 301 303 302 301 301 300 301 299 299 301 301 301
336 336 336 335 335 335 334 333 331 327 324 321 320 320 318 317 316 315 314 314 314 314 313 312 312 311 310 310 307 306 303 303 301 301 300 300 300 300 301 300 300 300 302 300 299 299 299 299 300 298 299 299
336 337 336 335 335 335 335 334 333 329 326 324 322 322 321 320 319 317 316 315 315 313 313 313 311 310 310 310 309 305 303 302 300 299 299 299 298 298 299 299 299 299 299 299 297 298 297 299 298 297 297 297
336 336 336 336 335 334 335 334 334 332 329 326 324 323 322 321 320 318 318 316 315 315 313 312 312 311 310 309 308 304 303 301 300 299 299 297 298 300 299 299 297 299 298 295 295 295 295 295 296 297 297 296
336 336 336 336 335 335 335 335 334 334 332 328 325 323 323 321 320 319 318 317 315 314 314 313 313 313 313 312 310 306 304 302 300 299 298 298 298 296 297 296 297 298 297 296 295 294 295 294 294 296 297 296
336 336 336 336 331 335 335 334 334 334 334 332 327 324 324 322 320 319 319 318 316 314 313 313 313 314 313 312 310 308 305 303 300 299 299 298 299 298 295 296 295 295 295 294 293 292 293 293 294 294 295 296
336 336 336 336 335 336 335 334 334 335 334 333 330 326 325 324 321 319 319 318 317 315 313 313 313 313 312 311 311 309 306 304 303 301 300 298 299 301 296 296 294 293 294 293 292 292 292 292 293 293 293 294
335 336 336 335 336 333 335 334 335 335 335 334 333 329 326 326 323 320 319 319 318 316 315 313 312 311 311 311 311 310 307 305 303 302 301 299 299 299 298 296 295 294 293 293 292 291 291 290 290 291 291 292
334 334 333 334 334 334 335 335 335 335 334 335 334 332 330 328 326 321 320 319 318 317 316 314 313 311 309 310 310 310 308 305 302 301 301 301 298 298 299 299 297 296 294 292 291 291 289 289 289 290 291 291
331 331 330 329 328 330 332 334 332 334 334 334 334 333 332 330 329 326 322 321 319 318 316 315 314 312 309 308 309 309 308 306 303 301 300 300 300 297 295 296 297 295 294 291 290 291 290 289 289 290 291 290
330 328 328 328 329 328 329 330 332 332 334 334 335 334 334 332 331 329 325 322 322 319 316 316 316 314 309 308 308 308 308 308 305 303 301 301 299 297 295 294 295 295 296 294 293 292 291 290 290 291 290 289
329 330 330 329 329 330 330 328 328 329 330 332 332 332 333 332 332 331 328 324 324 321 320 318 316 314 311 307 306 307 309 309 306 304 302 300 298 298 298 295 294 295 297 295 297 293 292 292 292 292 290 290
329 330 331 330 329 329 326 326 329 330 328 328 329 330 332 332 332 332 330 327 323 323 322 320 319 317 315 310 307 306 306 308 307 305 303 300 300 298 297 295 295 294 300 298 295 295 295 294 294 297 292 291
327 327 325 325 323 322 326 323 317 321 320 324 327 328 328 330 332 332 331 329 326 325 324 322 321 320 317 314 310 307 307 307 306 305 304 302 300 299 295 294 293 296 298 297 296 293 295 293 292 293 297 295
319 318 319 317 315 314 316 314 316 318 321 323 322 324 326 328 328 330 330 330 328 325 326 325 323 322 320 316 312 309 307 306 306 305 304 303 301 299 299 295 294 294 296 298 302 300 291 289 290 294 293 289
317 320 322 319 320 319 318 319 317 318 321 322 322 324 326 325 327 328 328 330 330 328 326 327 325 324 322 319 316 312 310 309 308 306 305 303 302 301 300 300 295 293 294 297 299 301 301 298 299 293 289 294
316 318 320 321 322 322 321 320 321 321 320 323 322 322 323 325 325 327 328 328 329 329 326 327 327 325 324 322 319 314 313 312 310 308 306 305 303 302 301 300 297 295 294 295 296 297 298 296 296 297 292 293

ECMWFFLT2_sfc_thetae_087.txt.gz
Theta_e
339 341 342 342 342 342 341 341 339 338 338 339 343 337 338 340 341 340 340 339 337 335 333 332 336 337 337 337 335 336 338 339 339 338 338 337 336 337 337 336 337 337 337 335 334 332 332 330 327 325 325 331
336 339 341 341 340 341 341 340 341 340 340 340 340 339 339 339 340 340 339 339 336 334 334 335 337 337 337 336 336 336 336 337 337 336 337 336 336 336 336 336 336 336 335 334 333 332 330 329 327 325 325 330
341 333 337 338 338 338 339 340 339 339 337 336 335 334 333 332 332 334 336 337 336 335 334 333 333 338 337 336 335 335 336 337 337 336 336 336 336 335 336 336 335 335 334 333 332 330 328 324 322 321 326 329
342 334 331 334 334 336 337 337 337 335 332 329 328 327 327 326 329 328 331 327 332 330 333 330 330 334 335 335 334 335 335 336 336 336 335 335 335 335 335 335 334 333 333 332 330 328 325 322 321 329 329 330
341 339 330 331 329 331 333 334 333 330 324 322 321 322 320 322 331 332 333 334 334 324 332 324 325 333 335 334 334 335 334 335 335 335 335 335 335 334 332 328 328 329 330 329 327 326 323 320 330 329 329 330
339 338 335 339 338 339 335 329 326 329 331 326 329 319 325 329 328 329 330 331 328 332 331 329 323 328 332 333 333 334 333 335 335 335 335 334 332 329 325 321 326 324 322 322 323 320 318 328 329 329 329 331
339 338 338 338 337 336 329 331 331 331 329 329 328 327 327 326 328 328 329 329 328 329 321 327 324 327 329 331 331 333 334 333 333 334 333 331 328 325 320 322 322 322 323 322 316 317 324 328 328 326 327 329
339 339 338 337 337 335 334 333 331 330 329 328 327 327 326 326 326 327 328 323 322 323 330 328 323 324 325 325 324 325 330 330 331 330 328 326 323 320 319 321 320 320 321 321 322 323 323 325 325 325 326 328
338 338 338 337 336 334 333 332 331 329 328 327 326 326 326 326 325 326 327 327 327 328 329 330 330 329 327 326 324 320 323 323 321 321 321 319 318 319 319 320 319 320 320 320 321 321 321 322 322 323 324 326
338 338 338 337 335 333 331 331 330 329 328 327 326 326 325 324 325 325 325 326 326 326 328 328 327 326 325 323 321 319 319 317 318 317 318 318 317 317 317 317 318 318 319 319 320 320 320 321 322 322 323 325
338 338 338 338 336 334 331 330 329 328 327 327 325 325 324 325 325 325 325 325 325 325 326 326 325 324 323 321 318 316 317 315 315 316 316 316 315 315 316 315 315 316 316 318 319 318 318 319 320 321 322 322
338 338 338 338 336 335 331 329 329 328 327 326 325 324 324 324 325 325 324 324 324 324 324 324 323 322 322 321 317 314 315 314 313 314 314 314 314 314 314 315 314 315 315 316 317 318 317 317 318 319 319 319
338 338 338 337 336 336 329 331 329 328 326 326 325 324 323 323 324 324 324 323 324 323 324 322 322 322 321 320 316 314 313 314 313 313 313 314 314 314 314 314 314 314 314 315 316 317 316 316 316 317 317 317
338 337 337 337 336 336 331 333 331 327 326 326 324 324 323 323 324 324 324 323 322 323 322 322 321 321 320 320 315 314 313 312 313 313 312 312 313 313 313 314 312 313 314 314 314 314 315 315 314 314 315 315
338 337 337 336 337 336 333 334 331 328 326 325 324 324 323 322 322 323 323 323 322 323 322 321 320 320 319 319 315 314 312 311 312 311 312 312 312 313 313 312 311 312 313 313 313 312 313 312 312 312 311 312
337 337 337 337 337 337 335 334 332 330 327 323 323 323 323 322 321 321 321 322 321 322 321 320 320 320 319 319 316 313 311 310 310 311 310 310 310 310 311 310 310 311 312 312 311 310 310 310 311 311 311 312
338 338 337 336 336 336 336 334 333 330 329 327 324 323 323 322 321 320 320 320 320 319 320 320 319 319 319 318 316 312 310 309 309 308 308 308 308 308 309 310 309 309 310 310 309 309 309 309 309 308 309 310
337 337 337 336 336 335 336 335 334 332 331 329 326 324 323 323 321 320 320 320 319 319 319 319 318 318 317 317 315 311 309 309 308 308 309 307 308 307 309 310 309 310 310 307 306 308 306 307 307 307 308 308
337 337 337 336 336 336 336 335 334 333 331 330 329 327 324 323 322 321 320 320 319 318 319 318 317 317 317 316 314 310 309 308 307 308 308 307 309 307 308 308 307 309 309 307 308 307 305 307 305 305 306 305
336 337 337 337 332 336 335 335 335 335 333 331 330 327 326 325 323 321 321 320 319 318 318 318 318 318 317 316 313 311 308 307 305 305 306 306 309 307 306 306 306 306 307 306 306 304 304 304 303 304 303 304
336 336 336 337 336 336 335 335 335 335 335 333 330 328 326 325 323 322 322 321 320 318 317 317 318 318 318 317 315 313 308 307 307 305 305 304 305 309 307 305 305 303 304 304 304 302 302 302 302 303 303 303
335 335 336 336 336 334 335 335 335 335 335 334 331 329 327 327 324 322 322 321 320 318 317 317 317 318 318 316 316 314 310 308 307 306 306 304 304 306 306 305 305 303 302 302 301 301 301 300 300 301 300 300
335 336 336 336 335 335 335 335 335 335 334 335 334 331 329 327 325 322 322 321 320 318 318 317 316 316 316 315 315 314 311 310 307 306 306 306 305 305 307 308 307 306 303 301 299 299 299 299 299 300 298 298
334 334 333 332 333 333 333 335 333 335 335 335 334 332 329 327 327 326 323 322 321 320 320 318 317 316 314 314 314 314 312 310 308 306 306 307 307 303 303 304 306 305 302 300 300 299 298 297 297 297 298 297
332 331 332 332 332 331 333 332 334 333 335 336 336 335 332 329 328 328 324 322 322 321 318 318 317 317 315 314 313 314 314 313 309 307 306 305 305 303 301 301 301 302 302 300 300 299 299 298 297 297 297 296
332 333 333 332 332 332 332 331 331 331 333 335 336 336 336 333 331 329 326 323 323 322 321 320 319 317 316 313 312 313 314 313 309 308 307 306 305 303 302 300 299 299 301 299 302 301 300 301 300 298 297 295
331 333 333 333 333 332 330 329 333 334 332 332 334 334 334 334 333 331 328 325 323 322 321 320 319 319 317 312 311 311 312 313 311 310 307 305 304 301 301 300 299 299 302 303 302 301 299 299 300 304 299 299
332 332 330 330 331 329 331 328 322 327 327 331 332 332 332 333 333 333 331 329 325 324 323 321 320 320 318 313 311 312 312 311 310 309 307 306 305 304 299 299 298 300 301 303 301 298 298 298 299 300 304 303
327 326 327 325 321 321 322 319 320 324 325 326 325 330 332 333 333 333 332 331 327 325 325 323 322 320 319 318 314 312 312 311 310 310 309 307 305 304 303 301 301 299 300 302 305 306 296 295 295 299 306 300
325 326 326 323 323 321 321 322 320 320 324 325 324 326 328 328 331 332 332 332 330 327 325 325 323 322 321 319 316 313 314 312 310 310 310 308 306 305 306 307 304 300 298 300 302 305 306 307 308 304 300 303
323 324 325 325 325 326 324 324 325 325 326 327 327 326 326 328 328 329 330 330 331 329 326 326 326 324 323 321 319 315 314 312 311 311 310 309 307 306 306 306 305 303 299 297 299 300 302 303 300 305 300 300

ECMWFFLT2_sfc_thetae_090.txt.gz
Theta_e
339 341 343 343 342 341 341 342 339 340 343 340 340 341 340 341 341 340 337 335 334 333 335 338 337 336 335 336 337 340 340 340 339 338 337 337 336 337 337 336 337 337 336 334 333 332 331 330 328 326 326 333
336 339 341 341 341 341 341 341 341 341 341 341 342 341 340 340 340 340 337 336 334 334 337 339 338 336 336 335 336 339 338 338 337 336 336 336 336 336 336 337 336 336 335 333 333 331 331 329 327 326 326 332
344 334 337 338 338 339 339 340 339 338 336 337 338 336 336 336 335 334 334 335 335 335 334 335 336 338 338 335 335 336 337 336 336 336 336 335 335 336 336 336 336 335 334 333 332 330 327 324 323 322 328 332
344 335 331 335 335 336 337 337 335 333 331 328 329 329 330 330 335 331 334 326 332 329 332 332 333 334 336 335 336 336 336 336 335 335 335 335 335 335 335 335 335 334 333 332 330 328 325 323 320 331 331 331
344 344 330 332 330 331 333 333 331 328 323 322 321 325 324 328 338 339 336 336 333 326 335 325 327 333 336 336 337 338 336 335 335 335 335 335 335 335 333 330 329 329 331 330 329 326 324 320 331 331 331 330
343 344 337 341 341 342 336 329 326 333 338 334 336 323 333 338 337 336 337 335 332 332 334 333 324 328 333 335 334 335 334 334 334 334 335 334 334 332 329 326 334 330 323 323 325 323 319 332 330 331 330 330
343 342 342 341 341 340 333 337 339 339 337 338 337 337 336 333 336 336 335 335 333 334 324 332 324 327 329 331 330 334 335 335 334 334 334 332 330 328 326 332 334 333 333 331 318 319 331 331 329 329 330 330
342 342 342 340 340 339 339 339 340 340 339 338 337 337 335 334 336 336 336 327 325 329 334 331 322 323 325 326 325 327 332 331 331 331 329 327 325 327 329 333 333 332 333 333 333 333 331 331 330 329 329 329
341 341 341 340 339 339 338 338 338 338 338 338 338 337 334 335 336 336 334 333 332 332 332 333 333 333 333 333 334 327 333 332 333 331 331 328 327 332 332 332 332 332 332 332 332 331 331 330 331 329 329 329
341 340 340 339 338 338 338 339 337 337 337 337 337 336 335 334 334 334 334 334 333 333 332 332 332 332 332 332 331 331 330 329 330 329 329 330 330 330 331 331 332 331 330 331 331 330 331 330 330 330 328 329
341 340 340 339 339 338 337 337 336 335 336 336 336 336 335 333 333 333 332 333 333 331 332 331 331 331 331 331 330 330 329 329 329 328 328 328 329 328 329 329 329 330 330 331 331 331 331 330 330 330 329 329
340 340 340 339 339 338 335 335 335 335 336 337 335 335 334 332 333 332 331 332 331 331 331 331 331 331 330 329 329 329 329 327 327 326 327 327 327 327 327 327 328 328 329 329 330 330 330 331 330 329 329 328
340 340 340 339 339 337 334 337 337 336 336 335 334 334 334 334 332 331 331 332 331 331 330 331 331 330 329 329 328 328 326 327 326 325 325 325 326 327 326 326 326 326 327 328 328 328 329 330 329 329 329 328
340 339 338 339 339 338 336 336 336 337 336 334 334 333 334 333 332 331 330 331 331 330 330 331 330 329 329 328 327 326 326 325 326 325 324 325 325 325 325 325 325 325 326 326 326 327 327 328 328 328 328 328
340 340 338 338 339 339 337 337 336 335 335 335 334 334 334 333 333 332 331 331 331 330 330 330 330 328 329 328 326 326 326 325 326 326 325 325 324 324 325 324 325 324 325 326 325 326 326 327 327 327 327 327
339 340 339 338 338 339 338 338 336 335 334 333 334 335 333 333 332 331 331 331 331 329 330 329 328 329 328 328 327 326 325 324 325 325 325 325 325 325 325 324 323 324 324 325 325 325 325 325 326 326 326 326
339 340 340 338 338 338 338 337 336 335 334 334 334 333 334 332 332 330 330 330 330 329 329 329 329 328 328 328 328 326 325 324 324 323 322 322 322 323 323 323 323 323 323 324 324 324 324 324 324 325 325 325
338 339 340 340 339 338 338 338 337 335 335 334 333 333 332 331 330 329 329 330 330 329 328 328 327 327 327 328 328 325 323 322 322 321 321 321 321 319 321 322 323 322 322 322 323 323 323 323 324 324 323 324
338 339 339 339 339 338 338 338 337 336 335 334 333 332 331 330 329 328 328 328 328 327 327 326 325 326 327 327 326 323 323 322 321 321 320 320 320 321 320 321 322 321 322 322 321 322 322 322 323 321 322 323
338 338 339 339 334 339 339 337 337 337 336 335 334 332 331 331 330 328 327 327 327 326 327 326 326 325 326 325 324 323 321 321 320 320 320 320 320 318 319 319 320 320 320 321 321 322 321 321 320 320 321 321
337 337 338 339 339 339 338 337 337 337 337 336 335 334 333 333 332 329 329 327 326 326 326 325 325 324 325 325 324 322 321 320 321 320 319 318 319 320 318 318 318 319 319 319 319 321 320 320 319 319 320 320
336 336 337 338 340 338 338 338 337 337 337 336 335 335 334 334 333 330 330 329 328 326 326 326 325 325 325 325 324 323 321 320 320 319 318 317 317 318 318 317 317 317 317 318 317 318 318 318 317 318 319 319
337 336 336 338 338 338 337 338 338 338 337 336 336 335 334 334 333 331 332 330 328 328 326 324 325 326 326 325 324 324 321 320 319 318 318 317 317 316 317 317 317 317 317 314 314 315 315 315 315 315 316 315
336 336 334 333 335 335 335 337 335 338 337 337 336 335 335 333 333 333 332 331 329 329 326 324 324 325 325 324 323 322 321 318 318 317 316 316 317 316 314 315 315 314 312 311 311 311 312 313 311 311 311 311
334 332 334 334 332 332 334 335 337 335 336 337 337 337 336 334 333 334 332 329 329 327 324 325 323 323 323 321 319 319 318 318 318 318 317 316 316 315 311 310 311 309 309 308 307 309 307 307 309 308 308 308
333 334 333 332 332 333 333 334 334 334 336 336 337 338 337 336 335 333 331 328 327 326 326 324 323 322 321 320 319 320 320 319 317 318 316 313 311 312 310 309 308 307 307 305 305 305 304 305 307 308 308 307
332 334 334 334 333 334 334 337 337 337 337 338 338 337 337 337 337 335 333 332 329 328 327 325 323 324 324 323 321 318 318 319 319 318 314 311 310 309 310 311 311 308 309 308 307 307 304 302 304 309 307 309
332 334 335 336 335 335 335 334 336 337 337 336 337 336 338 338 338 337 335 334 332 329 329 328 327 327 326 324 321 318 318 319 319 317 313 312 311 312 309 309 309 308 308 309 307 302 301 303 303 302 308 310
331 332 333 334 334 335 334 333 333 331 330 332 335 335 336 336 337 336 334 333 331 327 327 328 327 328 327 325 322 318 318 318 318 318 315 313 313 313 312 308 310 308 308 308 311 310 303 301 299 302 308 308
329 329 329 329 328 326 327 326 327 326 327 330 330 331 335 338 338 338 337 335 333 331 327 327 326 325 325 325 324 320 318 319 319 318 316 314 313 313 313 312 311 309 306 307 308 310 311 312 309 310 307 306
326 327 328 328 327 327 327 326 327 329 330 330 331 332 333 334 335 335 336 337 336 333 331 330 329 328 326 325 324 322 319 317 318 317 317 317 315 314 313 312 312 311 306 305 306 307 308 309 311 310 307 304

ECMWFFLT2_sfc_thetae_093.txt.gz
Theta_e
340 341 343 342 341 340 340 340 341 344 339 342 342 341 341 340 338 338 335 335 339 338 337 336 337 336 336 340 340 341 339 339 338 338 336 336 336 336 336 336 337 336 335 334 334 333 332 331 330 328 324 331
337 340 342 342 341 342 341 341 340 342 345 343 343 342 341 340 340 338 337 337 338 340 339 339 338 336 337 339 340 339 338 337 337 336 336 335 336 336 336 336 336 335 334 334 333 332 331 330 328 328 324 330
342 333 337 339 339 340 341 339 339 339 339 339 340 339 338 336 333 331 331 333 334 336 336 336 337 339 338 336 337 337 337 337 336 335 335 335 336 336 336 336 335 334 333 333 332 330 328 325 325 322 327 330
342 334 332 335 336 336 337 336 335 333 332 331 332 333 332 330 333 329 332 326 333 331 334 331 333 335 337 336 336 336 336 336 335 335 335 335 335 336 336 335 335 333 333 332 330 329 326 325 320 334 329 329
342 342 330 331 327 330 333 333 331 329 324 323 323 328 326 328 336 334 331 334 333 328 336 325 327 333 337 337 336 336 335 335 335 335 334 334 335 335 333 329 329 329 331 330 329 327 325 321 329 330 329 329
342 344 337 340 341 341 334 328 326 332 337 337 339 327 334 337 335 335 335 331 333 334 334 331 324 328 333 336 334 336 335 334 334 334 334 334 334 333 331 326 333 329 323 323 325 324 320 327 329 329 329 328
342 339 338 340 338 339 333 337 337 338 337 337 337 337 336 334 335 335 334 333 337 335 325 331 323 327 329 332 332 335 336 334 334 334 335 333 332 331 329 332 334 333 332 332 319 319 327 330 329 328 328 329
341 340 339 338 338 338 337 339 337 339 337 338 337 337 336 334 336 335 335 328 328 331 334 330 322 323 325 327 328 329 332 331 333 332 331 329 328 328 329 333 330 330 332 331 331 331 330 330 328 328 328 328
340 340 339 339 337 337 336 337 336 337 337 338 338 337 334 336 335 335 335 332 331 332 332 332 332 332 332 331 333 326 330 330 334 331 331 331 327 331 331 330 331 330 330 330 330 330 329 329 329 328 328 328
340 340 339 338 337 336 337 338 337 336 336 336 337 335 335 335 334 334 334 333 332 333 333 332 331 331 332 331 330 329 330 329 329 328 328 328 329 328 329 329 330 330 329 329 329 328 330 328 328 328 327 329
341 340 340 339 338 337 335 336 336 335 335 335 335 335 336 333 332 332 332 332 332 331 332 331 331 330 330 330 330 328 329 329 329 328 328 328 328 328 329 328 329 329 329 329 328 328 329 328 328 328 327 328
340 340 340 340 339 337 335 335 335 335 336 336 335 335 334 331 333 332 331 332 332 331 331 331 331 331 330 330 329 329 329 329 328 328 328 328 328 328 328 328 329 328 329 329 329 328 328 328 328 327 327 327
340 340 340 340 339 337 334 336 336 336 336 336 335 335 334 332 332 332 332 332 332 331 331 331 331 330 329 329 328 327 326 327 327 326 327 327 327 327 327 327 327 327 327 327 327 326 327 327 327 327 327 327
340 340 339 339 339 339 337 337 337 337 335 335 335 334 334 334 332 332 331 332 331 331 331 331 331 330 329 328 328 326 325 325 325 325 325 326 326 326 326 325 325 325 326 326 326 326 326 326 326 327 326 327
340 340 339 339 339 339 338 338 337 337 336 336 336 335 335 334 332 332 332 331 331 331 331 331 331 329 329 328 328 326 325 326 325 325 325 325 324 324 324 324 325 324 323 325 325 325 326 326 326 326 326 326
339 340 340 340 339 339 339 339 338 336 336 334 336 336 336 335 334 331 332 332 332 331 330 330 330 329 329 328 328 327 326 326 325 324 325 326 326 326 325 324 324 325 323 323 324 325 325 326 325 325 325 325
339 340 340 340 339 339 341 339 338 337 336 336 336 336 336 335 334 333 331 332 332 331 330 330 330 329 329 329 329 328 327 326 325 324 324 325 326 325 324 323 323 325 324 322 323 325 325 325 325 325 325 324
339 339 340 340 340 339 339 339 338 337 337 337 336 336 336 335 335 333 332 331 332 332 329 330 330 329 329 329 329 328 327 325 324 322 322 322 323 320 322 322 322 322 322 321 322 323 325 324 324 324 324 323
339 339 339 340 340 339 339 339 338 337 337 337 336 335 335 334 333 334 333 331 330 330 329 329 329 328 328 329 329 328 326 324 324 323 322 321 321 321 321 321 322 322 321 321 321 322 323 323 324 323 323 324
339 338 339 339 335 340 340 338 338 338 337 337 336 335 334 334 333 333 333 332 331 329 329 328 327 327 328 329 328 327 325 324 323 322 322 322 321 319 320 320 320 321 321 321 320 322 322 322 322 322 322 322
338 338 338 338 339 340 340 339 338 338 338 337 336 335 333 332 332 333 333 333 332 330 329 328 327 328 329 329 328 326 325 324 324 322 321 321 321 321 319 319 319 320 320 320 320 321 321 322 322 321 321 321
336 337 337 338 339 338 339 339 339 338 338 337 337 336 334 334 333 332 333 333 333 331 330 330 329 329 329 329 327 326 325 324 324 323 322 320 321 320 319 318 319 319 319 320 320 320 320 321 321 320 320 320
335 336 336 336 337 338 338 338 339 339 338 337 337 337 336 336 335 334 334 333 333 332 331 329 329 329 329 328 327 326 325 325 324 323 322 321 320 320 320 319 320 319 320 320 319 319 318 318 319 319 319 319
334 334 333 333 334 334 335 337 336 338 338 339 338 337 336 335 335 334 333 334 334 333 331 331 330 329 329 328 327 326 325 325 323 322 321 320 320 320 319 319 319 319 318 317 316 314 315 315 316 316 316 316
333 331 332 332 331 330 332 333 336 336 338 338 338 338 337 336 335 335 334 334 335 333 330 331 331 330 328 328 327 326 325 326 325 323 321 320 319 319 318 317 318 318 315 312 311 311 311 311 313 313 313 313
333 333 332 331 330 330 331 331 332 333 335 337 338 339 338 336 336 335 335 334 334 334 333 331 329 329 327 327 326 325 325 325 320 320 319 319 318 319 318 317 317 314 312 309 308 308 310 311 312 312 312 311
333 334 334 334 333 332 331 334 334 334 335 337 337 337 337 337 337 336 336 335 333 332 332 330 327 326 326 325 323 321 321 322 322 322 320 319 318 317 317 317 316 313 312 310 312 311 307 306 307 312 311 312
335 335 335 335 334 334 333 332 334 334 335 336 336 335 337 338 337 336 335 335 334 332 332 331 330 329 328 327 325 323 322 322 322 322 321 320 318 318 314 312 313 314 312 312 312 306 306 307 306 304 308 312
333 333 333 332 333 334 333 334 334 334 333 334 334 334 334 335 338 338 338 338 336 333 332 332 331 330 330 329 328 326 324 323 323 323 322 321 318 316 314 314 314 314 313 312 314 314 307 305 302 304 309 311
331 330 329 329 327 327 327 326 328 326 326 328 331 332 334 334 334 335 337 338 336 335 331 331 331 331 330 329 329 326 324 323 323 322 321 321 318 317 317 316 316 314 311 311 312 314 315 315 312 311 311 309
329 328 328 328 328 328 326 325 327 329 330 329 329 331 331 333 335 337 337 336 336 335 333 331 330 330 329 328 327 325 323 322 321 320 321 321 320 318 317 316 313 314 313 308 310 311 311 311 312 312 309 306

ECMWFFLT2_sfc_thetae_096.txt.gz
Theta_e
340 342 343 342 343 341 342 344 339 341 342 342 342 340 339 337 338 339 340 339 337 337 337 337 337 341 341 341 340 340 338 338 337 337 336 337 336 336 336 336 337 336 335 335 334 334 332 332 330 327 324 327
337 340 342 342 342 341 341 342 344 343 342 342 341 340 339 339 338 338 339 340 342 340 339 339 339 339 340 340 339 338 337 337 336 336 336 336 336 336 336 336 335 335 334 333 333 332 331 331 329 326 324 323
334 333 337 339 339 339 340 340 340 341 339 339 339 338 336 333 331 331 333 335 337 336 336 335 335 339 339 338 337 337 337 336 336 336 335 336 337 336 336 336 335 334 334 333 333 332 329 327 323 321 324 324
336 330 331 335 336 336 336 336 336 336 336 334 332 331 330 328 326 325 327 327 329 330 333 331 332 335 337 337 336 336 336 335 335 335 335 335 336 336 335 335 334 333 333 332 331 331 328 324 319 323 323 323
337 331 328 327 327 330 333 333 332 331 327 325 324 325 323 325 329 327 327 330 330 325 326 324 327 333 337 337 336 336 335 335 335 335 335 335 336 335 333 330 329 329 331 330 330 329 324 318 322 324 323 322
339 334 334 336 332 330 327 325 325 328 331 334 330 325 326 330 330 327 328 329 333 328 327 325 324 328 334 336 335 336 335 334 335 335 335 335 334 334 332 326 324 321 322 324 326 323 318 321 322 323 323 323
338 336 336 336 335 335 329 330 331 332 333 333 332 331 332 331 330 330 328 329 331 329 322 324 323 327 330 333 332 334 335 334 334 334 335 333 332 332 330 323 324 325 322 320 318 318 322 323 323 322 322 322
336 332 334 334 334 334 334 332 332 332 332 332 333 332 332 329 330 329 326 328 328 328 326 323 321 324 326 328 328 329 330 331 333 334 332 331 330 328 324 325 325 326 326 324 323 324 323 325 323 322 322 323
335 332 332 333 332 333 331 333 331 332 332 332 333 332 331 331 328 330 328 326 326 326 327 326 324 323 325 326 324 324 325 326 326 325 322 321 321 322 325 325 325 325 325 325 325 325 324 323 322 322 320 322
335 335 332 332 332 331 331 332 330 331 331 331 332 331 331 330 328 328 326 326 324 326 327 327 325 325 325 324 324 323 324 324 325 324 324 322 323 324 326 324 323 322 322 323 323 323 322 322 322 322 321 322
336 334 334 334 332 332 330 332 331 329 330 331 332 330 329 328 327 326 326 326 325 326 327 327 326 325 325 324 323 321 322 321 322 320 320 321 322 321 321 321 320 321 321 322 323 322 321 321 321 320 320 321
336 335 335 334 332 333 330 330 330 329 330 331 330 330 329 327 327 326 326 326 325 325 325 325 326 325 324 323 324 322 323 322 320 321 320 320 320 320 320 321 321 320 321 321 320 320 320 321 320 319 319 319
335 336 335 335 333 332 331 331 331 331 331 331 329 329 329 326 326 326 326 326 326 325 324 325 324 324 323 323 322 322 320 322 320 319 319 319 320 319 318 318 319 319 318 318 318 320 318 319 319 319 320 319
334 335 334 334 333 332 331 332 332 332 330 330 330 329 329 328 327 326 325 326 326 325 324 324 324 323 322 321 321 320 319 320 320 319 318 318 318 318 318 317 319 319 319 318 318 318 317 318 318 317 319 320
334 335 334 335 334 334 334 332 332 332 330 329 329 329 329 329 327 326 326 326 326 325 325 324 325 323 322 322 322 320 319 318 319 318 318 319 318 317 317 317 317 317 317 316 317 318 317 318 316 318 319 318
335 335 335 335 335 334 334 334 332 331 331 328 330 330 330 329 328 326 325 326 326 324 325 324 324 323 322 322 322 321 319 319 318 317 317 318 318 317 317 317 317 318 316 315 317 317 318 318 318 317 318 317
335 335 336 335 334 335 336 334 334 333 331 331 331 331 333 330 329 327 326 325 325 324 324 324 324 323 322 323 323 321 319 319 318 317 317 318 320 318 317 316 316 317 316 315 316 317 318 319 319 319 319 318
334 335 336 336 335 335 336 333 332 332 333 333 332 332 332 332 331 329 327 325 325 325 323 323 323 322 322 322 322 322 320 319 318 316 316 316 317 317 315 315 316 315 315 315 315 316 316 318 319 318 319 317
334 335 335 335 335 335 334 334 333 331 334 334 333 332 333 332 331 331 329 327 325 324 323 322 322 322 323 324 322 321 320 319 318 317 316 315 316 316 315 315 316 316 316 315 316 316 317 318 318 318 318 317
335 335 335 334 332 336 334 332 334 333 333 334 334 333 332 332 331 331 332 330 327 323 323 323 322 323 323 322 322 322 320 320 318 317 317 316 316 314 314 315 315 315 315 316 316 315 316 316 316 316 316 317
334 335 334 334 334 336 335 333 333 333 333 333 333 333 331 331 330 331 331 331 330 326 323 321 322 322 322 321 321 321 320 318 319 317 317 316 316 315 313 313 313 314 315 315 316 315 315 316 316 315 316 316
334 334 333 332 333 331 334 334 334 334 334 333 330 332 331 331 331 330 330 330 330 330 328 326 322 321 323 323 323 321 320 318 318 317 317 315 315 316 314 313 313 313 314 315 315 314 314 314 314 314 315 315
333 333 332 332 332 331 332 333 334 334 333 332 332 331 331 332 331 329 328 327 328 329 328 326 326 325 323 323 322 321 320 319 318 317 317 316 315 315 316 315 315 314 314 315 314 314 314 313 314 314 313 314
329 330 329 328 328 328 329 332 331 333 332 333 333 332 331 331 331 331 329 329 328 327 326 325 324 324 324 323 321 320 320 318 317 317 316 315 315 314 314 315 316 316 313 311 310 308 309 310 310 311 310 311
327 326 326 326 327 327 327 330 331 332 332 333 331 332 333 332 331 331 330 329 328 328 326 328 327 325 323 323 322 320 320 320 319 319 318 317 315 315 316 315 315 315 313 309 307 308 307 308 309 309 309 311
328 327 326 326 326 326 326 327 327 328 330 333 334 333 332 332 331 331 331 330 331 331 330 329 327 325 324 323 321 320 320 319 317 318 317 317 316 316 315 315 316 314 311 306 306 305 306 305 307 308 309 309
327 327 327 327 326 326 324 325 328 329 329 331 333 333 333 334 333 333 333 333 331 331 329 327 325 325 321 321 322 321 321 321 318 318 318 317 316 315 314 314 316 312 312 309 306 308 306 306 308 309 305 307
328 328 327 327 327 328 327 325 324 326 327 328 330 331 333 333 333 332 332 332 331 329 329 328 327 325 323 322 321 321 321 321 320 320 318 318 317 316 314 311 310 310 310 311 310 306 305 306 304 304 307 307
326 327 326 327 325 324 325 325 324 325 323 323 325 329 329 331 332 332 331 330 330 328 329 330 330 328 326 324 323 322 321 319 319 319 319 319 317 315 315 313 313 312 311 310 312 312 307 304 301 302 307 306
326 325 324 322 321 320 319 318 319 320 320 321 323 324 325 326 330 332 331 330 330 329 326 328 328 328 327 325 324 324 323 322 320 320 320 320 319 317 316 316 315 313 311 311 311 312 314 314 311 309 307 308
325 322 322 322 321 321 320 318 319 320 322 322 322 327 328 328 327 326 329 331 332 331 329 328 328 328 327 327 326 322 321 319 319 319 319 318 317 318 317 315 313 314 314 309 310 311 311 311 312 312 308 306

ECMWFFLT2_sfc_thetae_099.txt.gz
Theta_e
339 341 343 342 343 343 342 342 342 342 342 340 339 339 339 340 341 342 338 337 339 339 341 341 341 341 341 340 339 338 337 337 337 337 337 337 337 337 337 336 336 336 335 334 334 334 332 330 328 325 323 323
337 340 341 341 340 342 342 342 342 342 341 341 339 339 338 339 340 341 341 341 339 339 340 341 340 340 340 339 338 337 337 337 337 336 336 336 336 336 336 335 335 334 334 334 335 332 331 328 326 324 323 320
333 333 337 338 338 340 341 342 341 341 338 338 337 336 333 333 333 333 334 335 336 337 335 336 338 339 339 338 337 336 336 336 336 336 336 336 337 336 335 335 334 334 333 334 333 332 329 325 322 320 321 320
331 329 331 334 335 336 337 338 338 337 335 332 330 329 328 327 327 326 326 326 328 331 334 333 331 335 337 337 337 336 335 335 335 335 335 335 336 336 335 335 333 333 332 332 332 330 327 323 319 321 319 319
331 327 327 328 328 330 333 334 334 333 327 324 323 323 322 323 325 325 326 326 324 323 325 325 328 334 337 336 336 335 335 335 335 335 335 336 335 335 334 331 330 330 332 332 330 328 323 318 320 320 318 320
332 329 329 328 327 327 327 326 326 327 328 331 324 322 323 324 325 326 326 326 329 323 324 324 325 329 334 336 334 335 334 334 335 335 335 335 335 334 331 324 318 320 323 325 326 323 318 319 318 319 317 320
332 332 331 329 328 327 325 329 329 329 329 327 327 324 324 325 323 324 325 326 326 325 321 323 323 328 331 333 332 334 335 334 334 334 334 333 333 333 329 320 319 317 315 316 318 317 317 317 319 320 317 319
333 332 332 331 330 328 327 327 328 329 329 328 328 328 327 326 325 324 326 328 327 326 322 322 323 326 327 328 328 329 330 332 334 334 333 332 332 329 322 318 318 319 319 317 316 318 317 318 319 318 317 317
331 332 332 332 331 330 328 327 328 328 329 329 328 328 329 326 325 325 325 325 324 322 322 320 320 321 323 321 319 323 319 321 322 320 319 317 319 315 316 318 320 320 321 320 318 319 318 318 317 316 316 317
329 329 331 330 331 331 330 329 328 327 328 328 329 326 326 326 325 324 324 323 323 323 323 322 322 321 321 319 320 320 322 317 319 316 316 315 315 316 317 318 318 317 320 319 318 318 319 317 316 315 315 317
329 328 330 330 330 329 330 328 327 326 328 329 329 326 325 325 323 322 322 322 321 322 324 323 322 321 321 322 320 321 320 320 319 319 318 317 318 317 317 315 315 315 315 316 317 316 316 315 316 315 316 316
331 330 330 330 327 328 328 327 326 327 328 329 329 327 326 324 324 323 321 323 321 322 323 323 323 322 321 320 321 319 318 320 317 314 317 317 315 315 315 315 317 315 314 314 315 316 314 314 315 315 314 314
332 332 332 330 329 328 327 328 328 328 328 328 328 328 325 324 323 321 323 323 323 321 323 323 323 321 322 321 320 319 316 319 317 316 314 315 316 314 314 314 314 315 315 313 313 314 314 314 314 315 315 315
333 332 331 331 330 328 326 328 328 327 327 328 328 327 326 324 324 323 323 323 323 322 321 320 321 321 321 320 320 319 318 317 317 316 315 313 313 314 313 313 316 314 316 317 315 313 313 313 316 316 314 315
333 333 332 331 330 329 329 329 328 327 327 327 327 327 327 325 324 323 321 323 323 323 321 320 321 320 319 318 319 318 317 318 318 317 318 316 315 315 314 315 313 315 317 316 316 315 314 315 314 314 315 314
332 332 332 331 331 330 330 329 328 327 327 325 326 326 326 326 325 324 321 321 322 323 321 320 321 320 319 319 318 318 317 315 317 317 316 316 316 315 315 315 313 312 313 315 315 313 315 316 316 315 315 314
332 332 333 332 331 331 331 330 329 328 327 327 327 326 326 326 326 325 324 320 321 319 321 320 321 320 320 320 320 318 317 316 315 313 312 312 314 313 312 312 313 311 311 314 314 313 314 316 316 317 317 317
332 333 334 333 332 331 332 330 328 328 327 326 328 328 327 326 326 325 324 322 319 319 319 320 320 321 320 319 319 319 317 316 315 315 313 313 313 315 314 314 315 312 313 311 311 312 312 311 315 315 316 316
332 333 334 333 332 331 331 331 330 328 329 327 327 329 329 328 327 326 324 322 321 319 319 318 318 318 321 321 318 318 317 317 315 315 315 312 313 311 312 313 314 313 314 312 313 314 314 314 315 315 315 316
332 332 331 332 330 333 332 330 330 329 329 329 327 328 330 330 330 329 327 325 322 320 319 318 318 318 319 318 317 318 315 315 316 315 314 312 313 311 313 312 313 312 313 313 313 313 313 313 313 314 314 315
331 332 331 331 333 334 333 332 330 328 329 329 329 329 330 330 329 329 330 330 328 325 321 318 317 317 318 317 317 316 315 314 316 315 315 312 312 313 312 311 311 311 312 313 314 314 313 313 313 313 314 315
332 333 332 329 329 329 332 332 331 330 329 329 327 327 329 329 328 329 329 328 327 326 327 325 322 318 316 316 317 317 318 317 316 314 314 314 312 313 312 311 311 311 313 313 314 313 313 313 313 313 313 313
331 333 332 330 329 328 331 331 330 332 331 330 329 327 326 326 328 327 328 328 328 326 325 325 324 323 323 322 321 321 321 319 317 316 314 313 313 311 313 313 312 312 313 313 313 313 313 313 313 313 312 311
329 329 329 328 325 327 328 331 328 331 333 332 330 328 326 326 326 325 326 328 327 325 323 321 322 323 323 321 321 321 321 320 318 318 316 314 313 312 312 312 313 313 313 312 311 311 312 311 310 310 308 309
328 327 326 325 326 325 325 328 330 330 330 330 330 329 329 327 326 326 325 325 325 325 323 324 322 322 322 323 322 321 321 321 320 319 317 315 314 314 314 313 312 313 314 312 311 312 311 313 310 308 308 309
328 328 328 327 326 324 323 324 326 327 326 328 328 329 329 328 327 327 326 324 325 325 325 325 325 323 323 323 322 321 320 318 314 317 318 318 316 315 315 315 316 314 314 310 309 309 309 307 308 310 309 309
326 325 325 326 321 325 321 321 326 327 326 327 328 328 329 328 329 329 328 327 326 326 327 327 326 325 325 322 321 318 317 316 315 317 319 318 318 317 314 314 313 310 313 313 307 308 307 307 308 310 307 307
326 325 325 325 324 325 326 323 322 324 324 326 327 327 328 328 328 328 328 329 329 328 328 328 327 326 323 321 320 321 320 317 317 316 315 314 315 315 315 313 313 311 311 312 312 308 306 306 303 304 308 307
325 323 321 323 320 321 321 320 318 319 320 322 324 326 325 327 327 328 328 328 328 326 327 327 328 326 324 323 322 321 319 318 319 319 316 317 317 316 315 315 314 311 311 311 314 313 308 306 302 303 307 308
325 324 324 322 321 319 318 319 315 318 318 317 318 323 325 327 326 328 327 328 327 326 323 325 326 326 326 325 324 322 322 322 320 319 316 318 319 317 316 317 315 313 310 311 312 313 315 314 311 310 309 308
323 323 324 323 323 320 320 319 315 312 314 318 317 320 324 326 325 326 327 326 327 326 325 325 327 328 328 328 326 321 320 320 320 320 320 320 318 318 316 315 313 313 315 310 310 311 312 312 312 311 307 305

ECMWFFLT2_sfc_thetae_102.txt.gz
Theta_e
339 340 342 343 341 342 342 342 341 340 339 339 339 340 342 342 339 339 339 340 341 341 342 341 341 340 339 338 337 336 336 337 336 337 337 337 337 336 336 336 335 335 335 334 333 333 333 329 326 324 323 323
337 339 341 341 341 342 342 341 341 340 340 339 339 339 340 340 341 341 340 340 341 341 340 340 339 339 338 337 337 336 336 336 336 336 336 336 335 336 335 335 335 334 334 334 333 333 330 327 325 323 322 319
333 333 336 338 339 340 340 341 340 338 336 336 337 336 335 335 333 333 334 335 337 338 337 337 337 338 338 337 337 336 336 336 336 336 336 336 335 335 335 334 334 333 334 333 333 331 328 323 321 320 320 317
330 330 330 335 336 337 338 338 338 335 333 330 329 330 329 327 326 325 325 326 328 332 335 333 331 335 336 336 335 335 335 335 335 335 335 335 335 335 335 334 333 333 334 333 331 329 326 321 318 318 315 316
330 328 327 329 330 332 334 335 334 333 326 322 322 322 322 323 324 322 323 323 323 323 325 325 328 333 336 335 335 335 335 335 334 334 335 335 335 334 333 329 328 326 330 331 330 327 322 318 317 316 315 315
329 327 327 326 328 328 330 328 327 326 325 328 320 320 321 321 324 323 320 322 328 321 322 324 325 329 334 335 334 335 334 334 334 334 334 334 334 333 331 322 313 315 318 322 325 321 317 316 314 315 315 316
329 328 326 324 325 327 326 329 327 326 326 322 322 319 320 321 320 321 321 322 322 321 321 323 324 328 331 333 331 334 335 334 334 334 334 334 333 333 326 312 313 313 313 314 316 316 316 314 315 315 314 314
328 328 327 326 325 325 326 326 326 325 325 324 323 323 322 322 320 320 320 326 326 326 320 320 323 326 327 328 328 329 329 331 333 334 333 332 331 323 317 316 316 317 315 315 315 315 314 315 315 314 313 314
329 329 328 327 325 325 325 325 325 326 326 325 325 324 325 323 321 321 320 320 320 319 319 318 318 319 318 318 318 321 319 319 322 320 316 316 315 313 315 317 316 316 318 318 315 315 315 316 314 313 311 314
330 329 328 327 327 325 325 325 325 324 326 325 326 324 324 323 321 321 321 319 318 317 319 318 318 318 317 316 317 319 319 318 319 316 311 312 314 314 315 315 316 318 317 319 317 315 314 313 312 312 311 312
329 329 329 329 328 327 326 324 325 325 325 325 325 324 322 322 321 321 320 320 319 319 318 320 318 317 317 319 317 318 318 317 316 315 314 312 314 312 312 313 313 314 313 314 315 312 312 311 311 311 311 312
327 328 329 328 327 328 327 326 325 326 326 326 326 324 323 322 323 322 320 320 319 319 318 319 320 317 317 317 317 317 318 319 317 314 314 314 312 312 311 311 310 311 312 312 311 312 311 310 310 311 310 310
326 327 329 327 327 327 326 327 326 326 327 325 325 325 323 322 321 320 320 319 320 319 320 320 319 317 318 318 319 316 316 317 317 314 313 315 315 310 311 310 312 311 312 311 309 310 311 311 311 312 314 314
327 327 328 327 327 327 325 327 325 324 325 326 325 324 323 323 322 321 320 320 318 318 320 320 318 319 318 318 319 315 316 315 317 315 312 312 312 314 311 312 314 310 312 314 312 310 313 312 312 312 312 314
329 328 328 328 327 326 325 327 325 324 325 324 325 327 324 323 322 321 321 320 320 320 319 320 320 319 318 318 318 317 317 316 316 315 315 315 313 313 313 314 312 311 314 314 314 312 311 314 311 313 313 312
330 329 329 328 328 326 326 326 325 325 324 322 325 324 324 324 322 321 320 321 320 320 319 318 318 318 317 319 317 317 316 314 316 316 316 313 313 312 312 313 312 310 311 314 314 313 313 314 314 313 313 314
331 330 330 329 328 328 327 327 326 325 324 324 325 324 323 324 324 321 321 319 321 320 319 318 317 317 317 318 318 317 316 313 312 312 311 313 311 311 310 310 313 310 308 311 312 311 312 312 313 314 314 314
330 330 330 329 329 328 328 327 326 325 325 325 325 324 323 323 323 322 321 320 317 319 318 318 317 318 317 316 316 316 314 313 312 312 310 312 310 313 310 313 313 310 312 310 308 310 311 309 312 312 313 313
330 330 330 329 329 329 328 328 326 325 326 325 325 325 325 325 324 323 322 320 319 317 317 318 316 315 317 316 315 315 314 315 313 311 313 311 311 309 310 310 311 310 312 312 313 313 312 312 313 312 313 313
330 330 331 331 329 331 328 327 327 325 325 326 323 325 325 325 326 325 326 323 320 318 316 315 315 316 315 314 314 313 313 312 313 313 314 314 314 313 312 311 312 309 311 311 312 312 312 312 312 312 312 313
330 330 330 332 332 333 331 330 329 328 326 325 325 323 325 325 325 326 327 326 324 323 319 316 315 313 314 314 315 315 314 314 315 315 316 315 314 314 314 312 311 310 310 311 311 312 311 312 312 311 312 313
330 329 329 329 331 331 333 333 332 331 329 327 324 323 323 324 325 325 326 328 328 327 326 324 321 319 317 317 318 318 316 317 316 316 317 316 315 314 314 313 312 312 311 310 311 311 311 312 312 312 312 312
329 329 329 328 328 329 332 333 333 333 331 330 328 325 325 323 324 324 325 326 326 327 323 323 325 323 322 320 321 320 319 319 318 316 316 315 316 314 314 315 314 314 313 311 310 310 311 312 313 312 311 311
327 328 328 327 325 326 328 330 329 331 332 332 331 329 326 323 324 322 324 326 327 327 324 322 322 322 320 319 320 321 320 319 319 318 317 316 315 315 315 313 314 314 313 311 310 310 311 311 311 310 310 310
327 326 326 327 328 327 326 326 326 329 331 331 332 331 330 327 324 322 322 323 323 323 323 324 324 323 321 319 319 318 319 320 320 319 318 317 315 315 315 315 314 311 310 310 311 313 312 312 312 311 309 310
327 328 328 327 328 327 321 321 324 327 329 331 331 330 331 330 328 326 324 321 322 323 324 324 324 324 323 323 322 320 318 319 315 316 314 313 313 310 312 311 309 310 312 309 310 311 312 312 312 312 312 311
328 326 324 325 320 324 319 318 324 325 324 326 328 329 329 329 329 328 327 327 326 326 326 325 325 324 324 323 321 321 319 317 317 317 316 316 317 316 311 313 312 313 315 313 311 311 308 308 307 310 307 307
326 325 322 322 321 323 325 322 319 321 320 320 321 323 324 325 326 327 328 328 328 327 327 326 326 325 324 323 321 321 320 319 319 317 317 317 316 316 315 314 314 315 314 314 311 307 307 306 304 305 306 304
323 321 318 319 318 318 319 318 317 317 317 316 317 320 320 324 325 326 326 327 327 324 326 327 327 327 326 325 323 321 320 319 319 319 320 318 316 315 315 315 313 313 313 313 314 313 308 307 303 304 307 309
323 323 323 320 321 320 316 318 313 317 318 316 315 322 320 321 325 327 328 328 326 324 324 326 326 326 326 324 321 320 321 322 321 319 317 317 318 317 317 317 316 314 311 312 312 313 315 314 310 309 309 308
322 321 322 322 323 321 319 318 313 309 311 317 316 319 320 323 322 325 327 326 325 325 324 325 325 326 326 326 324 320 320 318 319 319 319 318 317 317 316 315 314 314 315 311 311 311 312 310 310 309 307 305

ECMWFFLT2_sfc_thetae_105.txt.gz
Theta_e
338 338 340 341 340 340 339 339 339 338 339 340 342 339 337 338 341 340 340 341 342 342 340 339 338 336 336 336 336 336 336 336 336 337 337 336 336 336 336 335 334 334 334 334 333 331 330 328 327 323 322 319
336 338 340 341 341 341 341 340 339 339 340 340 340 341 340 340 340 340 341 340 340 340 340 339 338 337 336 335 335 336 336 336 336 336 336 336 336 335 335 334 334 333 333 333 333 329 327 326 325 323 321 316
332 333 336 338 338 339 340 340 339 339 336 337 338 337 336 334 333 333 335 338 339 338 337 337 336 337 337 336 335 336 335 335 336 336 336 335 335 335 335 334 334 334 334 332 332 329 325 322 320 320 319 315
327 330 331 334 335 336 337 337 336 334 332 330 330 330 329 327 325 325 326 327 329 332 335 332 330 334 336 335 335 335 335 335 335 335 335 335 334 335 334 333 332 331 332 332 331 327 324 320 317 314 313 314
328 328 329 330 330 332 333 333 332 331 325 322 322 322 321 322 321 320 320 322 321 323 323 326 328 333 336 334 334 334 334 334 334 334 335 335 334 334 333 325 323 322 327 329 329 324 320 317 316 311 313 314
328 328 328 327 327 327 329 327 325 322 321 326 317 320 320 319 321 320 317 319 328 319 321 323 325 329 333 335 334 335 334 333 334 334 334 334 334 334 329 320 314 314 318 320 322 319 316 314 312 312 312 314
327 327 324 324 325 326 325 327 323 321 321 317 316 317 317 318 317 317 318 318 319 320 322 322 324 328 330 332 331 333 334 333 333 333 333 333 334 333 323 316 314 314 313 314 316 315 315 312 312 310 311 312
327 327 323 324 323 325 324 324 322 320 320 318 317 317 317 317 316 317 316 325 326 325 317 318 322 326 327 328 327 328 327 330 333 332 332 330 328 322 317 315 315 315 315 316 315 315 313 313 312 311 310 312
328 327 324 322 323 324 323 324 321 321 321 319 319 318 319 318 317 317 317 316 315 314 316 319 319 318 316 315 317 319 320 319 319 318 317 315 315 313 315 316 315 314 317 316 316 314 314 315 311 309 308 310
328 326 324 323 323 323 323 324 322 322 323 322 321 320 319 318 317 316 317 316 316 315 315 316 317 318 316 315 317 318 318 318 319 317 313 312 313 313 312 313 313 313 312 316 314 314 312 311 312 308 308 309
329 329 326 325 324 323 323 322 323 322 322 323 321 321 320 321 317 317 317 317 315 315 314 316 315 315 316 317 316 319 319 318 317 315 315 313 312 311 311 312 312 313 312 309 310 312 311 309 311 311 309 309
329 329 327 325 324 324 323 322 323 323 323 322 323 322 321 320 320 320 318 318 316 317 314 317 318 314 315 315 315 317 316 317 316 316 315 312 311 309 307 308 308 308 308 310 308 310 312 311 312 311 310 309
327 328 327 325 325 325 323 323 323 323 322 322 323 322 321 320 320 318 320 319 319 315 317 317 316 315 315 314 315 313 315 313 314 313 312 312 312 309 309 308 311 308 309 308 308 308 311 310 309 311 311 311
325 325 326 325 325 326 323 325 324 321 323 323 321 322 320 320 321 320 320 319 317 316 318 316 314 315 315 315 315 313 316 314 313 313 311 310 310 312 311 311 313 308 311 312 310 307 310 310 311 311 310 312
325 324 326 326 325 325 324 325 324 323 323 322 322 323 322 320 320 320 319 319 317 316 316 317 315 317 314 314 315 315 316 312 314 313 314 314 313 312 312 312 311 309 312 312 312 311 311 313 311 312 312 310
326 324 325 326 326 325 325 324 324 322 322 321 323 322 322 321 320 319 319 318 317 317 316 316 315 315 315 317 316 316 315 314 313 313 312 311 311 310 309 311 310 308 308 312 312 310 311 312 312 313 313 312
328 326 326 326 326 326 325 324 324 322 322 323 323 322 322 322 321 319 319 318 318 317 316 315 314 314 316 317 317 316 316 315 313 314 314 315 312 310 308 309 312 308 307 309 311 310 311 310 311 312 311 312
328 327 326 326 326 325 325 324 324 323 323 323 323 322 322 321 321 319 318 317 316 317 316 317 315 314 315 314 313 313 312 313 314 315 314 314 310 313 313 314 314 311 313 311 308 309 310 309 311 311 311 312
329 328 327 327 326 326 325 324 324 324 323 322 323 323 322 322 320 319 319 317 317 315 316 316 315 313 316 313 312 313 311 312 313 313 314 313 313 314 313 314 314 313 314 313 313 313 312 312 312 310 311 312
329 328 328 328 326 327 325 325 324 324 323 323 322 322 323 322 322 321 322 322 321 320 318 318 318 318 315 314 313 314 314 314 315 314 314 315 314 314 314 313 313 311 312 313 313 314 311 311 310 310 311 311
328 328 328 328 328 328 326 326 325 324 322 322 322 320 322 322 322 322 322 323 323 323 320 318 318 316 316 316 317 316 316 316 317 316 316 316 314 314 314 312 312 313 313 314 314 314 311 311 310 310 311 312
328 328 328 327 328 326 329 329 329 327 325 324 322 319 321 321 321 322 323 324 324 324 324 322 321 318 318 318 319 318 317 318 317 316 316 316 316 314 313 314 315 315 315 314 313 311 310 310 309 311 311 311
327 326 326 325 326 326 328 330 331 331 328 327 325 323 321 319 321 321 322 324 325 326 325 325 325 324 321 318 318 316 314 314 317 317 316 315 315 312 313 314 314 314 314 313 310 310 311 310 310 311 311 310
326 325 325 325 322 323 326 329 329 331 332 332 330 327 325 322 322 322 323 325 326 327 326 325 325 325 321 319 317 318 320 319 317 316 315 314 312 312 310 308 311 313 312 310 309 310 311 311 311 310 310 310
325 324 324 322 325 326 325 326 328 330 331 332 332 332 330 327 325 324 323 323 324 324 323 324 323 321 320 320 320 319 319 320 317 318 319 314 311 313 314 314 312 310 308 310 312 313 310 311 310 310 310 311
325 327 327 326 326 320 319 322 324 326 327 330 330 331 331 330 328 326 325 323 324 323 323 323 323 323 321 319 320 319 317 318 315 316 314 314 316 314 315 313 311 308 311 309 310 313 313 313 312 313 311 310
326 326 324 325 319 325 316 316 321 323 322 326 329 330 330 329 330 329 328 326 324 326 324 323 323 323 323 322 319 318 318 319 319 316 313 314 316 317 313 314 312 311 314 314 313 312 309 308 309 310 307 303
326 325 323 320 318 321 324 320 314 317 318 320 322 325 327 328 329 329 329 328 328 327 326 325 323 322 321 323 321 319 319 319 317 316 315 316 316 314 315 313 311 312 314 315 313 308 307 306 305 306 306 303
323 321 317 316 315 315 317 316 314 316 318 319 321 322 322 325 325 326 327 327 327 325 326 324 325 324 325 324 323 322 321 320 320 317 317 318 317 316 316 315 314 313 314 314 314 313 309 306 303 304 307 310
323 323 323 320 321 321 319 320 315 319 319 317 316 321 321 322 323 325 326 325 325 326 324 325 325 325 324 323 324 322 322 320 318 319 319 319 317 316 316 316 316 314 312 312 312 313 314 313 310 308 309 307
321 322 323 323 324 323 322 322 318 310 309 316 314 314 317 320 320 323 325 324 324 324 324 324 324 324 324 323 322 318 320 320 319 318 318 317 316 316 315 315 313 313 313 311 310 310 310 310 310 310 306 304

ECMWFFLT2_sfc_thetae_108.txt.gz
Theta_e
336 338 339 339 339 340 339 339 339 341 342 342 337 341 341 341 341 341 342 340 339 339 338 335 334 335 335 336 335 336 336 336 337 337 337 337 336 336 335 335 334 334 333 332 331 330 329 329 326 323 320 317
335 338 340 340 339 340 340 340 340 340 340 340 340 340 340 340 340 341 340 340 340 340 339 338 336 336 335 336 336 336 336 336 336 336 336 335 335 335 335 334 335 334 333 332 330 328 327 327 326 323 321 314
330 333 336 338 338 338 339 340 338 338 337 337 338 336 334 333 333 333 335 336 338 337 336 335 336 336 337 335 336 336 336 335 336 335 335 335 335 335 333 333 333 333 333 331 329 328 325 322 319 318 316 312
328 331 331 334 335 336 336 336 335 334 331 329 329 329 328 327 326 325 326 327 328 331 334 332 330 334 335 335 334 334 335 335 335 334 335 335 335 334 333 331 329 329 331 330 328 326 323 319 316 312 310 311
329 330 329 329 329 331 332 332 331 329 324 322 321 321 321 321 320 319 321 322 321 323 323 325 327 332 335 334 334 333 333 334 334 334 334 334 335 334 329 322 321 320 325 327 325 323 319 316 315 310 310 311
328 330 328 327 329 327 326 325 323 320 320 325 317 320 319 317 320 317 316 320 326 321 321 321 323 328 333 334 333 334 333 333 333 334 334 334 335 332 326 318 312 312 314 318 321 319 316 314 311 311 308 311
327 328 327 328 329 329 324 325 319 319 317 316 315 315 315 316 316 316 316 317 319 319 318 320 321 328 330 332 329 332 333 333 333 334 334 332 330 329 321 314 313 313 312 312 315 314 313 310 311 311 308 310
326 326 325 327 327 328 326 322 319 318 315 314 315 315 314 317 316 316 316 322 324 322 319 319 320 321 322 323 321 323 321 323 326 326 325 324 323 318 315 314 313 313 315 316 315 313 312 312 310 310 309 307
326 326 324 325 326 326 324 323 320 320 317 315 315 314 314 315 317 317 317 317 316 316 317 319 319 319 317 316 317 318 318 317 319 318 315 313 311 310 312 314 313 313 315 315 313 312 312 311 308 309 307 307
327 326 323 323 325 325 325 324 322 321 321 318 316 315 315 315 315 317 317 316 315 315 315 318 318 317 316 316 316 317 318 317 318 317 313 311 312 312 310 312 312 313 312 314 312 312 310 310 310 309 308 307
328 326 323 322 322 324 324 323 322 321 321 321 318 317 315 318 314 317 318 317 314 313 314 317 316 317 316 317 316 319 318 317 317 315 315 313 313 310 310 311 311 311 311 307 309 310 310 309 310 310 309 307
328 328 325 322 322 323 323 322 322 321 322 320 320 318 318 317 317 316 317 318 316 314 313 314 314 314 317 317 316 319 317 317 316 315 314 313 311 309 308 307 308 308 308 309 306 309 311 311 311 311 310 309
328 329 328 325 323 322 321 322 322 322 320 320 319 319 317 316 317 315 315 315 316 314 314 313 313 313 314 313 314 315 317 317 316 314 313 311 310 307 310 307 310 307 309 309 309 308 311 310 310 310 311 311
326 327 327 327 326 325 320 321 322 319 319 319 318 318 318 318 318 318 317 317 314 315 315 314 313 312 312 313 312 313 314 313 313 314 311 311 312 312 313 312 311 308 310 311 310 307 309 310 310 310 310 311
326 326 326 327 327 326 324 322 320 319 320 318 319 319 317 318 317 318 317 317 314 313 314 313 312 314 312 313 313 312 314 311 315 315 316 317 316 316 315 315 312 310 312 313 312 309 308 311 310 311 312 310
324 323 325 325 325 325 323 321 321 320 319 318 319 318 317 318 318 315 315 316 314 316 314 313 312 312 312 315 313 312 315 316 316 316 316 316 315 315 314 315 314 312 312 314 314 312 313 312 312 313 312 311
325 323 323 323 323 323 322 322 321 321 320 320 320 319 319 319 318 317 317 315 316 314 313 312 312 313 313 315 313 312 314 316 315 315 315 316 314 314 313 313 316 314 312 313 313 311 313 312 312 312 310 311
326 323 323 323 323 322 322 322 321 321 320 320 319 320 319 319 319 318 317 316 315 314 314 313 314 316 317 316 314 314 311 313 315 316 316 316 314 314 314 315 315 314 314 311 308 310 312 312 314 312 310 311
326 324 323 323 324 323 323 322 322 322 321 319 320 320 320 320 319 319 318 317 318 318 319 319 319 317 319 317 315 315 314 315 315 315 316 315 314 315 314 313 314 313 312 312 313 315 315 314 314 310 310 310
327 326 325 324 323 324 323 323 322 322 322 322 320 320 320 319 320 319 319 320 321 320 320 320 319 319 319 317 316 317 316 315 316 315 315 315 315 314 314 314 315 310 311 311 313 314 313 312 310 309 309 310
325 325 325 325 325 325 324 323 323 322 321 320 319 319 320 320 321 320 321 322 322 322 320 320 320 318 317 316 316 316 314 315 317 317 317 316 315 314 314 314 311 311 311 311 312 312 311 311 309 309 310 311
326 326 326 325 325 324 325 324 324 323 322 322 322 321 322 321 322 322 323 323 323 322 322 321 320 319 316 315 317 314 313 315 316 315 314 315 315 314 311 309 310 311 312 309 311 310 310 311 309 310 311 311
326 325 324 323 323 323 324 324 324 325 325 326 325 324 323 321 321 320 322 323 324 323 323 322 320 321 321 322 319 318 316 314 311 311 310 311 314 309 309 311 313 313 311 310 309 309 311 311 311 312 311 310
325 324 324 324 322 323 324 325 323 326 328 328 327 326 324 323 323 322 323 324 325 325 324 323 323 324 323 319 317 318 317 314 312 312 311 311 309 310 312 312 313 313 309 307 308 309 311 311 311 311 311 310
326 325 325 324 325 325 324 324 325 327 329 330 330 328 327 325 325 324 323 323 324 325 323 323 322 321 320 319 318 317 319 318 315 314 317 314 310 310 313 316 314 309 309 310 314 313 310 311 310 309 309 309
325 326 327 327 326 323 321 322 323 325 324 328 330 331 330 328 326 325 325 322 323 323 322 322 322 322 322 320 317 316 315 317 313 314 315 315 314 309 313 312 309 309 312 311 310 313 313 312 309 309 307 306
325 325 324 325 320 325 317 316 323 324 322 323 327 329 330 331 330 327 325 323 321 323 323 323 322 321 320 319 319 318 315 312 314 315 316 315 314 315 313 314 313 313 315 313 313 313 309 306 309 308 301 298
326 325 324 321 319 322 323 319 315 317 317 320 322 325 326 327 328 328 328 328 325 323 323 322 321 320 319 320 319 316 315 315 316 317 315 314 314 315 315 314 312 311 314 314 312 308 307 307 306 305 301 306
323 320 317 316 315 316 316 316 316 318 318 319 321 322 323 326 326 327 328 329 328 324 325 324 323 323 323 320 317 315 318 320 321 319 317 317 316 316 315 314 313 312 313 313 314 312 308 306 303 303 307 308
322 322 323 320 322 321 320 322 318 319 320 319 319 323 321 322 324 326 326 325 325 324 322 323 323 323 322 321 318 319 321 321 319 319 318 317 317 316 315 315 314 312 310 311 311 313 313 311 308 307 307 307
320 322 322 322 324 324 323 323 320 316 316 320 318 315 318 323 321 322 325 325 324 323 323 324 324 323 323 323 322 318 319 319 319 318 317 315 315 315 314 314 312 311 311 308 308 309 309 309 309 309 305 303

ECMWFFLT2_sfc_thetae_111.txt.gz
Theta_e
336 337 340 342 340 340 341 341 341 342 340 342 342 342 342 341 341 340 338 338 337 335 334 335 335 335 336 336 336 336 337 336 337 337 337 337 336 336 336 335 335 334 333 332 331 330 330 329 327 323 322 330
335 337 339 339 339 340 341 341 341 341 341 341 341 340 340 340 340 341 340 340 339 338 337 336 336 335 335 336 336 336 336 337 336 336 336 336 335 335 335 335 334 333 332 331 330 328 327 326 324 322 322 330
338 332 335 337 337 338 339 339 338 338 337 337 338 336 335 334 333 333 335 336 337 337 335 335 335 337 337 335 336 336 336 335 336 336 335 335 334 334 333 334 333 333 332 330 329 328 325 321 319 317 324 328
337 332 331 333 334 335 336 335 335 334 332 329 329 329 328 327 329 328 329 326 333 330 333 331 332 334 335 334 334 334 335 335 335 335 335 335 334 331 330 329 328 328 329 329 327 325 323 319 318 327 327 327
334 333 330 331 329 330 331 332 331 329 323 322 321 323 321 323 329 329 331 332 332 323 329 322 325 332 335 334 334 334 334 334 334 334 335 335 333 331 327 321 320 320 324 326 325 323 319 318 328 326 326 327
333 334 331 335 334 333 331 326 324 328 331 327 328 320 327 330 329 327 329 330 327 328 327 326 323 327 332 334 332 333 334 334 334 334 333 332 331 329 324 317 322 321 317 318 320 318 316 327 327 327 324 325
332 333 332 332 332 330 326 329 328 329 327 327 325 325 326 325 326 325 326 325 323 322 318 323 321 325 327 327 326 328 328 330 331 331 330 327 327 325 319 320 321 321 322 323 316 317 325 326 326 326 325 326
330 332 332 332 332 331 328 328 327 326 326 326 324 324 324 324 324 324 324 322 322 322 324 323 319 319 319 320 320 321 324 323 324 323 322 320 318 317 317 320 319 321 324 325 325 326 326 326 324 325 324 325
328 330 331 331 330 330 328 326 324 324 325 324 324 323 324 322 321 322 323 323 321 322 322 323 324 324 323 320 322 320 323 322 322 320 319 318 316 317 318 320 319 322 323 325 325 325 325 324 324 324 324 324
327 328 329 329 329 329 329 327 325 324 324 324 324 324 323 322 323 322 322 321 323 322 322 322 322 320 320 319 322 320 321 321 320 320 319 317 317 317 317 318 319 318 318 322 325 325 324 324 324 324 323 323
328 327 329 329 329 329 328 328 326 325 325 324 324 324 324 327 324 324 323 323 321 322 321 322 320 321 320 321 322 321 321 321 319 319 319 318 318 317 317 320 322 321 321 319 322 324 324 323 323 323 323 322
328 328 327 327 327 328 327 327 327 327 326 325 324 324 326 326 325 324 323 323 322 323 319 322 321 320 321 321 321 322 321 321 320 319 318 318 319 318 319 320 322 321 321 321 319 322 324 323 322 322 321 320
329 329 328 327 326 327 325 327 328 327 326 325 325 324 325 326 327 325 325 324 323 321 324 322 321 321 321 320 321 321 322 320 320 320 320 320 321 320 321 321 322 321 322 321 321 321 324 322 322 322 322 322
328 328 328 328 327 327 324 326 327 326 326 327 325 325 324 325 328 327 327 326 324 325 326 323 321 322 322 322 322 320 323 322 320 323 322 322 322 322 324 323 322 319 321 323 323 321 321 321 320 321 321 321
327 327 327 328 328 328 326 326 326 327 327 327 326 326 324 325 326 327 327 326 326 325 325 324 322 323 321 322 323 321 323 321 322 322 322 323 323 322 322 322 322 319 320 322 323 323 320 321 321 321 321 321
325 325 326 327 327 327 327 327 326 326 326 325 327 326 325 326 326 326 326 326 325 325 324 324 324 323 322 324 323 323 323 323 321 322 322 321 320 320 319 320 320 319 319 322 322 321 321 321 320 321 321 320
325 325 325 325 326 326 327 326 325 326 326 326 326 325 326 326 326 326 326 325 325 323 324 323 323 323 322 323 322 322 322 323 322 321 321 320 319 318 318 319 322 322 320 319 320 320 320 320 320 321 321 320
326 325 325 325 325 325 325 325 326 326 327 326 326 326 326 326 326 325 325 325 323 323 322 321 321 323 323 322 321 322 321 321 321 321 322 322 321 319 320 320 321 320 320 321 320 320 321 321 321 322 320 320
327 327 326 326 326 325 326 326 326 326 326 326 326 326 326 326 326 325 325 324 324 322 323 323 324 322 324 323 321 320 320 322 322 321 321 321 321 321 320 320 320 319 319 319 319 320 320 321 321 321 319 319
328 328 327 327 324 327 326 326 326 326 326 327 326 326 326 326 326 326 324 323 323 324 323 324 325 327 326 324 323 323 322 321 323 321 320 320 320 320 320 320 321 321 320 319 318 320 320 320 319 319 320 319
329 329 328 327 327 327 327 326 327 327 326 326 325 326 326 326 326 325 325 324 324 325 324 324 325 325 326 324 325 326 324 323 324 323 322 322 320 320 320 320 320 321 320 319 319 320 320 320 319 319 320 320
329 329 329 328 328 327 327 327 328 328 326 326 326 325 326 326 326 326 326 326 325 325 326 326 325 325 323 323 325 326 323 323 322 321 322 322 322 320 319 320 320 320 321 319 319 319 320 320 320 321 320 320
329 329 329 329 328 327 327 327 328 328 327 327 327 326 327 327 327 326 327 326 326 325 325 325 326 325 324 323 325 323 322 321 320 320 320 320 321 318 320 321 321 320 319 319 318 317 318 319 320 321 320 318
328 328 327 326 326 326 326 327 326 327 328 328 328 328 328 327 327 327 326 326 326 326 325 326 326 327 328 326 325 324 323 323 321 321 320 320 319 320 319 318 320 320 318 316 316 315 318 321 321 320 320 317
328 326 326 327 326 326 327 327 328 328 328 328 329 329 328 328 327 327 326 326 327 326 325 327 326 326 326 324 324 324 324 324 324 322 322 321 319 319 320 322 321 318 314 315 318 320 320 321 321 319 317 316
329 329 329 328 327 327 327 327 326 327 328 329 330 330 329 329 330 329 328 326 327 328 327 326 326 327 327 326 325 324 323 323 319 320 320 321 322 316 320 321 319 316 316 315 314 314 315 317 320 320 316 316
329 330 331 331 330 329 327 328 330 330 329 331 331 331 331 331 331 331 330 330 328 328 328 328 329 328 328 327 327 325 323 321 321 320 321 320 320 318 316 318 317 317 318 317 317 316 314 312 311 315 318 314
330 330 331 331 329 330 329 324 321 324 323 327 328 329 331 332 332 332 331 331 328 327 327 327 328 328 326 326 324 325 324 321 321 321 320 318 317 318 317 317 319 316 317 317 317 312 311 311 310 306 310 312
328 326 325 324 321 323 321 319 321 322 322 325 325 328 328 330 331 331 331 330 329 328 328 328 328 326 325 325 323 321 322 322 323 323 322 320 319 317 318 316 318 316 316 317 319 317 311 309 306 307 310 310
326 326 326 323 323 320 321 322 319 321 322 321 322 326 329 330 331 331 332 331 329 329 327 328 328 327 326 325 323 322 323 324 323 323 321 320 321 318 318 318 317 316 316 316 318 318 317 314 309 308 309 308
324 326 326 325 326 325 325 325 324 325 326 325 327 327 325 327 326 328 329 330 330 329 325 326 328 328 327 326 325 324 324 321 322 322 320 318 319 319 318 317 315 314 314 314 315 315 314 313 311 311 308 304

ECMWFFLT2_sfc_thetae_114.txt.gz
Theta_e
338 340 341 342 343 343 343 342 340 343 342 342 342 342 342 340 339 338 337 336 336 336 336 336 336 335 336 336 336 336 337 337 337 337 337 337 336 335 335 334 334 334 333 332 330 330 329 328 327 325 323 330
336 338 340 340 341 341 342 343 343 342 341 341 340 340 340 340 340 340 338 337 338 338 338 337 336 336 335 336 336 336 337 336 336 336 336 335 335 335 335 334 334 333 332 331 330 328 327 326 324 325 323 331
340 333 336 337 338 338 339 340 339 339 338 338 338 337 335 334 333 333 334 335 337 336 335 335 335 336 335 336 336 336 335 336 336 335 336 334 333 332 333 333 333 332 332 330 329 327 326 322 321 319 326 330
339 333 331 334 334 335 336 336 335 334 332 331 330 330 330 329 334 331 333 327 333 330 333 331 332 334 335 334 334 334 335 334 335 335 335 333 332 330 330 329 328 328 329 329 327 326 324 323 320 331 330 330
339 340 330 331 328 330 332 333 331 329 324 323 322 324 322 327 338 337 337 337 337 328 333 323 326 333 335 335 335 334 334 334 334 334 333 332 331 329 325 323 322 322 324 326 325 323 322 319 331 331 331 331
337 340 335 338 339 339 334 329 327 333 337 335 336 323 334 335 335 335 336 336 335 335 334 330 322 326 330 331 331 332 333 333 333 331 330 330 330 327 324 321 334 331 321 319 321 322 318 332 331 331 330 330
337 337 337 338 337 337 331 336 338 338 336 337 336 336 334 331 333 335 334 334 332 331 319 324 321 324 325 325 325 328 328 329 329 329 328 326 326 324 321 334 332 331 333 333 319 319 331 330 330 330 329 329
336 337 337 336 337 336 335 335 336 337 337 337 337 336 334 332 334 334 333 324 323 327 333 329 319 318 320 322 321 323 328 326 324 324 323 321 321 327 329 332 331 330 330 330 331 330 328 328 328 329 328 327
332 335 335 335 335 335 334 334 334 334 336 337 337 336 334 335 334 334 333 333 333 333 332 332 331 331 332 331 331 323 330 331 332 330 331 332 330 332 332 330 329 329 328 328 329 329 329 329 330 330 330 329
332 333 333 334 334 334 334 335 334 333 333 335 335 335 335 333 334 334 334 333 333 333 332 331 330 330 331 330 331 330 330 330 330 330 329 329 330 329 329 329 328 329 328 327 328 328 329 329 329 330 330 330
332 331 332 333 334 333 332 334 334 333 332 333 335 335 335 333 332 332 332 332 332 332 332 331 331 331 331 331 331 330 330 330 330 329 329 328 328 328 329 329 330 329 329 329 328 328 330 330 329 329 329 330
331 332 331 332 331 333 331 332 333 334 333 333 332 334 333 331 332 331 331 332 332 332 332 332 332 332 331 331 331 331 331 330 329 329 330 330 331 330 331 330 331 330 330 329 330 329 329 331 330 329 329 330
332 332 332 331 331 332 330 333 334 334 334 332 332 332 334 332 332 333 333 334 333 334 334 333 333 331 332 332 332 332 331 331 331 331 330 331 330 330 330 329 329 329 329 329 329 328 328 329 328 329 330 330
331 331 331 332 332 333 331 333 335 336 333 333 333 332 333 333 333 333 333 334 334 334 334 333 334 332 332 331 332 332 332 332 331 331 331 332 332 331 330 328 329 328 329 329 329 328 328 329 328 329 328 329
331 331 330 332 334 333 331 334 335 334 334 333 333 333 334 334 334 334 334 334 334 334 334 334 333 333 333 331 332 332 332 332 331 331 330 331 330 330 329 329 329 329 328 328 329 329 330 329 329 329 329 329
331 330 330 332 332 332 332 334 334 334 334 332 333 335 334 334 335 334 335 335 335 335 334 333 332 332 332 332 332 332 332 332 332 332 332 332 331 331 330 329 329 329 327 327 328 329 329 329 329 328 329 329
330 330 330 331 331 332 332 331 333 334 334 334 335 336 335 335 336 335 334 335 336 334 334 333 333 332 332 332 332 332 332 332 332 331 331 331 330 329 329 328 328 330 328 326 327 329 329 329 328 329 330 329
330 330 330 331 331 332 331 330 331 333 335 335 334 335 336 336 335 334 333 335 335 335 333 333 333 332 331 332 332 332 332 330 329 328 328 328 328 325 327 326 326 325 325 326 328 328 329 329 329 330 329 329
330 330 330 330 331 331 331 331 331 332 334 334 334 334 334 335 334 335 334 335 334 334 333 332 331 330 330 331 332 331 331 330 330 329 328 326 326 327 325 325 327 326 325 326 327 328 328 328 329 330 329 329
331 330 330 331 327 331 332 330 331 331 333 333 333 333 333 335 335 334 335 335 335 333 333 332 331 330 331 332 331 331 330 330 329 329 329 329 329 325 326 326 326 327 327 327 327 328 329 329 330 329 329 328
332 331 330 331 332 332 333 332 332 333 334 333 333 332 332 334 334 334 335 335 334 333 333 333 332 332 333 333 331 330 330 328 329 329 329 327 328 328 325 326 326 327 327 326 327 328 328 329 329 329 328 327
333 332 332 332 333 333 334 335 335 336 335 333 332 333 333 335 334 333 334 334 334 334 335 334 334 334 332 332 331 330 330 328 330 330 329 327 328 328 326 325 325 325 326 327 327 328 328 328 328 328 328 326
333 333 332 333 334 334 333 335 336 336 334 334 334 334 335 336 334 332 334 334 334 334 334 334 333 333 334 332 331 330 329 329 330 329 329 328 327 328 328 327 327 327 327 326 326 326 326 327 327 328 327 326
332 332 331 330 331 331 331 333 333 335 335 336 335 335 335 335 335 334 334 335 334 333 333 333 333 333 333 332 330 330 329 329 329 329 329 329 328 328 328 327 327 327 325 324 325 324 325 326 326 325 324 325
331 330 330 330 330 329 331 331 333 333 334 335 335 336 335 335 334 336 335 334 335 334 330 332 333 333 333 333 331 330 329 330 330 329 330 328 328 327 326 327 328 327 324 322 322 323 323 323 324 324 323 323
331 332 332 331 331 331 331 331 331 333 334 334 335 336 336 335 335 337 336 334 335 333 333 333 332 333 332 332 331 330 331 331 327 330 329 328 327 327 324 325 327 326 324 321 318 317 318 320 321 321 322 323
332 333 334 334 334 333 332 334 336 336 336 336 336 337 337 336 335 336 336 336 334 334 334 333 332 332 333 332 332 329 329 330 329 329 328 328 326 323 321 323 324 324 324 320 321 321 317 314 313 318 321 321
334 334 335 335 336 335 334 332 333 335 336 336 335 335 336 336 335 336 336 336 336 334 333 333 332 332 332 331 332 331 330 329 329 328 327 327 325 324 321 321 321 323 323 323 321 313 313 312 313 310 315 313
334 334 333 334 334 334 333 330 330 330 329 330 331 333 334 333 334 335 336 336 336 334 333 334 333 333 332 332 332 331 329 328 328 329 328 327 325 322 323 322 320 320 322 322 323 318 313 312 311 310 311 312
334 333 331 330 327 325 326 324 324 324 326 326 327 329 333 335 335 335 335 336 336 335 333 334 334 334 333 332 331 330 329 328 328 328 327 327 326 323 324 323 320 317 318 320 320 321 318 317 313 311 312 311
332 332 331 330 329 328 327 326 327 329 330 330 330 331 332 334 335 336 335 336 335 336 335 334 334 332 331 331 331 329 328 326 327 328 327 326 325 324 322 321 319 318 316 317 318 318 317 316 315 314 311 308

ECMWFFLT2_sfc_thetae_117.txt.gz
Theta_e
340 342 344 343 341 340 342 344 343 343 342 342 342 341 339 337 337 337 337 336 336 336 336 336 336 336 336 336 336 337 337 337 337 337 337 337 336 335 335 334 334 333 332 332 331 330 329 329 329 326 323 330
337 340 341 341 342 343 343 343 343 342 341 341 341 340 341 340 338 337 338 339 338 338 337 337 336 336 335 336 336 336 335 336 336 336 336 335 334 335 335 334 333 333 332 331 330 329 328 327 327 327 323 330
340 333 336 338 339 341 341 340 340 340 339 339 339 338 337 336 334 333 334 335 336 336 335 335 335 336 335 335 335 335 335 335 335 334 334 334 333 333 333 333 332 332 331 331 329 329 328 325 324 320 324 330
340 333 330 334 335 336 337 337 337 335 333 331 331 331 331 330 333 330 332 327 332 329 331 329 332 334 335 334 334 334 335 334 334 335 334 333 331 330 331 330 329 330 330 330 329 328 327 325 320 332 329 330
338 337 330 330 328 330 333 334 333 329 322 322 322 326 325 328 335 336 334 337 335 327 328 323 325 332 334 335 335 334 334 335 334 333 333 332 331 329 327 326 326 326 327 327 327 328 325 318 333 330 329 329
337 339 334 336 337 337 333 328 327 332 336 335 336 324 333 335 332 331 333 334 336 333 332 327 322 326 330 331 331 332 332 332 332 331 331 331 331 330 327 322 328 327 322 322 325 324 320 332 329 329 328 328
335 333 334 335 334 337 331 335 335 335 334 335 333 333 333 331 332 332 332 333 332 331 319 323 321 323 324 326 327 328 328 329 329 329 329 328 328 329 326 331 333 331 332 332 317 317 329 329 329 329 329 328
333 334 334 333 333 334 333 335 335 334 334 334 334 334 332 331 333 332 333 326 326 327 332 325 319 321 321 322 323 325 327 324 327 326 327 326 326 326 331 330 328 329 329 330 330 331 328 328 329 330 329 329
333 334 333 334 333 334 332 333 333 333 333 334 334 334 332 332 332 332 331 332 331 333 331 332 332 330 331 331 331 321 331 332 334 329 332 331 328 330 329 328 328 329 329 329 330 329 329 329 330 330 330 329
333 333 333 333 333 333 333 333 333 334 333 333 334 333 334 331 331 332 331 331 331 331 330 331 329 330 329 330 328 328 328 327 328 327 327 328 328 328 329 330 330 330 329 328 328 328 330 329 328 329 329 329
333 332 333 333 333 332 333 332 332 332 332 334 334 334 335 330 329 330 330 330 331 331 332 331 331 330 331 330 328 329 328 328 328 328 328 328 329 329 331 331 330 330 330 330 328 328 328 329 328 328 327 328
331 332 333 333 332 332 331 332 332 331 332 333 333 334 331 330 330 329 329 330 331 331 332 332 333 332 332 332 331 331 332 330 329 329 330 330 331 330 330 329 329 329 329 329 329 328 328 328 328 327 327 328
332 331 333 333 332 331 332 333 333 333 332 332 331 332 332 332 331 331 332 331 332 333 333 333 332 332 332 332 332 332 331 332 331 331 330 330 329 329 328 328 328 328 328 329 328 327 328 328 326 327 327 327
332 332 332 333 332 331 333 332 334 334 333 330 329 330 333 332 333 332 332 333 334 333 332 333 333 332 332 331 332 332 331 331 331 330 330 330 330 329 328 328 327 328 327 327 328 328 327 328 326 327 326 327
332 332 332 333 333 333 333 332 334 334 332 331 331 330 331 332 334 334 334 333 334 333 332 333 333 332 332 331 332 332 332 332 331 331 330 330 329 328 328 327 328 327 327 326 327 327 327 327 327 327 326 327
332 333 333 333 333 333 333 333 333 333 331 331 332 332 333 334 334 334 334 335 334 333 332 331 331 332 331 331 331 332 331 331 332 331 331 331 331 330 329 328 328 328 327 326 325 327 327 327 327 326 327 328
333 333 333 333 333 334 335 333 333 332 331 332 333 334 336 334 335 335 335 334 334 333 332 332 332 331 331 331 332 331 331 331 331 330 330 329 331 330 329 328 327 329 325 324 326 327 327 327 327 328 328 329
332 333 333 333 333 334 334 333 332 332 332 333 332 334 336 335 335 335 334 334 333 333 333 333 332 331 331 332 331 331 330 329 328 327 326 327 327 324 326 325 325 324 324 324 326 327 327 327 327 328 328 328
332 332 333 332 333 333 334 333 333 332 333 333 332 333 334 334 334 334 333 333 333 333 333 332 331 330 331 331 331 330 330 329 328 328 327 326 325 326 325 325 325 325 324 325 325 326 327 327 327 328 327 328
332 332 332 332 329 332 334 332 331 331 332 332 332 331 333 334 333 333 331 333 334 333 333 331 331 329 330 331 330 330 330 329 327 327 328 328 327 325 325 325 325 326 325 326 325 327 327 328 328 328 327 327
332 332 331 331 330 331 333 331 329 328 329 329 330 330 330 333 333 333 332 333 334 333 333 332 331 331 331 332 330 329 329 328 328 327 328 326 326 326 324 324 324 324 325 325 326 327 328 328 328 328 327 325
331 332 331 331 331 330 331 330 328 329 330 330 330 330 329 331 332 331 332 334 335 334 333 333 332 333 332 331 331 330 329 328 329 328 328 326 327 327 325 324 323 324 325 326 327 326 326 328 328 327 326 325
330 331 331 331 330 331 330 331 331 332 334 336 334 332 331 332 333 330 332 335 334 334 332 332 332 332 333 332 330 330 329 329 328 328 328 327 327 327 327 326 326 326 326 325 325 325 325 326 326 326 325 326
331 331 329 329 329 330 331 331 332 335 336 336 336 335 333 334 335 333 333 335 335 334 332 332 331 332 333 332 330 329 329 328 327 328 328 328 327 326 327 327 327 327 325 324 323 323 323 325 324 323 324 324
331 330 329 330 329 328 331 331 333 334 335 335 336 336 336 336 335 335 335 335 335 334 331 332 332 332 333 332 331 329 328 329 329 329 329 328 328 325 324 325 328 327 325 322 321 321 322 322 323 323 323 323
332 333 331 330 330 330 331 331 331 332 334 334 336 336 337 337 336 335 336 335 336 334 334 332 331 332 331 332 331 330 330 330 326 330 329 328 326 327 325 324 327 326 323 321 317 315 317 319 321 321 322 321
332 333 334 333 333 333 332 334 335 335 335 336 335 336 336 337 337 336 336 336 335 334 333 332 332 332 332 331 331 329 329 329 329 329 328 328 326 324 325 324 324 325 324 318 319 319 316 314 313 316 319 319
335 335 335 336 336 336 335 334 335 335 336 336 336 335 336 337 337 337 336 336 335 334 333 333 332 332 331 331 331 330 329 329 328 328 328 327 326 325 321 322 322 323 324 322 318 313 313 311 312 311 314 313
334 334 334 335 335 336 335 335 334 333 332 334 335 335 334 335 336 336 336 336 335 334 333 334 333 332 331 331 331 331 329 328 328 328 328 327 325 324 322 320 322 322 323 322 322 317 312 312 309 310 310 311
333 332 332 331 330 329 330 329 330 329 329 331 332 333 334 335 336 336 336 336 336 335 333 333 333 332 331 331 331 331 329 328 329 329 328 327 326 325 325 323 321 318 319 321 321 320 318 315 313 311 312 309
332 333 332 331 331 330 329 328 329 331 332 332 332 333 333 334 336 336 335 336 336 335 335 333 333 332 332 332 331 330 329 328 329 328 328 328 327 326 325 325 320 318 317 318 319 319 317 317 315 314 311 308

ECMWFFLT2_sfc_thetae_120.txt.gz
Theta_e
340 341 342 341 343 344 344 343 342 341 341 341 338 337 336 337 338 339 336 336 337 337 336 336 336 336 336 336 337 338 338 337 337 337 337 336 335 335 334 334 334 333 332 332 332 331 331 331 329 326 322 325
338 340 341 341 342 343 343 343 342 341 342 341 340 340 340 339 339 339 339 338 338 337 337 337 336 336 336 336 336 336 336 336 336 336 335 334 334 335 334 333 333 332 332 331 331 331 331 330 328 325 323 324
334 334 338 340 340 341 341 341 340 340 339 339 339 338 336 335 333 333 333 333 334 334 333 334 334 336 334 335 335 335 335 335 335 334 334 333 333 333 334 332 332 332 332 330 330 330 329 328 324 321 321 324
334 331 332 336 337 337 338 338 337 336 334 332 332 332 331 329 328 327 327 326 325 327 329 329 330 334 335 334 334 334 335 334 335 334 333 333 332 332 332 332 331 331 330 330 330 330 328 325 320 322 323 324
334 330 329 330 331 333 334 334 333 330 324 323 324 326 324 327 331 329 328 329 326 322 323 323 325 331 334 335 335 334 334 334 333 333 332 332 331 330 330 327 326 327 330 331 329 329 327 320 321 323 322 323
334 332 332 332 331 331 330 326 323 325 328 331 329 324 325 331 330 329 329 330 330 325 324 322 322 326 330 331 330 332 332 333 332 331 332 331 332 331 330 324 321 320 321 325 328 326 320 320 323 323 323 324
334 333 332 332 332 331 327 329 329 330 330 330 330 329 330 330 326 328 329 327 328 325 320 321 321 323 325 327 327 328 329 330 331 330 330 331 331 331 329 323 321 325 323 320 319 316 318 323 323 325 325 325
332 330 328 332 332 331 331 330 331 330 330 329 328 328 329 326 327 328 326 326 327 324 322 319 319 322 323 324 324 325 325 326 328 329 329 329 330 328 323 324 322 321 322 324 323 323 322 323 324 323 323 326
328 327 327 328 329 331 330 329 329 328 328 328 328 328 328 327 325 327 325 323 323 322 325 322 321 319 320 320 321 319 322 322 323 320 322 322 321 321 324 321 322 322 323 323 323 322 322 324 324 324 326 329
328 329 327 327 326 328 328 329 327 328 328 328 329 327 328 326 325 324 324 324 323 326 325 325 324 323 323 323 323 320 323 324 325 321 324 325 324 322 322 325 327 325 323 322 322 322 322 323 324 325 326 326
327 327 328 328 328 328 327 328 327 327 326 328 328 327 327 325 323 324 324 324 324 324 324 324 323 322 323 323 321 321 322 320 320 321 320 322 322 323 323 324 325 326 324 322 323 323 323 323 323 324 325 323
327 327 328 328 326 327 326 326 326 326 327 329 328 327 327 323 323 323 322 324 324 324 325 325 326 325 324 324 323 323 324 323 322 322 322 322 323 324 325 324 323 323 324 323 323 323 324 324 323 322 322 321
326 327 328 328 326 324 327 327 326 326 326 327 327 328 326 324 323 323 324 325 325 326 325 326 325 325 326 327 326 325 325 326 325 324 324 325 325 324 324 323 321 321 323 324 321 322 324 323 322 321 322 322
325 325 326 326 326 325 325 326 328 327 325 326 326 327 326 325 325 324 325 326 326 326 326 326 326 326 326 325 325 325 326 325 325 325 324 324 324 323 323 324 322 320 321 323 321 322 324 321 321 321 323 324
326 326 327 327 326 326 327 326 328 328 327 325 324 325 327 326 327 327 327 327 327 326 327 327 326 326 326 325 325 326 324 324 324 324 324 326 323 322 322 322 322 321 321 321 321 322 323 321 321 324 325 324
327 327 327 327 327 326 329 327 328 328 327 323 323 325 327 326 326 326 328 328 328 327 326 326 326 326 325 325 325 325 324 324 326 325 324 324 323 323 323 323 321 320 320 320 321 320 320 321 323 323 323 324
328 328 329 328 327 327 330 327 327 328 326 325 326 326 327 327 327 328 327 327 328 325 325 326 326 324 323 324 326 324 325 324 323 323 322 323 323 323 323 321 322 322 322 321 320 320 321 322 322 322 322 322
327 327 328 328 328 328 329 327 325 326 325 325 326 328 328 328 328 328 328 327 327 326 325 324 324 323 323 323 323 322 324 322 323 324 322 320 322 321 322 320 320 318 318 319 320 319 320 320 321 321 323 322
327 327 328 327 327 328 329 328 326 325 326 326 326 328 330 329 328 329 329 327 327 326 325 324 324 323 324 324 323 323 323 322 321 320 319 318 319 319 318 317 317 318 318 317 319 320 320 321 321 321 323 322
328 328 328 327 326 328 329 327 327 326 327 327 326 327 330 330 329 329 329 327 326 326 326 325 325 325 325 325 323 322 322 322 320 320 321 320 319 318 317 317 318 318 318 318 319 320 320 321 321 321 321 320
327 327 327 327 327 328 328 327 326 325 326 327 327 325 327 329 328 328 327 326 327 326 327 325 326 325 325 325 322 322 322 321 322 320 322 320 320 318 316 317 318 317 318 319 319 320 321 321 321 321 319 318
326 327 327 326 326 325 328 327 326 325 324 324 324 324 324 329 328 326 326 326 328 327 327 327 326 325 325 325 324 322 322 322 322 320 321 320 321 321 318 317 319 318 318 319 319 317 317 318 319 321 318 317
326 327 326 326 325 324 326 327 324 323 322 322 323 323 324 327 328 326 326 327 328 328 327 326 326 327 326 325 324 324 323 322 320 320 321 321 320 322 320 320 319 319 318 318 318 317 318 318 320 318 315 316
325 325 324 323 323 323 323 325 323 322 322 325 325 326 325 326 328 326 325 328 329 329 327 326 326 326 326 326 325 324 322 320 320 320 320 320 321 320 319 319 319 319 317 315 315 315 318 319 318 317 315 315
323 322 322 323 323 322 324 324 324 324 325 328 329 330 328 327 328 327 326 328 329 329 326 327 325 326 326 326 326 324 323 322 323 323 323 321 319 319 317 318 319 318 316 315 313 316 318 317 317 315 315 315
324 323 323 322 322 322 324 324 324 325 327 329 330 331 330 329 330 329 328 328 329 328 328 327 325 326 326 326 326 325 324 323 320 321 322 321 318 319 317 317 318 319 315 312 312 309 309 312 312 313 314 313
325 325 325 324 324 324 323 327 326 327 328 330 330 331 331 331 331 331 329 329 329 329 329 327 326 326 326 327 326 324 323 322 322 322 321 321 319 317 315 316 318 317 315 310 312 311 308 307 304 308 312 311
328 328 328 327 327 326 326 326 327 328 329 329 329 329 331 332 332 331 330 331 330 330 329 328 327 327 326 326 326 325 323 322 322 323 322 321 321 318 313 312 316 316 316 313 313 305 306 306 305 302 307 306
328 328 327 328 327 327 327 327 328 327 327 329 329 329 330 330 332 332 331 331 331 330 330 329 328 327 327 326 326 326 324 323 323 323 324 323 321 320 316 315 313 314 316 317 315 309 306 303 300 302 306 305
328 328 327 327 326 325 326 325 325 325 326 327 328 328 330 330 332 333 332 332 332 331 329 329 328 328 327 326 326 326 325 324 323 323 323 323 322 319 317 315 314 312 315 316 315 312 309 308 303 303 304 303
327 328 328 327 327 327 326 325 326 328 328 329 329 330 330 330 331 332 332 332 332 331 329 329 329 328 328 327 326 325 326 324 323 324 323 322 321 320 319 317 315 314 315 315 314 313 310 308 306 307 303 301